[[{"header":{"parameterUnit":"m.s-1","parameterCategory":1,"la1":31.0,"la2":29.5877,"lo1":-88.7671,"lo2":-86.6584,"dy":0.0162,"dx":0.0185,"nx":115,"ny":88,"refTime":"2023-10-04T12:00:00:Z","depth":0,"parameterNumber":2,"parameterNumberName":"U-component_of_WINDS"},"data":[0.0,0.0,0.0,0.0,0.0,0.0,0.0,0.0,0.0,0.0,0.0,0.0,0.0,0.0,0.0,0.0,0.0,0.0,0.0,0.0,0.0,0.0,0.0,0.0,0.0,0.0,0.0,0.0,0.0,0.0,0.0,0.0,0.0,0.0,0.0,0.0,0.0,0.0,0.0,0.0,0.0,0.0,0.0,0.0,0.0,0.0,0.0,0.0,0.0,0.0,0.0,0.0,0.0,0.0,0.0,0.0,0.0,0.0,0.0,0.0,0.0,0.0,0.0,0.0,0.0,0.0,0.0,0.0,0.0,0.0,0.0,0.0,0.0,0.0,0.0,0.0,0.0,0.0,0.0,0.0,0.0,0.0,0.0,0.0,0.0,0.0,0.0,0.0,0.0,0.0,0.0,0.0,0.0,0.0,0.0,0.0,0.0,0.0,0.0,0.0,0.0,0.0,0.0,0.0,0.0,0.0,0.0,0.0,0.0,0.0,0.0,0.0,0.0,0.0,0.0,0.0,0.0,0.0,0.0,0.0,0.0,0.0,0.0,0.0,0.0,0.0,0.0,0.0,0.0,0.0,0.0,0.0,0.0,0.0,0.0,0.0,0.0,0.0,0.0,0.0,0.0,0.0,0.0,0.0,0.0,0.0,0.0,0.0,0.0,0.0,0.0,0.0,0.0,0.0,0.0,0.0,0.0,0.0,0.0,0.0,0.0,0.0,0.0,0.0,0.0,0.0,0.0,0.0,0.0,0.0,0.0,0.0,0.0,0.0,0.0,0.0,0.0,0.0,0.0,0.0,0.0,0.0,0.0,0.0,0.0,0.0,0.0,0.0,0.0,0.0,0.0,0.0,0.0,0.0,0.0,0.0,0.0,0.0,0.0,0.0,0.0,0.0,0.0,0.0,0.0,0.0,0.0,0.0,0.0,0.0,0.0,0.0,0.0,0.0,0.0,0.0,0.0,0.0,0.0,0.0,0.0,0.0,0.0,0.0,0.0,0.0,0.0,0.0,0.0,0.0,0.0,0.0,0.0,0.0,0.0,0.0,0.0,0.0,0.0,0.0,0.0,0.0,0.0,0.0,0.0,0.0,0.0,0.0,0.0,0.0,0.0,0.0,0.0,0.0,0.0,0.0,0.0,0.0,0.0,0.0,0.0,0.0,0.0,0.0,0.0,0.0,0.0,0.0,0.0,0.0,0.0,0.0,0.0,0.0,0.0,0.0,0.0,0.0,0.0,0.0,0.0,0.0,0.0,0.0,0.0,0.0,0.0,0.0,0.0,0.0,0.0,0.0,0.0,0.0,0.0,0.0,0.0,0.0,0.0,0.0,0.0,0.0,0.0,0.0,0.0,0.0,0.0,0.0,0.0,0.0,0.0,0.0,0.0,0.0,0.0,0.0,0.0,0.0,0.0,0.0,0.0,0.0,0.0,0.0,0.0,0.0,0.0,0.0,0.0,0.0,0.0,0.0,0.0,0.0,0.0,0.0,0.0,0.0,0.0,0.0,0.0,0.0,0.0,0.0,0.0,0.0,0.0,0.0,0.0,0.0,0.0,0.0,0.0,0.0,0.0,0.0,0.0,0.0,0.0,0.0,0.0,0.0,0.0,0.0,0.0,0.0,0.0,0.0,0.0,0.0,0.0,0.0,0.0,0.0,0.0,0.0,0.0,0.0,0.0,0.0,0.0,0.0,0.0,0.0,0.0,0.0,0.0,0.0,0.0,0.0,0.0,0.0,0.0,0.0,0.0,0.0,0.0,0.0,0.0,0.0,0.0,0.0,0.0,0.0,0.0,0.0,0.0,0.0,0.0,0.0,0.0,0.0,0.0,0.0,0.0,0.0,0.0,0.0,0.0,0.0,0.0,0.0,0.0,0.0,0.0,0.0,0.0,0.0,0.0,0.0,0.0,0.0,0.0,0.0,0.0,0.0,0.0,0.0,0.0,0.0,0.0,0.0,0.0,0.0,0.0,0.0,0.0,0.0,0.0,0.0,0.0,0.0,0.0,0.0,0.0,0.0,0.0,0.0,0.0,0.0,0.0,0.0,0.0,0.0,0.0,0.0,0.0,0.0,0.0,0.0,0.0,0.0,0.0,0.0,0.0,0.0,0.0,0.0,0.0,0.0,0.0,0.0,0.0,0.0,0.0,0.0,0.0,0.0,0.0,0.0,0.0,0.0,0.0,0.0,0.0,0.0,0.0,0.0,0.0,0.0,0.0,0.0,0.0,0.0,0.0,0.0,0.0,0.0,0.0,0.0,0.0,0.0,0.0,0.0,0.0,0.0,0.0,0.0,0.0,0.0,0.0,0.0,0.0,0.0,0.0,0.0,0.0,0.0,0.0,0.0,0.0,0.0,0.0,0.0,0.0,0.0,0.0,0.0,0.0,0.0,0.0,0.0,0.0,0.0,0.0,0.0,0.0,0.0,0.0,0.0,0.0,0.0,0.0,0.0,0.0,0.0,0.0,0.0,0.0,0.0,0.0,0.0,0.0,0.0,0.0,0.0,0.0,0.0,0.0,0.0,0.0,0.0,0.0,0.0,0.0,0.0,0.0,0.0,0.0,0.0,0.0,0.0,0.0,0.0,0.0,0.0,0.0,0.0,0.0,0.0,0.0,0.0,0.0,0.0,0.0,0.0,0.0,0.0,0.0,0.0,0.0,0.0,0.0,0.0,0.0,0.0,0.0,0.0,0.0,0.0,0.0,0.0,0.0,0.0,0.0,0.0,0.0,0.0,0.0,0.0,0.0,0.0,0.0,0.0,0.0,0.0,0.0,0.0,0.0,0.0,0.0,0.0,0.0,0.0,0.0,0.0,0.0,0.0,0.0,0.0,0.0,0.0,0.0,0.0,0.0,0.0,0.0,0.0,0.0,0.0,0.0,0.0,0.0,0.0,0.0,0.0,0.0,0.0,0.0,0.0,0.0,0.0,0.0,0.0,0.0,0.0,0.0,0.0,0.0,0.0,0.0,0.0,0.0,0.0,0.0,0.0,0.0,0.0,0.0,0.0,0.0,0.0,0.0,0.0,0.0,0.0,0.0,0.0,0.0,0.0,0.0,0.0,0.0,0.0,0.0,0.0,0.0,0.0,0.0,0.0,0.0,0.0,0.0,0.0,0.0,0.0,0.0,0.0,0.0,0.0,0.0,0.0,0.0,0.0,0.0,0.0,0.0,0.0,0.0,0.0,0.0,0.0,0.0,0.0,0.0,0.0,0.0,0.0,0.0,0.0,0.0,0.0,0.0,0.0,0.0,0.0,0.0,0.0,0.0,0.0,0.0,0.0,0.0,0.0,0.0,0.0,0.0,0.0,0.0,0.0,0.0,0.0,0.0,0.0,0.0,0.0,0.0,0.0,0.0,0.0,0.0,0.0,0.0,0.0,0.0,0.0,0.0,0.0,0.0,0.0,0.0,0.0,0.0,0.0,0.0,0.0,0.0,0.0,0.0,0.0,0.0,0.0,0.0,0.0,0.0,0.0,0.0,0.0,0.0,0.0,0.0,0.0,0.0,0.0,0.0,0.0,0.0,0.0,0.0,0.0,0.0,0.0,0.0,0.0,0.0,0.0,0.0,0.0,0.0,0.0,0.0,0.0,0.0,0.0,0.0,0.0,0.0,0.0,0.0,0.0,0.0,0.0,0.0,0.0,0.0,0.0,0.0,0.0,0.0,0.0,0.0,0.0,0.0,0.0,0.0,0.0,0.0,0.0,0.0,0.0,0.0,0.0,0.0,0.0,0.0,0.0,0.0,0.0,0.0,0.0,0.0,0.0,0.0,0.0,0.0,0.0,0.0,0.0,0.0,0.0,0.0,0.0,0.0,0.0,0.0,0.0,0.0,0.0,0.0,0.0,0.0,0.0,0.0,0.0,0.0,0.0,0.0,0.0,0.0,0.0,0.0,0.0,0.0,0.0,0.0,0.0,0.0,0.0,0.0,0.0,0.0,0.0,0.0,0.0,0.0,0.0,0.0,0.0,0.0,0.0,0.0,0.0,0.0,0.0,0.0,0.0,0.0,0.0,0.0,0.0,0.0,0.0,0.0,0.0,0.0,0.0,0.0,0.0,0.0,0.0,0.0,0.0,0.0,0.0,0.0,0.0,0.0,0.0,0.0,0.0,0.0,0.0,0.0,0.0,0.0,0.0,0.0,0.0,0.0,0.0,0.0,0.0,0.0,0.0,0.0,0.0,0.0,0.0,0.0,0.0,0.0,0.0,0.0,0.0,0.0,0.0,0.0,0.0,0.0,0.0,0.0,0.0,0.0,0.0,0.0,0.0,1.6629,0.0,0.0,0.0,0.0,0.0,0.0,0.0,0.0,0.0,0.0,0.0,0.0,0.0,0.0,0.0,0.0,0.0,0.0,0.0,0.0,0.0,0.0,0.0,0.0,0.0,0.0,0.0,0.0,0.0,0.0,0.0,0.0,0.0,0.0,0.0,0.0,0.0,0.0,0.0,0.0,0.0,0.0,0.0,0.0,0.0,0.0,0.0,0.0,0.0,0.0,0.0,0.0,0.0,0.0,0.0,0.0,0.0,0.0,0.0,0.0,0.0,0.0,0.0,0.0,0.0,0.0,0.0,0.0,0.0,0.0,0.0,0.0,0.0,0.0,0.0,0.0,0.0,0.0,0.0,0.0,0.0,0.0,0.0,0.0,0.0,0.0,0.0,0.0,0.0,0.0,0.0,0.0,0.0,0.0,0.0,0.0,0.0,0.0,0.0,0.0,0.0,0.0,0.0,0.0,0.0,0.0,0.0,0.0,0.0,0.0,1.8652,1.9116,1.8686,1.8287,1.7973,0.0,0.0,0.0,0.0,0.0,0.0,0.0,0.0,0.0,0.0,0.0,0.0,0.0,0.0,0.0,0.0,0.0,0.0,0.0,0.0,0.0,0.0,0.0,0.0,0.0,0.0,0.0,0.0,0.0,0.0,0.0,0.0,0.0,0.0,0.0,0.0,0.0,0.0,0.0,0.0,0.0,0.0,0.0,0.0,0.0,0.0,0.0,0.0,0.0,0.0,0.0,0.0,0.0,0.0,0.0,0.0,0.0,0.0,0.0,0.0,0.0,0.0,0.0,0.0,0.0,0.0,0.0,0.0,0.0,0.0,0.0,0.0,0.0,0.0,0.0,0.0,0.0,0.0,0.0,0.0,0.0,0.0,0.0,0.0,0.0,0.0,0.0,0.0,0.0,0.0,0.0,0.0,0.0,0.0,0.0,0.0,0.0,0.0,0.0,0.0,0.0,0.0,0.0,0.0,0.0,0.0,0.0,0.0,0.0,0.0,0.0,0.0,1.994,1.933,1.8805,0.0,0.0,0.0,0.0,0.0,0.0,0.0,0.0,0.0,0.0,0.0,0.0,0.0,0.0,0.0,0.0,0.0,0.0,0.0,0.0,0.0,0.0,0.0,0.0,0.0,0.0,0.0,0.0,0.0,0.0,0.0,0.0,0.0,0.0,0.0,0.0,0.0,0.0,0.0,0.0,0.0,0.0,0.0,0.0,0.0,0.0,0.0,0.0,0.0,0.0,0.0,0.0,0.0,0.0,0.0,0.0,0.0,0.0,0.0,0.0,0.0,0.0,0.0,0.0,0.0,0.0,0.0,0.0,0.0,0.0,0.0,0.0,0.0,0.0,0.0,0.0,0.0,0.0,0.0,0.0,0.0,0.0,0.0,0.0,0.0,0.0,0.0,0.0,0.0,0.0,0.0,0.0,0.0,0.0,0.0,0.0,0.0,0.0,0.0,0.0,0.0,0.0,0.0,0.0,0.0,0.0,0.0,0.0,0.0,0.0,2.1342,2.1479,2.1405,0.0,1.8159,0.0,0.0,0.0,0.0,0.0,0.0,0.0,0.0,0.0,0.0,0.0,0.0,0.0,0.0,0.0,0.0,0.0,0.0,0.0,0.0,0.0,0.0,0.0,0.0,0.0,0.0,0.0,0.0,0.0,0.0,0.0,0.0,0.0,0.0,0.0,0.0,0.0,0.0,0.0,0.0,0.0,0.0,0.0,0.0,0.0,0.0,0.0,0.0,0.0,0.0,0.0,0.0,0.0,0.0,0.0,0.0,0.0,0.0,0.0,0.0,0.0,0.0,0.0,0.0,0.0,0.0,0.0,0.0,0.0,0.0,0.0,0.0,0.0,0.0,0.0,0.0,0.0,0.0,0.0,0.0,0.0,0.0,0.0,0.0,0.0,0.0,0.0,0.0,0.0,0.0,0.0,0.0,0.0,0.0,0.0,0.0,0.0,0.0,0.0,0.0,0.0,0.0,0.0,0.0,0.0,0.0,0.0,0.0,0.0,0.0,2.1517,2.1534,2.1583,2.0894,0.0,0.0,0.0,0.0,0.0,0.0,0.0,0.0,0.0,0.0,0.0,0.0,0.0,0.0,0.0,0.0,0.0,0.0,0.0,0.0,0.0,0.0,0.0,0.0,0.0,0.0,0.0,0.0,0.0,0.0,0.0,0.0,0.0,0.0,0.0,0.0,0.0,0.0,0.0,0.0,0.0,0.0,0.0,0.0,0.0,0.0,0.0,0.0,0.0,0.0,0.0,0.0,0.0,0.0,0.0,0.0,0.0,0.0,0.0,0.0,0.0,0.0,0.0,0.0,0.0,0.0,0.0,0.0,0.0,0.0,0.0,0.0,0.0,0.0,0.0,0.0,0.0,0.0,0.0,0.0,0.0,0.0,0.0,0.0,0.0,0.0,0.0,0.0,0.0,0.0,0.0,0.0,0.0,0.0,0.0,0.0,0.0,0.0,0.0,0.0,0.0,0.0,0.0,0.0,0.0,0.0,0.0,0.0,0.0,0.0,2.134,2.1932,2.219,2.2021,2.1451,2.0424,0.0,0.0,0.0,0.0,0.0,0.0,0.0,0.0,0.0,0.0,0.0,0.0,0.0,0.0,0.0,0.0,0.0,0.0,0.0,0.0,0.0,0.0,0.0,0.0,0.0,0.0,0.0,0.0,0.0,0.0,0.0,0.0,0.0,0.0,0.0,0.0,0.0,0.0,0.0,0.0,0.0,0.0,0.0,0.0,0.0,0.0,0.0,0.0,0.0,0.0,0.0,0.0,0.0,0.0,0.0,0.0,0.0,0.0,0.0,0.0,0.0,0.0,0.0,0.0,0.0,0.0,0.0,0.0,0.0,0.0,0.0,0.0,0.0,0.0,0.0,0.0,0.0,0.0,0.0,0.0,0.0,0.0,0.0,0.0,0.0,0.0,0.0,0.0,0.0,0.0,0.0,0.0,0.0,0.0,0.0,0.0,0.0,0.0,0.0,0.0,0.0,0.0,0.0,0.0,0.0,0.0,0.0,0.0,2.1292,2.2191,2.3064,2.3938,2.3188,2.201,0.0,0.0,0.0,0.0,0.0,0.0,0.0,0.0,0.0,0.0,0.0,0.0,0.0,0.0,0.0,0.0,0.0,0.0,0.0,0.0,0.0,0.0,0.0,0.0,0.0,0.0,0.0,0.0,0.0,0.0,0.0,0.0,0.0,0.0,0.0,0.0,0.0,0.0,0.0,0.0,0.0,0.0,0.0,0.0,0.0,0.0,0.0,0.0,0.0,0.0,0.0,0.0,0.0,0.0,0.0,0.0,0.0,0.0,0.0,0.0,0.0,0.0,0.0,0.0,0.0,0.0,0.0,0.0,0.0,0.0,0.0,0.0,0.0,0.0,0.0,0.0,0.0,0.0,0.0,0.0,0.0,0.0,0.0,0.0,0.0,0.0,0.0,0.0,0.0,0.0,0.0,0.0,0.0,0.0,0.0,0.0,0.0,0.0,0.0,0.0,0.0,0.0,0.0,0.0,0.0,0.0,0.0,0.0,0.0,2.1325,2.2724,2.3905,2.4715,2.3515,2.2524,0.0,0.0,0.0,0.0,0.0,0.0,0.0,0.0,0.0,0.0,0.0,0.0,0.0,0.0,0.0,0.0,0.0,0.0,0.0,0.0,0.0,0.0,0.0,0.0,0.0,0.0,0.0,0.0,0.0,0.0,0.0,0.0,0.0,0.0,0.0,0.0,0.0,0.0,0.0,0.0,0.0,0.0,0.0,0.0,0.0,0.0,0.0,0.0,0.0,0.0,0.0,0.0,0.0,0.0,0.0,0.0,0.0,0.0,0.0,0.0,0.0,0.0,0.0,0.0,0.0,0.0,0.0,0.0,0.0,0.0,0.0,0.0,0.0,0.0,0.0,0.0,0.0,0.0,0.0,0.0,0.0,0.0,0.0,0.0,0.0,0.0,0.0,0.0,0.0,0.0,0.0,0.0,0.0,0.0,0.0,0.0,0.0,0.0,0.0,0.0,0.0,0.0,0.0,0.0,0.0,0.0,0.0,0.0,0.0,2.2068,0.0,2.4545,2.5111,2.387,2.3055,0.0,0.0,0.0,0.0,0.0,0.0,0.0,0.0,0.0,0.0,0.0,0.0,0.0,0.0,0.0,0.0,0.0,0.0,0.0,0.0,0.0,0.0,0.0,0.0,0.0,0.0,0.0,0.0,0.0,0.0,0.0,0.0,0.0,0.0,0.0,0.0,0.0,0.0,0.0,0.0,0.0,0.0,0.0,0.0,0.0,0.0,0.0,0.0,0.0,0.0,0.0,0.0,0.0,0.0,0.0,0.0,0.0,0.0,0.0,0.0,0.0,0.0,0.0,0.0,0.0,0.0,0.0,0.0,0.0,0.0,0.0,0.0,0.0,0.0,0.0,0.0,0.0,0.0,0.0,0.0,0.0,0.0,0.0,0.0,0.0,0.0,0.0,0.0,0.0,0.0,0.0,0.0,0.0,0.0,0.0,0.0,0.0,0.0,0.0,0.0,0.0,0.0,0.0,0.0,0.0,0.0,0.0,0.0,2.1985,2.3632,2.4556,2.5057,2.5101,2.4335,2.3531,0.0,0.0,0.0,0.0,0.0,0.0,0.0,0.0,0.0,0.0,0.0,0.0,0.0,0.0,0.0,0.0,0.0,0.0,0.0,0.0,0.0,0.0,0.0,0.0,0.0,0.0,0.0,0.0,0.0,0.0,0.0,0.0,0.0,0.0,0.0,0.0,0.0,0.0,0.0,0.0,0.0,0.0,0.0,0.0,0.0,0.0,0.0,0.0,0.0,0.0,0.0,0.0,0.0,0.0,0.0,0.0,0.0,0.0,0.0,0.0,0.0,0.0,0.0,0.0,0.0,0.0,0.0,0.0,0.0,0.0,0.0,0.0,0.0,0.0,0.0,0.0,0.0,0.0,0.0,0.0,0.0,0.0,0.0,0.0,0.0,0.0,0.0,0.0,0.0,0.0,0.0,0.0,0.0,0.0,0.0,0.0,0.0,0.0,0.0,0.0,0.0,0.0,0.0,0.0,0.0,0.0,0.0,0.0,0.0,2.4379,2.529,2.5769,2.5773,2.5044,2.4033,0.0,0.0,0.0,0.0,0.0,0.0,0.0,0.0,0.0,0.0,0.0,0.0,0.0,0.0,0.0,0.0,0.0,0.0,0.0,0.0,0.0,0.0,0.0,0.0,0.0,0.0,0.0,0.0,0.0,0.0,0.0,0.0,0.0,0.0,0.0,0.0,0.0,0.0,0.0,0.0,0.0,0.0,0.0,0.0,0.0,0.0,0.0,0.0,0.0,0.0,0.0,0.0,0.0,0.0,0.0,0.0,0.0,0.0,0.0,0.0,0.0,0.0,0.0,0.0,0.0,0.0,0.0,0.0,0.0,0.0,0.0,0.0,0.0,0.0,0.0,0.0,0.0,0.0,0.0,0.0,0.0,0.0,0.0,0.0,0.0,0.0,0.0,0.0,0.0,0.0,0.0,0.0,0.0,0.0,0.0,0.0,0.0,0.0,0.0,0.0,0.0,0.0,0.0,0.0,0.0,0.0,0.0,0.0,0.0,2.58,2.6236,2.6465,2.6475,2.5788,2.4809,2.3529,0.0,0.0,0.0,0.0,0.0,0.0,0.0,0.0,0.0,0.0,0.0,0.0,0.0,0.0,0.0,0.0,0.0,0.0,0.0,0.0,0.0,0.0,0.0,0.0,0.0,0.0,0.0,0.0,0.0,0.0,0.0,0.0,0.0,0.0,0.0,0.0,0.0,0.0,0.0,0.0,0.0,0.0,0.0,0.0,0.0,0.0,0.0,0.0,0.0,0.0,0.0,0.0,0.0,0.0,0.0,0.0,0.0,0.0,0.0,0.0,0.0,0.0,0.0,0.0,0.0,0.0,0.0,0.0,0.0,0.0,0.0,0.0,0.0,0.0,0.0,0.0,0.0,0.0,0.0,0.0,0.0,0.0,0.0,0.0,0.0,0.0,0.0,0.0,0.0,0.0,0.0,0.0,0.0,0.0,0.0,0.0,0.0,0.0,0.0,0.0,0.0,0.0,0.0,0.0,0.0,0.0,0.0,0.0,2.7816,2.7394,2.7158,2.7134,2.6535,2.583,0.0,0.0,0.0,0.0,0.0,0.0,0.0,0.0,0.0,0.0,0.0,0.0,0.0,0.0,0.0,0.0,0.0,0.0,0.0,0.0,0.0,0.0,0.0,0.0,0.0,0.0,0.0,0.0,0.0,0.0,0.0,0.0,0.0,0.0,0.0,0.0,0.0,0.0,0.0,0.0,0.0,0.0,0.0,0.0,0.0,0.0,0.0,0.0,0.0,0.0,0.0,0.0,0.0,0.0,0.0,0.0,0.0,0.0,0.0,0.0,0.0,0.0,0.0,0.0,0.0,0.0,0.0,0.0,0.0,0.0,0.0,0.0,0.0,0.0,0.0,0.0,0.0,0.0,0.0,0.0,0.0,0.0,0.0,0.0,0.0,0.0,0.0,0.0,0.0,0.0,0.0,0.0,0.0,0.0,0.0,0.0,0.0,0.0,0.0,0.0,0.0,0.0,0.0,0.0,0.0,0.0,0.0,0.0,0.0,2.8385,2.8942,2.8739,2.7807,2.7736,2.6825,0.0,0.0,0.0,0.0,0.0,0.0,0.0,0.0,0.0,0.0,0.0,0.0,0.0,0.0,0.0,0.0,0.0,0.0,0.0,0.0,0.0,0.0,0.0,0.0,0.0,0.0,0.0,0.0,0.0,0.0,0.0,0.0,0.0,0.0,0.0,0.0,0.0,0.0,0.0,0.0,0.0,0.0,0.0,0.0,0.0,0.0,0.0,0.0,0.0,0.0,0.0,0.0,0.0,0.0,0.0,0.0,0.0,0.0,0.0,0.0,0.0,0.0,0.0,0.0,0.0,0.0,0.0,0.0,0.0,0.0,0.0,0.0,0.0,0.0,0.0,0.0,0.0,0.0,0.0,0.0,0.0,0.0,0.0,0.0,0.0,0.0,0.0,0.0,0.0,0.0,0.0,0.0,0.0,0.0,0.0,0.0,0.0,0.0,0.0,0.0,0.0,0.0,0.0,0.0,0.0,0.0,0.0,0.0,2.7709,2.9006,2.9932,3.0068,2.9352,2.8918,2.7811,0.0,0.0,0.0,0.0,0.0,0.0,0.0,0.0,0.0,0.0,0.0,0.0,0.0,0.0,0.0,0.0,0.0,0.0,0.0,0.0,0.0,0.0,0.0,0.0,0.0,0.0,0.0,0.0,0.0,0.0,0.0,0.0,0.0,0.0,0.0,0.0,0.0,0.0,0.0,0.0,0.0,0.0,0.0,0.0,0.0,0.0,0.0,0.0,0.0,0.0,0.0,0.0,0.0,0.0,0.0,0.0,0.0,0.0,0.0,0.0,0.0,0.0,0.0,0.0,0.0,0.0,0.0,0.0,0.0,0.0,0.0,0.0,0.0,0.0,0.0,0.0,0.0,0.0,0.0,0.0,0.0,0.0,0.0,0.0,0.0,0.0,0.0,0.0,0.0,0.0,0.0,0.0,0.0,0.0,0.0,0.0,0.0,0.0,0.0,0.0,0.0,0.0,0.0,0.0,0.0,0.0,0.0,0.0,2.8684,2.9561,3.0548,3.112,3.1157,3.0023,2.8738,0.0,0.0,0.0,0.0,0.0,0.0,0.0,0.0,0.0,0.0,0.0,0.0,0.0,0.0,0.0,0.0,0.0,0.0,0.0,0.0,0.0,0.0,0.0,0.0,0.0,0.0,0.0,0.0,0.0,0.0,0.0,0.0,0.0,0.0,0.0,0.0,0.0,0.0,0.0,0.0,0.0,0.0,0.0,0.0,0.0,0.0,0.0,0.0,0.0,0.0,0.0,0.0,0.0,0.0,0.0,0.0,0.0,0.0,0.0,0.0,0.0,0.0,0.0,0.0,0.0,0.0,0.0,0.0,0.0,0.0,0.0,0.0,0.0,0.0,0.0,0.0,0.0,0.0,0.0,0.0,0.0,0.0,0.0,0.0,0.0,0.0,0.0,0.0,0.0,0.0,0.0,0.0,0.0,0.0,0.0,0.0,0.0,0.0,0.0,0.0,0.0,0.0,0.0,0.0,0.0,0.0,0.0,0.0,2.8623,3.0112,3.1046,3.1619,3.1805,3.0754,2.945,0.0,0.0,0.0,0.0,0.0,0.0,0.0,0.0,0.0,0.0,0.0,0.0,0.0,0.0,0.0,0.0,0.0,0.0,0.0,0.0,0.0,0.0,0.0,0.0,0.0,0.0,0.0,0.0,0.0,0.0,0.0,0.0,0.0,0.0,0.0,0.0,0.0,0.0,0.0,0.0,0.0,0.0,0.0,0.0,0.0,0.0,0.0,0.0,2.7318,0.0,0.0,0.0,0.0,0.0,0.0,0.0,0.0,0.0,0.0,0.0,0.0,0.0,0.0,0.0,0.0,0.0,0.0,0.0,0.0,0.0,0.0,0.0,0.0,0.0,0.0,0.0,0.0,0.0,0.0,0.0,0.0,0.0,0.0,0.0,0.0,0.0,0.0,0.0,0.0,0.0,0.0,0.0,0.0,0.0,0.0,0.0,0.0,0.0,0.0,0.0,0.0,0.0,0.0,0.0,0.0,0.0,0.0,0.0,2.932,3.0592,3.1611,3.221,3.2373,3.1274,2.9971,0.0,0.0,0.0,0.0,0.0,0.0,0.0,0.0,0.0,0.0,0.0,0.0,0.0,0.0,0.0,0.0,0.0,0.0,0.0,0.0,0.0,0.0,0.0,0.0,0.0,0.0,0.0,0.0,0.0,0.0,0.0,0.0,0.0,0.0,0.0,0.0,0.0,0.0,0.0,0.0,0.0,0.0,0.0,0.0,0.0,0.0,0.0,0.0,0.0,0.0,0.0,0.0,0.0,0.0,0.0,0.0,0.0,0.0,0.0,0.0,0.0,0.0,0.0,0.0,0.0,0.0,0.0,0.0,0.0,0.0,0.0,0.0,0.0,0.0,0.0,0.0,0.0,0.0,0.0,0.0,0.0,0.0,0.0,0.0,0.0,0.0,0.0,0.0,0.0,0.0,0.0,0.0,0.0,0.0,0.0,0.0,0.0,0.0,0.0,0.0,0.0,0.0,0.0,0.0,0.0,0.0,0.0,2.8464,3.009,3.0906,3.1982,3.2639,3.2834,3.1678,3.0521,2.9448,0.0,0.0,0.0,0.0,0.0,0.0,0.0,0.0,0.0,0.0,0.0,0.0,0.0,0.0,0.0,0.0,0.0,0.0,0.0,0.0,0.0,0.0,0.0,0.0,0.0,0.0,0.0,0.0,0.0,0.0,0.0,0.0,0.0,0.0,0.0,0.0,0.0,0.0,2.4208,2.6585,0.0,0.0,0.0,0.0,0.0,0.0,0.0,0.0,2.9399,0.0,0.0,0.0,0.0,0.0,0.0,0.0,0.0,0.0,0.0,0.0,0.0,0.0,0.0,0.0,0.0,0.0,0.0,0.0,0.0,0.0,0.0,0.0,0.0,0.0,0.0,0.0,0.0,0.0,0.0,0.0,0.0,0.0,0.0,0.0,0.0,0.0,0.0,0.0,0.0,0.0,0.0,0.0,0.0,0.0,0.0,0.0,0.0,0.0,0.0,0.0,0.0,0.0,0.0,0.0,0.0,2.5673,2.8066,2.9729,3.0573,3.1672,3.237,3.2603,3.2005,3.1387,3.0779,0.0,0.0,0.0,0.0,0.0,0.0,0.0,0.0,0.0,0.0,0.0,0.0,0.0,0.0,0.0,0.0,0.0,0.0,0.0,0.0,0.0,0.0,0.0,0.0,0.0,0.0,0.0,0.0,0.0,0.0,0.0,0.0,0.0,0.0,0.0,0.0,0.0,0.0,0.0,2.7633,2.9099,0.0,0.0,0.0,0.0,0.0,0.0,0.0,0.0,3.0452,0.0,0.0,0.0,0.0,0.0,0.0,0.0,0.0,0.0,0.0,0.0,0.0,0.0,0.0,0.0,0.0,0.0,0.0,0.0,0.0,0.0,0.0,0.0,0.0,0.0,0.0,0.0,0.0,0.0,0.0,0.0,0.0,0.0,0.0,0.0,0.0,0.0,0.0,0.0,0.0,0.0,0.0,0.0,0.0,0.0,0.0,0.0,0.0,0.0,0.0,0.0,0.0,0.0,0.0,0.0,2.6606,2.818,2.9612,3.0885,3.1539,3.2055,3.2352,3.1877,3.1392,0.0,0.0,0.0,0.0,0.0,0.0,0.0,0.0,0.0,0.0,0.0,0.0,0.0,0.0,0.0,0.0,0.0,0.0,0.0,0.0,0.0,0.0,0.0,0.0,0.0,0.0,0.0,0.0,0.0,0.0,0.0,0.0,0.0,0.0,0.0,0.0,0.0,0.0,0.0,0.0,2.8706,2.9868,3.0778,0.0,0.0,0.0,0.0,0.0,0.0,3.1785,3.1541,0.0,0.0,0.0,0.0,0.0,0.0,0.0,0.0,0.0,0.0,0.0,0.0,0.0,0.0,0.0,0.0,0.0,0.0,0.0,0.0,0.0,0.0,0.0,0.0,0.0,0.0,0.0,0.0,0.0,0.0,0.0,0.0,0.0,0.0,0.0,0.0,0.0,0.0,0.0,0.0,0.0,0.0,0.0,0.0,0.0,0.0,0.0,0.0,0.0,0.0,0.0,0.0,0.0,0.0,0.0,2.7311,2.8243,2.9538,3.1094,3.1428,3.1728,3.2108,3.1772,3.1288,0.0,0.0,0.0,0.0,0.0,0.0,0.0,0.0,0.0,0.0,0.0,0.0,0.0,0.0,0.0,0.0,0.0,0.0,0.0,0.0,0.0,0.0,0.0,0.0,0.0,0.0,0.0,0.0,0.0,0.0,0.0,0.0,0.0,0.0,0.0,0.0,0.0,0.0,0.0,0.0,0.0,3.06,3.1581,3.2056,0.0,0.0,0.0,0.0,3.2593,3.248,0.0,0.0,0.0,0.0,0.0,0.0,0.0,0.0,0.0,0.0,0.0,0.0,0.0,0.0,0.0,0.0,0.0,0.0,0.0,0.0,0.0,0.0,0.0,0.0,0.0,0.0,0.0,0.0,0.0,0.0,0.0,0.0,0.0,0.0,0.0,0.0,0.0,0.0,0.0,0.0,0.0,0.0,0.0,0.0,0.0,0.0,0.0,0.0,0.0,0.0,0.0,0.0,0.0,0.0,0.0,0.0,2.6923,2.7937,2.9226,3.0673,3.1157,3.1504,3.1819,3.2021,3.1595,0.0,0.0,0.0,0.0,0.0,0.0,0.0,0.0,0.0,0.0,0.0,0.0,0.0,0.0,0.0,0.0,0.0,0.0,0.0,0.0,0.0,0.0,0.0,0.0,0.0,0.0,0.0,0.0,0.0,0.0,0.0,0.0,0.0,0.0,0.0,0.0,0.0,0.0,0.0,0.0,0.0,3.1404,3.232,3.329,3.3966,0.0,0.0,3.4301,3.4301,3.3719,0.0,0.0,0.0,0.0,0.0,0.0,0.0,0.0,0.0,0.0,0.0,0.0,0.0,0.0,0.0,0.0,0.0,0.0,0.0,0.0,0.0,0.0,0.0,0.0,0.0,0.0,0.0,0.0,0.0,0.0,0.0,0.0,0.0,0.0,0.0,0.0,0.0,0.0,0.0,0.0,0.0,0.0,0.0,0.0,0.0,0.0,0.0,0.0,0.0,0.0,0.0,0.0,0.0,0.0,0.0,2.5461,2.747,2.8352,2.9386,3.0559,3.0861,3.1201,3.1634,3.1948,3.1582,0.0,0.0,0.0,0.0,0.0,0.0,0.0,0.0,0.0,0.0,0.0,0.0,0.0,0.0,0.0,0.0,0.0,0.0,0.0,0.0,0.0,0.0,0.0,0.0,0.0,0.0,0.0,0.0,0.0,0.0,0.0,0.0,0.0,0.0,0.0,0.0,0.0,0.0,0.0,0.0,0.0,0.0,3.377,3.4548,0.0,0.0,0.0,3.5991,3.601,0.0,0.0,0.0,0.0,0.0,0.0,0.0,0.0,0.0,0.0,0.0,0.0,0.0,0.0,0.0,0.0,0.0,0.0,0.0,0.0,0.0,0.0,0.0,0.0,0.0,0.0,0.0,0.0,0.0,0.0,0.0,0.0,0.0,0.0,0.0,0.0,0.0,0.0,0.0,0.0,0.0,0.0,0.0,0.0,0.0,0.0,0.0,0.0,0.0,0.0,0.0,0.0,0.0,0.0,0.0,0.0,0.0,2.7842,2.8608,2.955,3.0573,3.0717,3.1066,3.1623,3.1869,0.0,0.0,0.0,0.0,0.0,0.0,0.0,0.0,0.0,0.0,0.0,0.0,0.0,0.0,0.0,0.0,0.0,0.0,0.0,0.0,0.0,0.0,0.0,0.0,0.0,0.0,0.0,2.0676,0.0,0.0,0.0,0.0,0.0,0.0,0.0,0.0,0.0,0.0,0.0,0.0,0.0,0.0,3.3241,3.4798,3.5446,3.605,0.0,0.0,3.7122,3.7122,3.6592,3.6141,0.0,0.0,0.0,0.0,0.0,0.0,0.0,0.0,0.0,0.0,0.0,0.0,0.0,0.0,0.0,0.0,0.0,0.0,0.0,0.0,0.0,0.0,0.0,0.0,0.0,0.0,0.0,0.0,0.0,0.0,0.0,0.0,0.0,0.0,0.0,0.0,0.0,0.0,0.0,0.0,0.0,0.0,0.0,0.0,0.0,0.0,0.0,0.0,0.0,0.0,0.0,0.0,0.0,0.0,0.0,2.7476,2.8375,2.9513,3.081,3.0747,3.1148,3.2025,3.1897,3.1254,0.0,0.0,0.0,0.0,0.0,0.0,0.0,0.0,0.0,0.0,0.0,0.0,0.0,0.0,0.0,0.0,0.0,0.0,0.0,0.0,0.0,0.0,0.0,0.0,0.0,0.0,0.0,0.0,0.0,0.0,0.0,0.0,0.0,0.0,0.0,0.0,0.0,0.0,0.0,0.0,0.0,3.388,3.4871,3.5935,3.6682,0.0,0.0,3.7122,3.7122,3.7042,3.6761,3.601,0.0,0.0,0.0,0.0,0.0,0.0,0.0,0.0,0.0,0.0,0.0,0.0,0.0,0.0,0.0,0.0,0.0,0.0,0.0,0.0,0.0,0.0,0.0,0.0,0.0,0.0,0.0,0.0,0.0,0.0,0.0,0.0,0.0,0.0,0.0,0.0,0.0,0.0,0.0,0.0,0.0,0.0,0.0,0.0,0.0,0.0,0.0,0.0,0.0,0.0,0.0,0.0,0.0,2.6301,2.7448,2.903,3.018,3.0849,3.1417,3.1984,3.2612,3.2417,3.1952,0.0,0.0,0.0,0.0,0.0,0.0,0.0,0.0,0.0,0.0,0.0,0.0,0.0,0.0,0.0,0.0,0.0,0.0,0.0,0.0,0.0,0.0,0.0,0.0,0.0,0.0,0.0,0.0,2.5245,2.614,2.7045,0.0,0.0,0.0,0.0,0.0,0.0,0.0,0.0,0.0,0.0,3.4867,3.634,3.7063,0.0,0.0,3.8565,3.8643,3.8643,3.8188,3.7737,3.7437,3.6967,0.0,0.0,0.0,0.0,0.0,0.0,0.0,0.0,0.0,0.0,0.0,0.0,0.0,0.0,0.0,0.0,0.0,0.0,0.0,0.0,0.0,0.0,0.0,0.0,0.0,0.0,0.0,0.0,0.0,0.0,0.0,0.0,0.0,0.0,0.0,0.0,0.0,0.0,0.0,0.0,0.0,0.0,0.0,0.0,0.0,0.0,0.0,0.0,0.0,0.0,0.0,0.0,2.6727,2.7364,2.9425,3.0701,3.1096,3.1873,3.2599,3.3245,3.3042,3.2629,0.0,0.0,0.0,0.0,0.0,0.0,0.0,0.0,0.0,0.0,0.0,0.0,0.0,0.0,0.0,0.0,0.0,0.0,0.0,0.0,0.0,0.0,0.0,0.0,0.0,0.0,0.0,0.0,2.6668,2.7552,2.7986,0.0,0.0,0.0,0.0,0.0,0.0,0.0,0.0,0.0,0.0,3.6102,3.7643,3.8321,3.8989,3.9989,4.0233,4.0215,3.999,3.9445,3.8882,3.8375,0.0,0.0,0.0,0.0,0.0,0.0,0.0,0.0,0.0,0.0,0.0,0.0,0.0,0.0,0.0,0.0,0.0,0.0,0.0,0.0,0.0,0.0,0.0,0.0,0.0,0.0,0.0,0.0,0.0,0.0,1.8465,0.0,0.0,0.0,0.0,0.0,0.0,0.0,0.0,0.0,0.0,0.0,0.0,0.0,0.0,0.0,0.0,0.0,0.0,0.0,0.0,0.0,0.0,2.6621,2.7222,2.9353,3.0784,3.1598,3.2041,3.2833,3.3844,3.3728,3.3144,3.2017,0.0,0.0,0.0,0.0,0.0,0.0,0.0,0.0,0.0,0.0,0.0,0.0,0.0,0.0,0.0,0.0,0.0,0.0,0.0,0.0,0.0,0.0,0.0,0.0,0.0,0.0,2.8071,2.8642,2.898,0.0,0.0,0.0,0.0,0.0,0.0,0.0,0.0,0.0,0.0,3.6562,3.7515,3.8542,3.9634,4.0644,4.1586,4.1836,4.168,4.0891,4.0741,4.0196,0.0,0.0,0.0,0.0,0.0,0.0,0.0,0.0,0.0,0.0,0.0,0.0,0.0,0.0,0.0,0.0,0.0,0.0,0.0,0.0,0.0,0.0,0.0,0.0,0.0,0.0,0.0,1.9185,1.9356,0.0,0.0,0.0,0.0,0.0,0.0,0.0,0.0,0.0,0.0,0.0,2.4744,2.5277,0.0,0.0,0.0,0.0,0.0,0.0,0.0,0.0,0.0,0.0,0.0,0.0,2.7402,2.8487,3.0085,3.1355,3.2335,3.3096,3.3826,3.4549,3.4347,3.3573,3.2178,0.0,0.0,0.0,0.0,0.0,0.0,0.0,0.0,0.0,0.0,0.0,0.0,0.0,0.0,0.0,0.0,0.0,0.0,0.0,0.0,0.0,0.0,0.0,0.0,0.0,2.919,0.0,0.0,0.0,0.0,0.0,0.0,0.0,0.0,0.0,0.0,0.0,3.5616,3.7257,3.7835,3.8669,4.0147,4.0878,4.1408,0.0,0.0,0.0,0.0,0.0,0.0,0.0,0.0,0.0,0.0,0.0,0.0,0.0,0.0,3.9563,3.7422,3.685,3.6592,3.6333,0.0,0.0,0.0,0.0,0.0,0.0,0.0,0.0,0.0,0.0,0.0,0.0,0.0,0.0,2.1066,0.0,2.1371,0.0,0.0,0.0,0.0,0.0,0.0,0.0,0.0,2.5549,2.6045,2.626,2.6792,2.7233,0.0,2.7148,2.6378,0.0,0.0,0.0,0.0,0.0,0.0,0.0,0.0,2.8294,2.9153,3.0749,3.1942,3.2704,3.3645,3.4349,3.4883,3.4734,3.4288,3.3419,3.3142,3.2278,0.0,0.0,0.0,0.0,0.0,0.0,0.0,0.0,0.0,0.0,0.0,0.0,0.0,0.0,0.0,0.0,0.0,0.0,0.0,0.0,0.0,0.0,0.0,3.0695,0.0,0.0,0.0,0.0,0.0,0.0,0.0,0.0,0.0,3.5077,3.5933,3.7196,3.8907,3.9272,3.996,4.1392,0.0,0.0,0.0,0.0,0.0,0.0,0.0,4.2174,4.1857,4.182,4.1773,4.1763,4.1763,4.1745,4.1735,0.0,0.0,3.9051,3.8709,3.864,3.8377,3.8321,3.8227,3.7928,3.8164,3.8418,0.0,0.0,0.0,0.0,0.0,0.0,0.0,0.0,2.3349,2.3583,0.0,2.3799,0.0,0.0,0.0,0.0,0.0,2.5536,0.0,0.0,2.6964,2.7509,2.808,2.8703,2.9355,2.9902,2.8808,2.8266,2.8304,2.7453,0.0,0.0,0.0,0.0,0.0,0.0,2.9245,2.9327,3.1239,3.2419,3.2768,3.3661,3.4399,3.493,3.5033,3.5197,3.5531,3.4335,3.3474,3.2952,3.1619,0.0,0.0,0.0,0.0,0.0,0.0,0.0,0.0,0.0,0.0,0.0,0.0,0.0,0.0,0.0,0.0,0.0,0.0,0.0,0.0,3.1038,0.0,0.0,0.0,0.0,0.0,0.0,0.0,0.0,0.0,0.0,3.8246,3.816,3.8755,4.0488,0.0,0.0,0.0,0.0,4.3162,4.4035,4.4255,4.3986,4.3183,4.3023,4.2762,4.2016,0.0,0.0,4.18,4.1771,4.1808,4.1731,4.1816,4.1781,4.181,4.167,4.1427,4.0709,4.0522,4.0317,3.9664,4.0023,4.0619,2.4436,0.0,0.0,0.0,0.0,2.3722,2.4014,2.4378,2.4599,2.4786,2.4954,2.5152,0.0,0.0,0.0,0.0,0.0,0.0,2.6932,2.754,2.8111,2.8677,2.9305,2.938,2.9614,2.9978,2.9666,2.9587,2.9812,2.9642,2.8654,2.6985,0.0,0.0,0.0,0.0,2.9911,3.1367,3.2117,3.2793,3.3526,3.4103,3.4723,3.5532,3.5744,3.5707,3.5404,3.5259,3.4867,3.427,3.3012,0.0,0.0,0.0,0.0,0.0,0.0,0.0,0.0,0.0,0.0,0.0,0.0,0.0,0.0,0.0,0.0,0.0,0.0,0.0,3.2064,3.2486,3.3204,0.0,0.0,0.0,0.0,0.0,0.0,0.0,0.0,0.0,4.0438,4.0148,4.0255,0.0,0.0,4.2312,4.3258,4.3627,4.3904,4.4147,4.4274,0.0,0.0,4.3841,4.3737,4.3446,4.336,4.3379,4.3348,4.3348,4.3348,4.3299,4.3348,4.3348,4.3304,4.2481,4.1801,4.1521,4.1465,4.139,4.1185,4.1315,4.1511,2.5968,2.4847,2.4832,2.4936,2.5163,2.5412,2.575,2.6255,2.655,2.6769,2.6971,2.7186,2.7199,2.6943,2.7089,0.0,0.0,0.0,2.8364,2.8722,2.9063,2.9485,3.0048,3.0008,3.0198,3.0673,3.047,3.0495,3.0692,3.0639,2.9847,2.8405,0.0,0.0,2.9943,3.0243,3.0986,3.2269,3.2688,3.3227,3.3899,3.4448,3.5088,3.5773,3.5993,3.6027,3.581,3.6011,3.5857,3.5236,3.457,3.3895,0.0,0.0,0.0,0.0,0.0,0.0,0.0,0.0,0.0,0.0,0.0,2.8109,0.0,0.0,0.0,0.0,3.2056,3.3411,3.4479,3.4548,0.0,0.0,0.0,0.0,0.0,0.0,0.0,3.9185,3.9404,3.9986,4.1505,4.1887,4.2159,4.2466,4.2727,4.324,4.4188,0.0,4.4768,4.5084,4.5152,4.5134,4.5121,4.4861,4.4495,4.4061,4.4005,4.4005,4.4005,4.4005,4.4005,4.4005,4.4005,4.4005,4.4005,4.326,4.2704,4.2686,4.2656,4.2656,4.2686,4.2733,4.2762,2.6992,2.6979,2.6512,2.6459,2.6634,2.6834,2.7442,2.8369,2.8779,2.9072,2.9277,2.9525,2.9289,2.8793,2.8882,0.0,2.994,2.994,2.9917,2.9831,2.9831,3.0093,3.0582,3.0582,3.1039,3.1826,3.1319,3.118,3.1297,3.0926,3.0773,3.0773,3.1045,3.1215,3.1284,3.1934,3.2349,3.2396,3.3133,3.3642,3.4016,3.4739,3.5304,3.5817,3.5932,3.6148,3.6461,3.6643,3.6452,3.5913,3.6072,3.5331,3.349,0.0,0.0,0.0,0.0,0.0,0.0,0.0,0.0,0.0,0.0,0.0,0.0,0.0,0.0,0.0,3.3627,0.0,3.6658,3.6812,0.0,0.0,0.0,3.7452,3.8929,3.8836,3.925,4.0735,0.0,0.0,4.1867,4.3303,4.4088,4.356,4.366,4.4125,4.5068,4.5296,4.5658,4.6308,4.6475,4.6475,4.6327,4.5807,4.5175,4.4488,4.4209,4.4302,4.4302,4.4302,4.4246,4.4321,4.4209,4.4246,4.4228,4.4172,4.4098,4.4061,4.3986,4.3949,4.3893,4.3955,4.4016,2.8532,2.8532,2.8457,2.7925,2.7156,2.7551,2.7911,2.8326,2.8834,2.9112,2.9167,2.9471,2.949,2.9394,2.9447,2.9522,2.9687,2.9672,2.9943,3.0338,3.0338,3.0769,3.1456,3.1471,3.1732,3.2079,3.1982,3.1946,3.2097,3.2052,3.2114,3.2344,3.2413,3.2238,3.1844,3.212,3.2519,3.3056,3.3475,3.3949,3.4643,3.5118,3.5532,3.5932,3.6079,3.6191,3.6343,3.6585,3.6655,3.6486,3.6259,3.5935,3.5474,3.4042,0.0,0.0,0.0,0.0,0.0,0.0,0.0,0.0,0.0,3.1675,3.2254,0.0,3.4083,0.0,3.564,3.6354,3.6675,3.727,0.0,0.0,3.8998,3.9719,4.0609,4.0501,4.069,4.1592,4.1706,4.2139,4.3371,4.4013,4.4601,4.5114,4.544,4.5669,4.5925,4.6097,4.6271,4.6494,4.6568,4.6513,4.6513,4.6345,4.6122,4.5955,4.5881,4.59,4.59,4.59,4.59,4.59,4.59,4.59,4.5862,4.5435,4.5026,4.4952,4.4469,4.4005,4.4005,4.4036,4.4085,2.9226,2.9198,2.9289,2.8962,2.8442,2.8651,2.8817,2.9054,2.9624,2.991,3.0039,3.035,3.0447,3.0447,3.0447,3.0447,3.0447,3.0447,3.0698,3.1084,3.1099,3.1366,3.1898,3.1898,3.1996,3.2191,3.2191,3.2302,3.2468,3.2523,3.2648,3.2912,3.3232,3.3294,3.3077,3.3235,3.3636,3.4317,3.4796,3.5165,3.5461,3.579,3.5972,3.5993,3.6122,3.6251,3.6301,3.6544,3.6719,3.6702,3.6679,3.6482,3.6202,3.5252,3.4407,0.0,0.0,0.0,0.0,0.0,0.0,0.0,0.0,0.0,0.0,0.0,3.5913,3.7043,3.7582,3.8114,3.8822,3.9268,3.9733,4.016,4.0489,4.0972,4.1736,4.1622,4.1896,4.2941,4.2941,4.3338,4.4554,4.5142,4.5659,4.6266,4.6856,4.7111,4.6884,4.6965,4.7144,4.7516,4.7571,4.7404,4.7107,4.6999,4.6836,4.6502,4.6394,4.636,4.636,4.636,4.636,4.636,4.636,4.636,4.6342,4.6027,4.5694,4.5638,4.5338,4.4795,4.4153,4.4005,4.4129,2.9463,2.9435,2.9602,2.9713,2.9822,2.9789,2.9927,3.0172,3.0642,3.0955,3.1146,3.1424,3.1467,3.1467,3.1539,3.1539,3.1539,3.1597,3.167,3.1841,3.1841,3.1898,3.2053,3.2038,3.215,3.2247,3.2262,3.2413,3.2633,3.2726,3.2897,3.3053,3.3842,3.4384,3.4675,3.4877,3.5186,3.5696,3.6344,3.6636,3.637,3.6686,3.669,3.6344,3.6457,3.6526,3.6594,3.6856,3.6945,3.6841,3.7242,3.712,3.6521,3.6542,3.6109,0.0,3.4939,0.0,0.0,0.0,0.0,0.0,0.0,0.0,0.0,3.6779,3.7894,3.9305,3.9417,4.003,4.146,4.1702,4.1757,4.1709,4.1681,4.187,4.2553,4.2543,4.3011,4.4272,4.4434,4.476,4.5579,4.6366,4.6903,4.7145,4.7848,4.8163,4.7827,4.7747,4.8039,4.8781,4.8874,4.8412,4.793,4.7766,4.749,4.6789,4.6699,4.6502,4.6629,4.6593,4.6539,4.6574,4.6648,4.6593,4.6502,4.6482,4.6336,4.6389,4.6274,4.5786,4.4772,4.4469,4.4581,2.9988,2.9913,2.9974,3.005,3.005,3.0341,3.0447,3.0522,3.0895,3.119,3.1409,3.1482,3.1467,3.1539,3.167,3.1727,3.1727,3.1883,3.194,3.1925,3.194,3.2038,3.215,3.2287,3.2413,3.2539,3.2718,3.2788,3.2858,3.3372,3.3748,3.3913,3.4715,3.5514,3.619,0.0,0.0,0.0,3.6607,3.6986,3.7234,3.7621,3.7865,3.7968,3.8074,0.0,3.8163,3.8443,3.8251,3.7659,3.7918,0.0,0.0,0.0,0.0,0.0,0.0,0.0,0.0,0.0,0.0,0.0,3.8774,3.8663,3.8414,3.976,4.081,4.1089,4.1126,4.1237,4.1571,4.2143,4.2502,4.2508,4.2899,4.3229,4.3395,4.3811,4.4291,4.451,4.5039,4.5656,4.6421,4.6811,4.7218,4.7842,4.8289,4.8439,4.8329,4.8347,4.8493,4.866,4.866,4.8623,4.8475,4.8383,4.8291,4.818,4.818,4.8107,4.8051,4.807,4.8107,4.8088,4.8125,4.8107,4.8107,4.7627,4.7165,4.7165,4.6685,4.6147,4.5916,4.596,4.6067,3.1113,0.0,3.1277,3.1353,0.0,3.1696,3.1819,3.1911,3.1397,3.1292,3.1467,3.1467,3.1539,3.167,3.1727,3.1841,3.1898,3.1996,3.2053,3.2094,3.2135,3.2262,3.2413,3.2492,3.2602,3.2788,3.3388,3.367,3.3661,3.4289,3.4715,3.492,3.5761,3.6382,3.6926,3.7851,3.8154,3.7793,3.8058,3.8186,3.8252,3.8574,3.8606,3.8414,0.0,0.0,0.0,0.0,0.0,0.0,0.0,0.0,0.0,0.0,0.0,3.9096,3.8895,3.8793,3.894,3.9103,3.9408,3.9999,4.069,4.0827,4.0196,4.0959,4.1637,4.2026,4.2045,4.223,4.2656,4.3032,4.3241,4.3296,4.3812,4.4205,4.4244,4.48,4.5352,4.5754,4.6082,4.6592,4.7396,4.7526,4.775,4.8174,4.8343,4.8419,4.8401,4.8532,4.8569,4.8569,4.8569,4.8569,4.8587,4.8569,4.855,4.8532,4.8495,4.8439,4.8458,4.8458,4.8439,4.8439,4.8458,4.8439,4.8421,4.8108,4.7832,4.7832,4.7574,4.7352,4.735,4.6882,4.6557,3.2231,3.2384,3.2483,3.2689,3.283,3.2974,3.3176,3.3255,0.0,0.0,0.0,3.1898,3.2,3.2204,3.2189,3.2304,3.246,3.246,3.2558,3.2655,3.2823,3.2918,3.2989,3.3123,3.3248,3.3412,3.4195,3.4628,3.4666,3.5348,3.5832,3.6085,3.6814,3.7374,3.7737,3.8797,3.9379,3.9432,3.9537,3.9512,3.9274,3.9484,3.9367,3.8837,3.8928,3.8991,3.8991,3.9232,3.9329,3.9173,3.9431,3.9617,3.9617,3.9664,3.9817,3.9941,4.0005,4.0126,4.0263,4.0477,4.065,4.0908,4.1847,4.2213,4.1696,4.1723,4.1999,4.2678,4.2719,4.2996,4.373,4.39,4.3974,4.3974,4.4607,4.4998,4.5053,4.5644,4.6342,4.6908,4.7128,4.7476,4.808,4.8172,4.8247,4.8267,4.8306,4.8324,4.8306,4.8458,4.8514,4.8495,4.8514,4.855,4.8514,4.8513,4.8457,4.8438,4.8363,4.8324,4.8324,4.8324,4.8324,4.8306,4.8324,4.8306,4.8306,4.8269,4.8324,4.8324,4.8344,4.8457,4.8384,4.7535,4.7011,3.2562,3.2718,3.2781,3.2815,3.2974,3.3191,3.3315,3.3484,3.329,3.3291,3.3487,3.3487,3.3532,3.3712,3.38,3.3992,3.414,3.4284,3.4399,3.4499,3.4556,3.4556,3.4613,3.4855,3.5023,3.511,3.5411,3.5591,3.571,3.6421,3.6901,3.7021,3.7857,3.8603,3.9016,3.9329,3.9625,3.9986,4.0037,4.0037,4.0135,4.0397,4.0539,4.0578,4.0543,4.056,4.0543,4.0701,4.0452,3.9839,3.9939,4.0,4.0,4.015,4.0499,4.1244,4.1445,4.1548,4.1693,4.1902,4.2149,4.2519,4.274,4.2923,4.3167,4.3354,4.3509,4.3619,4.3586,4.3656,4.3841,4.4346,4.4646,4.4702,4.5294,4.5754,4.5773,4.6452,4.6965,4.713,4.7699,4.8102,4.8231,4.8286,4.8286,4.8324,4.8324,4.8324,4.8306,4.8306,4.8344,4.8344,4.8344,4.8344,4.8382,4.8344,4.8363,4.8306,4.8306,4.8324,4.8324,4.8324,4.8324,4.8324,4.8324,4.8324,4.8324,4.8324,4.8324,4.8324,4.8306,4.8363,4.8457,4.8237,4.8218,3.374,3.3835,3.4015,3.413,3.4228,3.4498,3.461,3.4736,3.4813,3.4468,3.3849,3.388,3.4,3.4149,3.4283,3.446,3.4635,3.4752,3.4909,3.508,3.5137,3.5194,3.5291,3.5713,3.584,3.5689,3.6676,3.7003,3.6706,3.7462,3.7945,3.8072,3.8657,3.9094,3.9379,3.9694,3.9918,4.007,4.0087,4.0238,4.0502,4.0648,4.0745,4.0871,4.0871,4.0871,4.0871,4.1029,4.092,4.0574,4.0631,4.0722,4.0704,4.0749,4.0996,4.1436,4.156,4.1666,4.1902,4.2121,4.2351,4.2552,4.2768,4.3157,4.3779,4.3684,4.3787,4.4175,4.4246,4.4446,4.4869,4.5202,4.5404,4.5404,4.6067,4.6544,4.6654,4.7278,4.7737,4.7792,4.8067,4.8306,4.8324,4.8324,4.8324,4.8324,4.8324,4.8324,4.8324,4.8324,4.8324,4.8324,4.8324,4.8324,4.8324,4.8324,4.8324,4.8324,4.8324,4.8324,4.8324,4.8324,4.8324,4.8324,4.8324,4.8324,4.8324,4.8324,4.8324,4.8324,4.8324,4.8324,4.8401,4.8476,4.8624,3.4802,3.4831,3.5082,3.5213,3.5344,3.5559,3.5767,3.5752,3.5958,3.5396,3.4531,3.4501,3.4607,3.4772,3.4981,3.5158,3.5319,3.5419,3.5593,3.5837,3.5909,3.6063,3.6214,3.6628,3.6738,3.6587,3.7871,3.8209,3.7796,3.8433,3.886,3.9023,3.9292,3.9537,3.9642,3.9986,4.0188,4.0221,4.0221,4.0387,4.0697,4.0745,4.0793,4.0871,4.0871,4.0871,4.0935,4.1,4.1064,4.1047,4.1105,4.1117,4.1117,4.118,4.1226,4.1318,4.138,4.1515,4.178,4.2037,4.2276,4.2537,4.2861,4.3382,4.4186,4.4014,4.4108,4.4711,4.4894,4.5205,4.57,4.6085,4.6177,4.6214,4.6893,4.737,4.7443,4.7939,4.8324,4.8324,4.8324,4.8324,4.8324,4.8324,4.8324,4.8324,4.8324,4.8324,4.8324,4.8324,4.8324,4.8324,4.8324,4.8324,4.8324,4.8324,4.8324,4.8324,4.8324,4.8324,4.8324,4.8324,4.8324,4.8324,4.8324,4.8324,4.8324,4.8324,4.8324,4.8324,4.8324,4.8324,4.8324,4.8439,4.8623,3.5001,3.5148,3.5228,3.5379,3.5623,3.5688,3.5831,3.5973,3.6148,3.6243,3.6168,3.6245,3.6322,3.6476,3.6628,3.6839,3.7046,3.7152,3.7313,3.7562,3.7684,3.771,3.7842,3.8068,3.827,3.8284,3.8613,3.8739,3.8657,3.9044,3.9362,3.9625,3.9867,4.0037,4.007,4.0337,4.0534,4.0648,4.0648,4.0648,4.0697,4.084,4.0888,4.0871,4.0871,4.0871,4.0871,4.0935,4.0935,4.0935,4.0918,4.0918,4.0918,4.1047,4.1123,4.1226,4.1318,4.1515,4.1797,4.1841,4.2314,4.3286,4.34,4.3888,4.4872,4.507,4.5228,4.551,4.5606,4.5773,4.5883,4.6525,4.6965,4.704,4.7664,4.8196,4.8177,4.8269,4.8324,4.8324,4.8324,4.8324,4.8324,4.8324,4.8324,4.8324,4.8324,4.8324,4.8324,4.8324,4.8324,4.8324,4.8324,4.8324,4.8324,4.8324,4.8324,4.8324,4.8324,4.8324,4.8324,4.8324,4.8324,4.8324,4.8324,4.8324,4.8324,4.8324,4.8324,4.8324,4.8324,4.8324,4.8306,4.8439,4.8623,3.5148,3.5228,3.5294,3.5539,3.5672,3.5879,3.6085,3.6289,3.6399,3.66,3.68,3.6968,3.6968,3.6938,3.715,3.7314,3.7401,3.761,3.7844,3.8164,3.8164,3.8335,3.8511,3.8583,3.8694,3.886,3.904,3.9148,3.9255,3.9415,3.9677,3.9918,4.002,4.0171,4.0337,4.0534,4.0648,4.0714,4.0793,4.084,4.084,4.0871,4.0871,4.0871,4.0871,4.0871,4.0871,4.0871,4.0871,4.0871,4.0871,4.0871,4.0871,4.0935,4.1029,4.1105,4.129,4.1471,4.1648,4.2159,4.2635,4.3129,4.3764,4.4568,4.5448,4.575,4.6096,4.6599,4.6546,4.6592,4.7126,4.7531,4.7771,4.7846,4.8141,4.8324,4.8324,4.8324,4.8324,4.8324,4.8324,4.8324,4.8324,4.8324,4.8324,4.8324,4.8324,4.8324,4.8324,4.8324,4.8324,4.8324,4.8324,4.8324,4.8324,4.8324,4.8324,4.8324,4.8324,4.8324,4.8324,4.8324,4.8324,4.8324,4.8324,4.8324,4.8324,4.8324,4.8324,4.8324,4.8324,4.8324,4.8324,4.8458,4.8605,3.5294,3.5294,3.5489,3.5653,3.5879,3.6148,3.6414,3.6538,3.6785,3.6968,3.7105,3.7373,3.7449,3.7329,3.7492,3.761,3.7727,3.7918,3.8221,3.8504,3.8544,3.8711,3.8931,3.8985,3.9077,3.9185,3.9362,3.9468,3.9642,3.9729,3.9935,4.0188,4.0238,4.0387,4.0551,4.068,4.0745,4.0745,4.084,4.0871,4.0871,4.0871,4.0871,4.0871,4.0871,4.0871,4.0871,4.0871,4.0871,4.0871,4.0871,4.0871,4.0871,4.0871,4.0982,4.1123,4.1307,4.1576,4.192,4.2537,4.3075,4.3543,4.4351,4.5214,4.5945,4.6344,4.6769,4.7313,4.7197,4.7328,4.7941,4.8166,4.8226,4.8286,4.8286,4.8324,4.8324,4.8324,4.8324,4.8324,4.8324,4.8324,4.8324,4.8324,4.8324,4.8324,4.8324,4.8324,4.8324,4.8324,4.8324,4.8324,4.8324,4.8324,4.8324,4.8324,4.8324,4.8324,4.8324,4.8324,4.8324,4.8324,4.8324,4.8324,4.8324,4.8324,4.8324,4.8324,4.8324,4.8324,4.8324,4.8324,4.8381,4.8495,4.8605,3.5504,3.5489,3.5638,3.5894,3.6211,3.6414,3.6538,3.6723,3.7013,3.7238,3.7417,3.7626,3.7801,3.8017,3.7902,3.8049,3.8335,3.8391,3.8544,3.8821,3.8914,3.9094,3.9272,3.9379,3.9537,3.9625,3.9677,3.9833,4.0037,4.0087,4.0238,4.0485,4.06,4.0648,4.0697,4.084,4.0888,4.0888,4.0888,4.0935,4.0918,4.0918,4.0918,4.0918,4.0918,4.0918,4.0918,4.0918,4.0918,4.0918,4.0918,4.0918,4.0935,4.0935,4.0995,4.1198,4.1353,4.1838,4.2577,4.2886,4.3494,4.48,4.5194,4.5722,4.6667,4.6864,4.7097,4.745,4.7421,4.7567,4.7866,4.8046,4.8206,4.8226,4.8247,4.8286,4.8324,4.8324,4.8324,4.8324,4.8324,4.8324,4.8324,4.8324,4.8324,4.8324,4.8324,4.8324,4.8324,4.8324,4.8324,4.8324,4.8324,4.8324,4.8324,4.8324,4.8324,4.8324,4.8324,4.8324,4.8324,4.8324,4.8324,4.8324,4.8324,4.8324,4.8324,4.8324,4.8324,4.8324,4.8324,4.8363,4.8419,4.8532,4.8642,3.5554,3.5653,3.5879,3.6133,3.6414,3.6538,3.6831,3.7178,3.7298,3.7492,3.7743,3.8033,3.8205,3.8319,3.8415,3.8472,3.8528,3.8711,3.8931,3.9094,3.9255,3.9415,3.952,3.9573,3.9694,3.9833,3.9935,4.007,4.032,4.032,4.0436,4.0583,4.0648,4.0745,4.084,4.0888,4.0871,4.0935,4.0982,4.1029,4.1047,4.1059,4.1088,4.1105,4.1076,4.1029,4.1088,4.1088,4.1088,4.1088,4.1071,4.1088,4.1088,4.1071,4.1424,4.1998,4.216,4.2538,4.343,4.3992,4.4483,4.5075,4.5698,4.6159,4.666,4.6888,4.7088,4.7249,4.7443,4.7554,4.7657,4.7866,4.8065,4.8187,4.8226,4.8247,4.8286,4.8324,4.8324,4.8324,4.8324,4.8324,4.8324,4.8324,4.8324,4.8324,4.8324,4.8324,4.8324,4.8324,4.8324,4.8324,4.8324,4.8324,4.8324,4.8324,4.8324,4.8324,4.8324,4.8324,4.8324,4.8324,4.8324,4.8324,4.8324,4.8324,4.8324,4.8324,4.8324,4.8306,4.8306,4.8419,4.8513,4.8587,4.8697,3.5653,3.5879,3.6148,3.6399,3.66,3.6831,3.7134,3.7417,3.7669,3.7844,3.8107,3.8375,3.8616,3.8727,3.8876,3.8969,3.8969,3.9077,3.9202,3.9432,3.959,3.9694,3.9833,3.9884,3.9986,4.0087,4.0188,4.032,4.0534,4.06,4.0648,4.0745,4.0745,4.084,4.0935,4.1,4.0965,4.1012,4.1123,4.1123,4.1152,4.118,4.1209,4.1255,4.1198,4.1215,4.1209,4.1209,4.1209,4.1209,4.1209,4.1209,4.1209,4.1453,4.1864,4.2527,4.2824,4.3343,4.4202,4.4799,4.5185,4.5466,4.5936,4.6398,4.6525,4.6731,4.6934,4.7133,4.7312,4.7425,4.7511,4.7657,4.7884,4.8068,4.8187,4.8208,4.8267,4.8324,4.8324,4.8324,4.8324,4.8324,4.8324,4.8324,4.8324,4.8324,4.8324,4.8324,4.8324,4.8324,4.8324,4.8324,4.8324,4.8324,4.8324,4.8324,4.8324,4.8324,4.8324,4.8324,4.8324,4.8324,4.8324,4.8324,4.8324,4.8324,4.8324,4.8324,4.8306,4.8306,4.8401,4.8513,4.8569,4.8679,4.8732,3.5879,3.6211,3.6414,3.66,3.6769,3.7178,3.7358,3.7535,3.8091,3.8335,3.8448,3.8694,3.8985,3.9218,3.9272,3.9432,3.9573,3.9415,3.9468,3.9677,3.9849,3.9986,4.0121,4.0188,4.0337,4.0436,4.0485,4.06,4.0697,4.0697,4.0793,4.0871,4.0888,4.0982,4.1093,4.1076,4.1105,4.118,4.1209,4.1209,4.1209,4.1209,4.13,4.138,4.138,4.1318,4.1255,4.1209,4.1255,4.1255,4.1255,4.1209,4.1429,4.1969,4.2504,4.2841,4.3348,4.416,4.4957,4.515,4.5536,4.5975,4.6186,4.627,4.6447,4.6542,4.6731,4.6998,4.7133,4.7267,4.7425,4.7511,4.7681,4.7951,4.8108,4.8208,4.8286,4.8324,4.8324,4.8324,4.8324,4.8324,4.8324,4.8324,4.8324,4.8324,4.8324,4.8324,4.8324,4.8324,4.8324,4.8324,4.8324,4.8324,4.8324,4.8324,4.8324,4.8324,4.8324,4.8324,4.8324,4.8324,4.8324,4.8324,4.8324,4.8324,4.8306,4.8306,4.8344,4.8363,4.8457,4.855,4.8642,4.8732,4.8804,3.6211,3.6414,3.66,3.6831,3.7178,3.7358,3.7653,3.8091,3.8335,3.856,3.8821,3.904,3.9272,3.9432,3.9537,3.9677,3.9849,3.9833,3.9935,3.9986,4.0087,4.0238,4.0387,4.0436,4.0485,4.06,4.0648,4.068,4.084,4.084,4.0905,4.1,4.1047,4.1076,4.118,4.118,4.1163,4.1192,4.1318,4.1318,4.1363,4.1408,4.1498,4.1515,4.156,4.1498,4.1453,4.1453,4.1453,4.1471,4.1453,4.1698,4.2205,4.252,4.3179,4.419,4.4523,4.5014,4.5681,4.587,4.594,4.6137,4.6189,4.627,4.6398,4.6429,4.6572,4.6842,4.6998,4.7178,4.7338,4.7468,4.7597,4.7925,4.8028,4.813,4.8208,4.8286,4.8324,4.8324,4.8324,4.8324,4.8324,4.8324,4.8324,4.8324,4.8324,4.8324,4.8306,4.8324,4.8324,4.8324,4.8324,4.8286,4.8267,4.8229,4.8247,4.8267,4.8267,4.8324,4.8324,4.8324,4.8324,4.8324,4.8324,4.8324,4.8306,4.8344,4.8401,4.8476,4.8569,4.8679,4.8732,4.8804,4.882,3.6414,3.66,3.6831,3.7118,3.7417,3.7653,3.8017,3.8391,3.8672,3.8892,3.9148,3.9379,3.9537,3.9642,3.9781,3.9935,4.0054,4.0188,4.0288,4.0337,4.0337,4.0436,4.0583,4.0631,4.068,4.0728,4.0793,4.0823,4.0982,4.1,4.1029,4.1123,4.1123,4.1198,4.1272,4.1255,4.13,4.1363,4.1426,4.1471,4.1471,4.156,4.1604,4.1604,4.1604,4.1745,4.2008,4.2043,4.1903,4.1745,4.1868,4.2429,4.3149,4.3518,4.4097,4.4887,4.5396,4.5747,4.6119,4.6137,4.6189,4.6189,4.6189,4.6221,4.6301,4.635,4.6495,4.6684,4.6842,4.7025,4.7276,4.7363,4.7554,4.7819,4.7947,4.809,4.8226,4.8286,4.8306,4.8324,4.8324,4.8324,4.8324,4.8324,4.8324,4.8324,4.8324,4.8286,4.8267,4.8229,4.8247,4.8247,4.8169,4.8151,4.819,4.819,4.8208,4.819,4.8229,4.8267,4.8324,4.8324,4.8324,4.8324,4.8324,4.8363,4.8344,4.8401,4.8494,4.8606,4.8679,4.8751,4.8768,4.8839,4.8874,3.66,3.6769,3.7238,3.7417,3.761,3.8091,3.8391,3.856,3.9002,3.9272,3.9362,3.9625,3.9781,3.9952,4.0087,4.0188,4.0288,4.0436,4.0534,4.06,4.0583,4.0583,4.0697,4.084,4.0888,4.0888,4.0935,4.0982,4.1093,4.1093,4.1123,4.1226,4.1226,4.1255,4.138,4.1426,4.1453,4.156,4.1692,4.1745,4.1745,4.185,4.185,4.1868,4.192,4.2219,4.2745,4.2833,4.2517,4.1973,4.2535,4.3202,4.3939,4.4694,4.4992,4.5238,4.5852,4.6049,4.6172,4.6189,4.6189,4.6189,4.6189,4.6189,4.6239,4.6301,4.6447,4.6572,4.6731,4.6934,4.7187,4.732,4.745,4.7699,4.7888,4.8072,4.8286,4.8324,4.8324,4.8324,4.8324,4.8324,4.8324,4.8324,4.8286,4.8286,4.8286,4.8208,4.8208,4.8169,4.813,4.809,4.809,4.8072,4.8111,4.8111,4.813,4.8111,4.8151,4.819,4.8286,4.8286,4.8324,4.8324,4.8324,4.8401,4.8438,4.8494,4.8569,4.8679,4.8715,4.8787,4.8822,4.8874,4.8909,3.6907,3.7238,3.7358,3.7669,3.8091,3.8335,3.8672,3.9056,3.9218,3.9484,3.9746,3.9935,4.0037,4.0205,4.0337,4.0436,4.0485,4.0583,4.0631,4.0697,4.0776,4.0776,4.0871,4.0982,4.1047,4.1029,4.1088,4.1117,4.118,4.118,4.1244,4.1335,4.1363,4.1426,4.1515,4.156,4.156,4.171,4.2236,4.2464,4.257,4.2991,4.3289,4.3289,4.3237,4.336,4.3588,4.3715,4.3645,4.3342,4.3465,4.3974,4.4694,4.5027,4.5361,4.5835,4.6063,4.6189,4.6189,4.6189,4.6189,4.6189,4.6189,4.6189,4.6221,4.6221,4.635,4.6542,4.6637,4.6842,4.716,4.7276,4.7468,4.7801,4.7929,4.8032,4.8169,4.8286,4.8324,4.8324,4.8324,4.8286,4.8286,4.8247,4.8226,4.8208,4.8169,4.8072,4.809,4.8068,4.801,4.805,4.801,4.801,4.7992,4.7992,4.8032,4.8032,4.8072,4.8111,4.819,4.8267,4.8286,4.8324,4.8419,4.8457,4.8532,4.8624,4.8679,4.8732,4.8804,4.8839,4.8874,4.889,4.889,3.7178,3.7417,3.7727,3.8033,3.8391,3.8672,3.9002,3.9272,3.9484,3.9677,3.9986,4.0155,4.0238,4.0387,4.0534,4.0583,4.06,4.0745,4.081,4.0888,4.0948,4.1012,4.1029,4.1076,4.1152,4.1152,4.1163,4.1209,4.1255,4.1272,4.1363,4.1471,4.1471,4.1515,4.1604,4.1604,4.1797,4.2113,4.2622,4.2921,4.3289,4.3658,4.388,4.3979,4.3997,4.4102,4.453,4.4929,4.4982,4.4688,4.4636,4.4906,4.5593,4.5651,4.5879,4.6253,4.6221,4.6189,4.6189,4.6189,4.6189,4.6189,4.6189,4.6189,4.6189,4.6189,4.6301,4.6542,4.659,4.6795,4.7133,4.7294,4.7529,4.7759,4.7925,4.797,4.8108,4.8151,4.819,4.819,4.819,4.819,4.8208,4.813,4.8148,4.809,4.809,4.801,4.797,4.7988,4.7947,4.7888,4.7888,4.7847,4.7847,4.7847,4.7888,4.7888,4.7992,4.8032,4.813,4.8247,4.8267,4.8324,4.8419,4.8494,4.8606,4.8679,4.8751,4.8804,4.8874,4.8909,4.889,4.889,4.889,3.7476,3.7535,3.8148,3.8464,3.856,3.904,3.9325,3.9415,3.9729,3.9986,4.0138,4.0305,4.0436,4.0534,4.0631,4.0745,4.0745,4.0888,4.0982,4.1076,4.1134,4.118,4.1169,4.1198,4.1226,4.1209,4.1237,4.13,4.1408,4.1426,4.1471,4.156,4.1604,4.1604,4.1604,4.1604,4.2043,4.2622,4.2938,4.3412,4.4003,4.432,4.4525,4.4618,4.4664,4.4958,4.5581,4.6105,4.6247,4.568,4.5645,4.5917,4.6484,4.6459,4.6411,4.6381,4.6301,4.627,4.6221,4.6221,4.6221,4.6221,4.6189,4.6189,4.6189,4.6221,4.6319,4.659,4.659,4.6795,4.7151,4.7338,4.7511,4.7657,4.7819,4.7925,4.797,4.7992,4.7992,4.7992,4.7992,4.7992,4.7992,4.7992,4.7992,4.8028,4.7947,4.7847,4.7806,4.7783,4.7741,4.7639,4.7639,4.7639,4.7657,4.7657,4.7699,4.7741,4.7929,4.8032,4.813,4.8208,4.8267,4.8344,4.8476,4.855,4.866,4.8732,4.8804,4.8839,4.889,4.889,4.889,4.889,4.889,3.7727,3.8221,3.8335,3.8672,3.911,3.9272,3.9484,3.9781,3.9986,4.0138,4.0305,4.0502,4.06,4.068,4.0793,4.0905,4.1,4.1047,4.1123,4.1163,4.1335,4.1335,4.1335,4.1363,4.138,4.1363,4.1453,4.1515,4.156,4.156,4.156,4.1604,4.1604,4.1604,4.1604,4.1622,4.2008,4.2763,4.3342,4.4074,4.4941,4.5517,4.5794,4.5906,4.597,4.6159,4.6447,4.6642,4.6707,4.6646,4.6482,4.6424,4.6584,4.659,4.6542,4.6542,4.6542,4.6447,4.6381,4.635,4.6319,4.6221,4.6239,4.6189,4.6189,4.6189,4.6319,4.6542,4.659,4.6795,4.7133,4.7294,4.7407,4.7554,4.7657,4.7759,4.7783,4.7929,4.7951,4.7992,4.7992,4.7992,4.7992,4.7925,4.7925,4.7884,4.7842,4.7699,4.7657,4.7615,4.7554,4.7468,4.7468,4.7468,4.7511,4.7554,4.7615,4.7699,4.7888,4.7992,4.809,4.8208,4.8306,4.842,4.8532,4.8605,4.8678,4.8785,4.8874,4.889,4.889,4.889,4.889,4.889,4.889,3.8091,3.8391,3.8727,3.9002,3.9325,3.9484,3.9729,3.9986,4.0138,4.0288,4.0502,4.0666,4.0745,4.0888,4.0935,4.1047,4.1169,4.1215,4.1244,4.1318,4.1426,4.1515,4.1515,4.1515,4.1515,4.1498,4.156,4.1604,4.1604,4.1604,4.1604,4.1604,4.1604,4.1604,4.1604,4.1604,4.2316,4.3276,4.3786,4.4571,4.5806,4.6265,4.656,4.6684,4.6731,4.6824,4.687,4.698,4.7043,4.7025,4.6962,4.6852,4.6795,4.6731,4.6684,4.6684,4.6637,4.659,4.6477,4.6495,4.6495,4.6416,4.6319,4.6301,4.627,4.627,4.6319,4.6542,4.6637,4.6749,4.7151,4.7223,4.7356,4.7468,4.7554,4.7615,4.7699,4.7824,4.7847,4.7847,4.7847,4.7847,4.7824,4.7801,4.7759,4.7699,4.7597,4.7511,4.7468,4.7407,4.7407,4.7363,4.732,4.732,4.7363,4.7407,4.7511,4.7639,4.7829,4.7951,4.8032,4.819,4.8324,4.842,4.855,4.866,4.8732,4.8839,4.889,4.889,4.889,4.889,4.889,4.889,4.889,3.8448,3.8576,3.911,3.9325,3.9432,3.9781,4.0003,4.0138,4.0288,4.0502,4.0697,4.0745,4.0888,4.1076,4.1076,4.1152,4.1226,4.1363,4.1408,4.1453,4.1498,4.1542,4.1604,4.1604,4.1604,4.1604,4.1604,4.1604,4.1604,4.1604,4.1604,4.1604,4.1648,4.1648,4.1648,4.1719,4.2458,4.3807,4.4117,4.4905,4.6236,4.6619,4.6702,4.6888,4.6934,4.7025,4.707,4.7116,4.7223,4.7223,4.7276,4.7187,4.7053,4.698,4.6888,4.687,4.6778,4.6731,4.6684,4.6655,4.6655,4.659,4.6477,4.6429,4.6398,4.6368,4.6464,4.656,4.6684,4.6842,4.7151,4.7196,4.7267,4.7381,4.7468,4.7511,4.7597,4.7657,4.7639,4.7681,4.7681,4.7699,4.7639,4.7572,4.7511,4.7468,4.7363,4.7276,4.7276,4.7276,4.7276,4.7232,4.7187,4.7249,4.7294,4.7302,4.745,4.7578,4.7788,4.7911,4.8032,4.819,4.8344,4.8476,4.8587,4.8697,4.8768,4.8874,4.8909,4.889,4.889,4.889,4.889,4.889,4.8909,3.8688,3.9148,3.9255,3.9484,3.9798,3.9986,4.0138,4.0288,4.0551,4.0697,4.0888,4.1,4.1059,4.118,4.118,4.1272,4.138,4.1471,4.156,4.156,4.1587,4.1604,4.1604,4.1604,4.1604,4.1604,4.1604,4.1648,4.1604,4.1604,4.1648,4.1648,4.1692,4.178,4.1797,4.1929,4.2661,4.4031,4.4297,4.5131,4.6376,4.6778,4.6888,4.707,4.7133,4.716,4.7232,4.7276,4.7276,4.7258,4.732,4.732,4.7276,4.7276,4.7232,4.7143,4.7116,4.7025,4.6934,4.6824,4.6749,4.6655,4.659,4.659,4.6542,4.6542,4.659,4.6702,4.6842,4.6934,4.7043,4.7133,4.7178,4.7249,4.7294,4.7363,4.7363,4.7407,4.7407,4.7511,4.7511,4.7511,4.7468,4.7425,4.7381,4.7338,4.7276,4.7205,4.7205,4.716,4.7178,4.7116,4.7025,4.7133,4.7178,4.7276,4.7363,4.7536,4.7705,4.7951,4.8032,4.819,4.8344,4.8495,4.8605,4.8678,4.8785,4.8874,4.8909,4.889,4.889,4.889,4.8943,4.8943,4.8996,3.9056,3.9325,3.9573,3.9833,4.0037,4.0221,4.037,4.0502,4.0745,4.0888,4.0982,4.1123,4.1198,4.1272,4.1318,4.138,4.1515,4.156,4.1604,4.1604,4.1604,4.1604,4.1604,4.1648,4.1692,4.1736,4.1754,4.1754,4.171,4.1692,4.1754,4.1797,4.1884,4.1884,4.1902,4.198,4.2934,4.4059,4.4485,4.5249,4.6728,4.6934,4.7088,4.7178,4.7249,4.7276,4.732,4.7468,4.7511,4.7554,4.7639,4.7663,4.7663,4.7603,4.7542,4.7363,4.7294,4.7249,4.716,4.707,4.6998,4.6934,4.6778,4.6684,4.6684,4.6637,4.6684,4.6795,4.6888,4.6998,4.6998,4.7088,4.7133,4.7196,4.7205,4.7232,4.7258,4.732,4.732,4.7338,4.7381,4.7381,4.7381,4.7294,4.7249,4.7205,4.7187,4.716,4.7088,4.7088,4.7088,4.7043,4.698,4.7025,4.7133,4.7232,4.7302,4.7493,4.7705,4.7911,4.8072,4.8229,4.8364,4.855,4.8623,4.8714,4.8785,4.889,4.889,4.889,4.889,4.8909,4.8996,4.9015,4.9083,3.9379,3.9484,3.9935,4.0121,4.0221,4.0468,4.0631,4.0745,4.0871,4.1029,4.1169,4.1226,4.1318,4.1408,4.1453,4.1515,4.1604,4.1604,4.1587,4.1648,4.1648,4.1648,4.1692,4.1797,4.1841,4.1841,4.1902,4.1945,4.1841,4.1841,4.1902,4.1945,4.2005,4.203,4.203,4.2321,4.3251,4.4041,4.476,4.5615,4.6686,4.7133,4.7223,4.7267,4.732,4.7407,4.7511,4.7639,4.7741,4.7806,4.7888,4.7992,4.7992,4.7992,4.7829,4.7536,4.7389,4.7407,4.7381,4.7249,4.716,4.716,4.7025,4.6916,4.6842,4.6842,4.6749,4.6842,4.6934,4.6998,4.6998,4.6998,4.7043,4.7133,4.7133,4.716,4.7187,4.7187,4.7187,4.7187,4.7232,4.7232,4.7205,4.7205,4.7133,4.7133,4.7116,4.707,4.7043,4.7043,4.7043,4.7043,4.698,4.7025,4.7116,4.7232,4.7302,4.745,4.7705,4.7951,4.813,4.8286,4.842,4.8587,4.8678,4.8732,4.8839,4.8909,4.8943,4.8943,4.8943,4.8978,4.9064,4.9098,4.9131,3.9573,4.0037,4.0087,4.0221,4.0485,4.0728,4.0888,4.0918,4.1088,4.1226,4.1335,4.1363,4.1453,4.156,4.156,4.1604,4.1604,4.1648,4.1692,4.178,4.1797,4.1841,4.1945,4.1945,4.1987,4.1987,4.1987,4.2005,4.1987,4.1987,4.1987,4.203,4.2097,4.2061,4.2174,4.2768,4.3743,4.4545,4.5302,4.615,4.6999,4.7249,4.7381,4.7468,4.7554,4.7699,4.7783,4.7907,4.797,4.7951,4.7992,4.7992,4.7992,4.7992,4.7992,4.787,4.7765,4.7657,4.7597,4.7468,4.7338,4.7338,4.7232,4.7187,4.7116,4.7025,4.698,4.698,4.6998,4.7043,4.7025,4.698,4.6998,4.7043,4.7043,4.7043,4.707,4.7098,4.707,4.707,4.7116,4.707,4.707,4.7043,4.7043,4.7043,4.6998,4.6998,4.6998,4.6998,4.6998,4.6998,4.7043,4.707,4.7116,4.7232,4.7363,4.745,4.7705,4.8032,4.8169,4.8324,4.8476,4.8605,4.8697,4.8787,4.8874,4.8962,4.8962,4.8996,4.903,4.9098,4.9146,4.9197,4.923,3.9598,4.0255,4.0436,4.0631,4.0728,4.0995,4.1088,4.1088,4.1226,4.1318,4.1426,4.1453,4.1587,4.1692,4.1692,4.1736,4.1797,4.1797,4.1841,4.1902,4.1902,4.1945,4.1987,4.2012,4.2037,4.2097,4.2139,4.2181,4.2139,4.2097,4.2097,4.2181,4.2205,4.2187,4.2335,4.3114,4.3924,4.4879,4.5907,4.6811,4.7204,4.7425,4.7554,4.7615,4.7765,4.7888,4.797,4.8068,4.813,4.8151,4.8229,4.8306,4.8326,4.8326,4.8326,4.8286,4.813,4.7992,4.7829,4.7639,4.7554,4.745,4.7407,4.7276,4.7249,4.7205,4.7143,4.7143,4.7116,4.7133,4.707,4.7043,4.6998,4.6998,4.6998,4.6998,4.6998,4.6998,4.7025,4.6998,4.6998,4.6998,4.6998,4.6998,4.6998,4.6998,4.6998,4.6998,4.6998,4.6998,4.6998,4.6998,4.7088,4.7133,4.7223,4.7294,4.7468,4.7597,4.7788,4.8032,4.8229,4.8382,4.8532,4.8678,4.8768,4.8874,4.8962,4.8996,4.9049,4.9083,4.9135,4.9197,4.9244,4.9244,4.9276,3.9464,4.0278,4.0707,4.0918,4.1012,4.1163,4.1272,4.1272,4.1426,4.1471,4.1515,4.1666,4.1754,4.1841,4.1841,4.1902,4.1987,4.2005,4.1987,4.2048,4.203,4.203,4.2097,4.2121,4.2163,4.2163,4.2222,4.2246,4.2246,4.2246,4.2246,4.2287,4.2346,4.2346,4.2637,4.3507,4.4534,4.5767,4.6769,4.7317,4.7475,4.7681,4.7723,4.7847,4.7951,4.8072,4.8111,4.8247,4.8306,4.8382,4.842,4.8495,4.855,4.8532,4.8514,4.8476,4.8382,4.8306,4.8151,4.7951,4.7806,4.7681,4.7578,4.7475,4.7407,4.7407,4.732,4.7258,4.7249,4.7223,4.7223,4.7133,4.7088,4.7043,4.7043,4.6998,4.6998,4.6998,4.6998,4.6998,4.6998,4.6998,4.6998,4.6998,4.6998,4.6998,4.6998,4.6998,4.6998,4.6998,4.7043,4.7043,4.7133,4.7223,4.7356,4.7443,4.7572,4.7723,4.7929,4.8111,4.8267,4.8458,4.866,4.8768,4.8874,4.8962,4.9049,4.9101,4.9101,4.9183,4.923,4.9262,4.9308,4.934,4.9358,3.9202,4.0179,4.0671,4.0977,4.1163,4.1318,4.1363,4.1426,4.156,4.1648,4.1736,4.1884,4.1962,4.2005,4.1987,4.1987,4.2005,4.2005,4.2072,4.2079,4.2103,4.2163,4.2205,4.2246,4.2287,4.2287,4.2328,4.2328,4.2328,4.2387,4.2387,4.2346,4.2427,4.2445,4.3064,4.415,4.5606,4.6699,4.7506,4.7687,4.777,4.7911,4.7992,4.8032,4.8151,4.8267,4.8306,4.8458,4.8532,4.8569,4.8605,4.8605,4.8623,4.866,4.8642,4.8605,4.8605,4.8532,4.8402,4.8172,4.7992,4.7951,4.7852,4.7687,4.7663,4.7554,4.745,4.7389,4.7381,4.732,4.7276,4.7249,4.716,4.7116,4.707,4.7043,4.7043,4.698,4.698,4.6998,4.6998,4.6998,4.6998,4.6998,4.6998,4.6998,4.698,4.698,4.7025,4.7025,4.7088,4.7133,4.7196,4.7312,4.7486,4.7615,4.7741,4.7888,4.809,4.819,4.8344,4.8532,4.8732,4.8857,4.8927,4.9015,4.9101,4.915,4.9164,4.9244,4.9308,4.9358,4.9409,4.9409,4.944,3.8686,3.9686,4.0333,4.0882,4.1318,4.156,4.1648,4.1648,4.1797,4.1841,4.1902,4.1945,4.203,4.2055,4.2037,4.2097,4.2181,4.2181,4.2205,4.2205,4.2246,4.2246,4.2287,4.2287,4.2287,4.2328,4.2387,4.2445,4.2445,4.2508,4.253,4.253,4.2624,4.2925,4.3652,4.4908,4.6445,4.7425,4.7847,4.7911,4.805,4.8151,4.8229,4.8343,4.842,4.8495,4.8476,4.855,4.8642,4.8678,4.8732,4.875,4.8785,4.8785,4.875,4.8714,4.8732,4.8678,4.8587,4.8326,4.8151,4.7992,4.7951,4.7911,4.7888,4.7829,4.7783,4.7699,4.7572,4.7493,4.7425,4.732,4.7232,4.7232,4.7205,4.7133,4.7088,4.707,4.7025,4.7025,4.7043,4.6998,4.6998,4.6998,4.6998,4.6998,4.698,4.7025,4.707,4.7116,4.716,4.7267,4.7356,4.7443,4.7597,4.7741,4.7866,4.8068,4.8247,4.8401,4.8495,4.8624,4.8822,4.8911,4.9049,4.9116,4.9183,4.9197,4.9244,4.9308,4.939,4.944,4.949,4.949,4.9509,3.8321,3.9106,4.0092,4.091,4.1569,4.1797,4.1841,4.1884,4.1962,4.203,4.203,4.2072,4.2097,4.2163,4.2145,4.2205,4.2246,4.2287,4.2287,4.2287,4.2346,4.2346,4.2387,4.2369,4.2409,4.2427,4.2468,4.2526,4.2508,4.2649,4.2688,4.2781,4.3018,4.3487,4.4083,4.5635,4.7052,4.7831,4.813,4.8151,4.8286,4.8344,4.842,4.8532,4.8624,4.866,4.8697,4.8732,4.8804,4.8892,4.8927,4.8943,4.8943,4.8978,4.8927,4.8892,4.8857,4.8804,4.8678,4.8514,4.8344,4.8249,4.821,4.8172,4.8111,4.8072,4.7992,4.7907,4.7824,4.7741,4.7597,4.7511,4.7407,4.7381,4.7276,4.7205,4.7178,4.716,4.7116,4.7088,4.7043,4.698,4.7043,4.7043,4.7043,4.7043,4.7088,4.7088,4.7133,4.7223,4.7294,4.7381,4.7529,4.7657,4.7765,4.7929,4.809,4.8208,4.8382,4.8587,4.8697,4.8822,4.8892,4.903,4.9131,4.9197,4.9262,4.9295,4.9327,4.9358,4.944,4.949,4.949,4.9509,4.9509,3.8192,3.862,4.0129,4.1209,4.1839,4.2005,4.2005,4.1987,4.2005,4.2072,4.2121,4.2205,4.2287,4.2287,4.2287,4.2328,4.2328,4.2328,4.2328,4.2387,4.2427,4.2503,4.2526,4.2508,4.253,4.257,4.2627,4.2685,4.2609,4.2824,4.29,4.3266,4.3759,4.4396,4.4334,4.5906,4.7268,4.8139,4.8306,4.842,4.8532,4.8605,4.8605,4.8714,4.8768,4.8839,4.8839,4.8962,4.9015,4.9049,4.9098,4.9113,4.9113,4.9116,4.9083,4.9049,4.8962,4.8909,4.8874,4.8714,4.8587,4.8514,4.8421,4.8439,4.8326,4.8249,4.8229,4.8108,4.801,4.797,4.7866,4.7759,4.7639,4.7536,4.745,4.7338,4.7338,4.7249,4.7205,4.716,4.707,4.7025,4.707,4.7088,4.7088,4.7133,4.7151,4.7196,4.7267,4.7356,4.7468,4.7597,4.7723,4.7847,4.797,4.8151,4.8306,4.8382,4.8495,4.8732,4.8892,4.898,4.9064,4.9197,4.923,4.9244,4.9327,4.9409,4.9409,4.944,4.9459,4.949,4.9509,4.949,4.949,3.7931,3.8614,3.97,4.0628,4.1416,4.1884,4.2079,4.2079,4.2181,4.2222,4.2246,4.2346,4.2445,4.2445,4.245,4.249,4.249,4.249,4.249,4.249,4.2548,4.2548,4.2588,4.2645,4.2667,4.2667,4.2763,4.2878,4.2824,4.3013,4.3087,4.3433,4.4693,4.5589,4.6248,4.7351,4.8217,4.8458,4.8532,4.8605,4.8785,4.882,4.8855,4.8959,4.9012,4.9012,4.9046,4.9131,4.9183,4.9164,4.9211,4.923,4.923,4.9183,4.9164,4.9164,4.9113,4.9113,4.9079,4.9012,4.8855,4.8731,4.8623,4.8587,4.8532,4.8476,4.842,4.8324,4.8247,4.8169,4.8126,4.7988,4.787,4.7829,4.7705,4.7597,4.7529,4.7381,4.7276,4.7276,4.7187,4.7187,4.7187,4.7249,4.7267,4.7294,4.7338,4.7399,4.7486,4.7572,4.7657,4.7847,4.797,4.809,4.819,4.8344,4.8495,4.8605,4.8678,4.8839,4.8996,4.9116,4.9197,4.9262,4.9276,4.934,4.939,4.944,4.949,4.949,4.9521,4.9521,4.9521,4.9521,4.9521,3.7769,3.8433,3.9218,4.0024,4.0867,4.1841,4.2246,4.2269,4.2369,4.2409,4.2409,4.2508,4.2526,4.2548,4.257,4.2609,4.2609,4.2609,4.2609,4.2609,4.267,4.2709,4.2745,4.284,4.2899,4.2899,4.2955,4.3067,4.3013,4.3196,4.3723,4.46,4.5716,4.6854,4.7628,4.8274,4.8587,4.8678,4.875,4.882,4.8978,4.9012,4.9061,4.9146,4.9197,4.9179,4.9179,4.9211,4.9244,4.9244,4.9262,4.9313,4.9295,4.9262,4.9244,4.9244,4.9211,4.9179,4.9179,4.9179,4.9046,4.889,4.8785,4.8732,4.8697,4.8642,4.8624,4.855,4.8458,4.8363,4.8304,4.8169,4.8072,4.8032,4.797,4.7824,4.7765,4.7578,4.7468,4.7468,4.7363,4.7363,4.7363,4.7425,4.7486,4.7511,4.7493,4.7639,4.7699,4.7783,4.7866,4.805,4.819,4.8267,4.8382,4.8587,4.8697,4.8804,4.8909,4.9012,4.9113,4.923,4.9295,4.934,4.939,4.944,4.9471,4.9521,4.9551,4.9551,4.9582,4.9582,4.9551,4.9551,4.9582,3.7703,3.8025,3.8762,3.9534,4.0396,4.1862,4.2548,4.2591,4.2591,4.2591,4.2609,4.2609,4.2649,4.2649,4.2649,4.2688,4.2688,4.2688,4.2688,4.2727,4.2862,4.29,4.2994,4.3068,4.3105,4.3178,4.3214,4.3251,4.3251,4.3683,4.4573,4.5835,4.6842,4.78,4.8431,4.8781,4.8874,4.889,4.8978,4.9027,4.9146,4.9179,4.9179,4.9262,4.9262,4.9262,4.9262,4.9295,4.9327,4.9358,4.9427,4.9459,4.9459,4.9377,4.934,4.9308,4.9244,4.9262,4.923,4.9262,4.9211,4.9113,4.9098,4.9015,4.8892,4.8839,4.8804,4.8732,4.8642,4.8587,4.8494,4.8401,4.8286,4.8208,4.813,4.805,4.797,4.7888,4.7741,4.7639,4.7493,4.7493,4.7475,4.7578,4.7723,4.7765,4.7788,4.7888,4.7988,4.797,4.809,4.8267,4.8382,4.8458,4.8569,4.8768,4.8874,4.8978,4.9079,4.9179,4.9244,4.9327,4.9358,4.9409,4.949,4.9521,4.9551,4.9593,4.9593,4.9623,4.9653,4.9653,4.9623,4.9653,4.9653,3.7864,3.8007,3.878,3.9535,4.0398,4.2042,4.2709,4.2591,4.2609,4.2609,4.2609,4.2747,4.2824,4.2824,4.2975,4.2994,4.3031,4.3031,4.3031,4.305,4.3087,4.3142,4.3142,4.3214,4.3251,4.3304,4.3375,4.3444,4.3695,4.4125,4.5146,4.6372,4.7471,4.83,4.8851,4.9146,4.9146,4.9113,4.9146,4.9211,4.9244,4.9276,4.9327,4.9377,4.9377,4.9377,4.9377,4.9409,4.944,4.9459,4.949,4.9509,4.949,4.9459,4.9459,4.944,4.9427,4.9427,4.9427,4.9427,4.9377,4.9276,4.9262,4.923,4.9131,4.9046,4.9012,4.8909,4.882,4.8768,4.8697,4.8624,4.8532,4.8458,4.8344,4.8229,4.819,4.809,4.797,4.7888,4.7747,4.7747,4.777,4.7811,4.797,4.805,4.8148,4.8169,4.8208,4.8229,4.8306,4.8495,4.8605,4.8642,4.8785,4.8978,4.9046,4.9146,4.9211,4.9295,4.9358,4.939,4.944,4.949,4.9532,4.9593,4.9653,4.9682,4.9682,4.9692,4.9692,4.9711,4.9711,4.974,4.975,3.8038,3.8144,3.8612,3.9426,4.0637,4.2286,4.2956,4.2824,4.2824,4.2824,4.2862,4.2975,4.3013,4.305,4.3142,4.3214,4.3214,4.3214,4.3232,4.3304,4.3339,4.3375,4.3375,4.3428,4.3516,4.3532,4.3566,4.3634,4.4044,4.5115,4.6211,4.7164,4.7956,4.8632,4.9126,4.934,4.9421,4.939,4.9358,4.9358,4.9358,4.939,4.9459,4.949,4.949,4.9509,4.9509,4.9509,4.949,4.949,4.9509,4.9509,4.9509,4.9509,4.9509,4.949,4.949,4.9459,4.9459,4.949,4.944,4.9409,4.939,4.9358,4.9295,4.923,4.9164,4.9098,4.9046,4.8959,4.889,4.882,4.875,4.8714,4.8569,4.8458,4.8344,4.8286,4.819,4.8151,4.8111,4.8111,4.8111,4.8151,4.8208,4.8286,4.8401,4.8458,4.8495,4.8439,4.8569,4.8678,4.8785,4.8855,4.9012,4.9146,4.9179,4.9244,4.9327,4.939,4.9421,4.9452,4.9532,4.9593,4.9604,4.9663,4.9692,4.974,4.9769,4.975,4.9778,4.9807,4.9807,4.9816,4.9816,3.8186,3.8307,3.8514,3.9516,4.0917,4.2503,4.3232,4.3251,4.3251,4.3251,4.3196,4.3214,4.3232,4.3268,4.3304,4.3339,4.3391,4.341,4.3479,4.3513,4.3563,4.3597,4.3682,4.3734,4.3767,4.3786,4.3906,4.3976,4.4573,4.5754,4.7167,4.8084,4.8821,4.9327,4.9408,4.9544,4.9593,4.9574,4.9532,4.9502,4.9502,4.9521,4.9521,4.9521,4.9521,4.9521,4.9521,4.9521,4.9521,4.9521,4.9521,4.9521,4.9521,4.9521,4.9521,4.9521,4.9551,4.9551,4.9551,4.9551,4.9551,4.9521,4.9539,4.9521,4.9452,4.9377,4.9313,4.923,4.9127,4.9113,4.9046,4.9012,4.8943,4.889,4.8785,4.866,4.8605,4.8495,4.8382,4.8344,4.8344,4.8344,4.8344,4.8382,4.842,4.8513,4.8587,4.8714,4.8785,4.8731,4.8802,4.8909,4.8959,4.9061,4.9146,4.9244,4.9308,4.939,4.9471,4.9502,4.9544,4.9574,4.9634,4.9663,4.9692,4.9721,4.975,4.9778,4.9807,4.9835,4.9843,4.9898,4.9879,4.9871,4.9871,3.835,3.8496,3.9714,4.0513,4.1074,4.2697,4.3426,4.3495,4.36,4.3513,4.3321,4.341,4.3479,4.3495,4.36,4.3634,4.3667,4.3649,4.3734,4.3767,4.3832,4.3878,4.391,4.3942,4.3974,4.4036,4.4141,4.4526,4.5382,4.6738,4.789,4.8258,4.9081,4.9585,4.9615,4.9682,4.9711,4.9721,4.9692,4.9653,4.9653,4.9634,4.9634,4.9653,4.9653,4.9653,4.9653,4.9653,4.9653,4.9634,4.9653,4.9653,4.9634,4.9653,4.9653,4.9634,4.9623,4.9623,4.9623,4.9642,4.9642,4.9653,4.9653,4.9653,4.9593,4.9521,4.9409,4.9308,4.9257,4.9244,4.923,4.9146,4.9113,4.9027,4.8993,4.8925,4.882,4.8714,4.8605,4.8569,4.8569,4.8569,4.8569,4.8605,4.8697,4.8732,4.8804,4.8909,4.9012,4.9027,4.9061,4.9127,4.916,4.9257,4.9308,4.939,4.9483,4.9514,4.9593,4.9604,4.9663,4.9673,4.9702,4.975,4.9778,4.9807,4.9816,4.9843,4.9871,4.9871,4.9871,4.9898,4.9879,4.9879,4.9879,3.8528,3.8774,4.0345,4.1038,4.1415,4.2934,4.3682,4.3749,4.3851,4.3814,4.3646,4.3664,4.3682,4.373,4.3832,4.3897,4.3929,4.391,4.3974,4.4055,4.4073,4.4104,4.4116,4.4147,4.4158,4.4237,4.4755,4.5405,4.6334,4.7398,4.837,4.8802,4.9493,4.9721,4.9721,4.975,4.975,4.9807,4.9807,4.9807,4.9778,4.9731,4.9692,4.9711,4.9711,4.9711,4.9711,4.9711,4.9711,4.9692,4.9711,4.9711,4.9711,4.9711,4.9711,4.9711,4.9711,4.9711,4.9711,4.9711,4.974,4.974,4.9711,4.9692,4.9663,4.9574,4.9563,4.9464,4.9452,4.9452,4.9358,4.9295,4.9244,4.9193,4.9146,4.9079,4.9046,4.8959,4.8925,4.8925,4.889,4.889,4.8925,4.8925,4.8959,4.8978,4.9046,4.9061,4.9179,4.9308,4.9308,4.934,4.9352,4.9402,4.9483,4.9544,4.9604,4.9682,4.9711,4.9692,4.9702,4.9759,4.9788,4.9835,4.9862,4.9862,4.9898,4.9898,4.9879,4.9898,4.9898,4.9879,4.9879,4.9879,4.9879,3.878,3.9091,4.0646,4.1323,4.1613,4.3193,4.3929,4.3961,4.4005,4.4097,4.4091,4.4036,4.3992,4.3961,4.4005,4.4097,4.4128,4.4158,4.4218,4.4296,4.4344,4.4354,4.4354,4.4373,4.4524,4.4974,4.5566,4.6365,4.7278,4.8287,4.9051,4.9627,4.9721,4.9731,4.9807,4.9835,4.9816,4.9871,4.9871,4.9898,4.9843,4.9788,4.9778,4.975,4.9721,4.9721,4.9721,4.974,4.974,4.975,4.975,4.975,4.975,4.9778,4.975,4.975,4.9778,4.975,4.975,4.975,4.975,4.975,4.9721,4.9721,4.9702,4.9702,4.9663,4.9634,4.9623,4.9593,4.9502,4.944,4.9371,4.9321,4.9276,4.923,4.9211,4.9179,4.9179,4.9179,4.9179,4.9179,4.9179,4.9179,4.9211,4.9211,4.9244,4.9308,4.9321,4.9434,4.9464,4.9495,4.9525,4.9574,4.9623,4.9682,4.974,4.9721,4.975,4.9778,4.9788,4.9816,4.9871,4.9871,4.9898,4.9898,4.9898,4.9879,4.9879,4.9906,4.9879,4.9879,4.9879,4.9879,4.9879,3.8892,3.9098,4.0815,4.1571,4.1872,4.339,4.4128,4.4207,4.4296,4.4306,4.4364,4.4421,4.4383,4.4226,4.4296,4.4354,4.4335,4.4364,4.4449,4.4524,4.4524,4.4551,4.4662,4.4766,4.5103,4.5704,4.6466,4.7372,4.8031,4.8947,4.9552,4.9788,4.9843,4.9852,4.9852,4.9879,4.9879,4.9906,4.9906,4.9906,4.9925,4.9871,4.9871,4.9871,4.9871,4.9871,4.9871,4.9871,4.9871,4.9871,4.9824,4.9843,4.9843,4.9843,4.9843,4.9816,4.9843,4.9843,4.9843,4.9843,4.9816,4.9843,4.9843,4.9843,4.9843,4.9843,4.9788,4.975,4.9721,4.9692,4.9604,4.9623,4.9574,4.9525,4.9495,4.9371,4.934,4.9276,4.9244,4.9244,4.9244,4.9244,4.9244,4.9276,4.9308,4.934,4.9352,4.9415,4.9525,4.9585,4.9644,4.9644,4.9673,4.9692,4.9692,4.975,4.9778,4.9807,4.9835,4.9816,4.9843,4.9871,4.9879,4.9879,4.9879,4.9898,4.9879,4.9906,4.9906,4.9906,4.9906,4.9879,4.9906,4.9906,4.9933]},{"header":{"parameterUnit":"m.s-1","parameterCategory":1,"la1":31.0,"la2":29.5877,"lo1":-88.7671,"lo2":-86.6584,"dy":0.0162,"dx":0.0185,"nx":115,"ny":88,"refTime":"2023-10-04T12:00:00:Z","depth":0,"parameterNumber":3,"parameterNumberName":"V-component_of_WINDS"},"data":[0.0,0.0,0.0,0.0,0.0,0.0,0.0,0.0,0.0,0.0,0.0,0.0,0.0,0.0,0.0,0.0,0.0,0.0,0.0,0.0,0.0,0.0,0.0,0.0,0.0,0.0,0.0,0.0,0.0,0.0,0.0,0.0,0.0,0.0,0.0,0.0,0.0,0.0,0.0,0.0,0.0,0.0,0.0,0.0,0.0,0.0,0.0,0.0,0.0,0.0,0.0,0.0,0.0,0.0,0.0,0.0,0.0,0.0,0.0,0.0,0.0,0.0,0.0,0.0,0.0,0.0,0.0,0.0,0.0,0.0,0.0,0.0,0.0,0.0,0.0,0.0,0.0,0.0,0.0,0.0,0.0,0.0,0.0,0.0,0.0,0.0,0.0,0.0,0.0,0.0,0.0,0.0,0.0,0.0,0.0,0.0,0.0,0.0,0.0,0.0,0.0,0.0,0.0,0.0,0.0,0.0,0.0,0.0,0.0,0.0,0.0,0.0,0.0,0.0,0.0,0.0,0.0,0.0,0.0,0.0,0.0,0.0,0.0,0.0,0.0,0.0,0.0,0.0,0.0,0.0,0.0,0.0,0.0,0.0,0.0,0.0,0.0,0.0,0.0,0.0,0.0,0.0,0.0,0.0,0.0,0.0,0.0,0.0,0.0,0.0,0.0,0.0,0.0,0.0,0.0,0.0,0.0,0.0,0.0,0.0,0.0,0.0,0.0,0.0,0.0,0.0,0.0,0.0,0.0,0.0,0.0,0.0,0.0,0.0,0.0,0.0,0.0,0.0,0.0,0.0,0.0,0.0,0.0,0.0,0.0,0.0,0.0,0.0,0.0,0.0,0.0,0.0,0.0,0.0,0.0,0.0,0.0,0.0,0.0,0.0,0.0,0.0,0.0,0.0,0.0,0.0,0.0,0.0,0.0,0.0,0.0,0.0,0.0,0.0,0.0,0.0,0.0,0.0,0.0,0.0,0.0,0.0,0.0,0.0,0.0,0.0,0.0,0.0,0.0,0.0,0.0,0.0,0.0,0.0,0.0,0.0,0.0,0.0,0.0,0.0,0.0,0.0,0.0,0.0,0.0,0.0,0.0,0.0,0.0,0.0,0.0,0.0,0.0,0.0,0.0,0.0,0.0,0.0,0.0,0.0,0.0,0.0,0.0,0.0,0.0,0.0,0.0,0.0,0.0,0.0,0.0,0.0,0.0,0.0,0.0,0.0,0.0,0.0,0.0,0.0,0.0,0.0,0.0,0.0,0.0,0.0,0.0,0.0,0.0,0.0,0.0,0.0,0.0,0.0,0.0,0.0,0.0,0.0,0.0,0.0,0.0,0.0,0.0,0.0,0.0,0.0,0.0,0.0,0.0,0.0,0.0,0.0,0.0,0.0,0.0,0.0,0.0,0.0,0.0,0.0,0.0,0.0,0.0,0.0,0.0,0.0,0.0,0.0,0.0,0.0,0.0,0.0,0.0,0.0,0.0,0.0,0.0,0.0,0.0,0.0,0.0,0.0,0.0,0.0,0.0,0.0,0.0,0.0,0.0,0.0,0.0,0.0,0.0,0.0,0.0,0.0,0.0,0.0,0.0,0.0,0.0,0.0,0.0,0.0,0.0,0.0,0.0,0.0,0.0,0.0,0.0,0.0,0.0,0.0,0.0,0.0,0.0,0.0,0.0,0.0,0.0,0.0,0.0,0.0,0.0,0.0,0.0,0.0,0.0,0.0,0.0,0.0,0.0,0.0,0.0,0.0,0.0,0.0,0.0,0.0,0.0,0.0,0.0,0.0,0.0,0.0,0.0,0.0,0.0,0.0,0.0,0.0,0.0,0.0,0.0,0.0,0.0,0.0,0.0,0.0,0.0,0.0,0.0,0.0,0.0,0.0,0.0,0.0,0.0,0.0,0.0,0.0,0.0,0.0,0.0,0.0,0.0,0.0,0.0,0.0,0.0,0.0,0.0,0.0,0.0,0.0,0.0,0.0,0.0,0.0,0.0,0.0,0.0,0.0,0.0,0.0,0.0,0.0,0.0,0.0,0.0,0.0,0.0,0.0,0.0,0.0,0.0,0.0,0.0,0.0,0.0,0.0,0.0,0.0,0.0,0.0,0.0,0.0,0.0,0.0,0.0,0.0,0.0,0.0,0.0,0.0,0.0,0.0,0.0,0.0,0.0,0.0,0.0,0.0,0.0,0.0,0.0,0.0,0.0,0.0,0.0,0.0,0.0,0.0,0.0,0.0,0.0,0.0,0.0,0.0,0.0,0.0,0.0,0.0,0.0,0.0,0.0,0.0,0.0,0.0,0.0,0.0,0.0,0.0,0.0,0.0,0.0,0.0,0.0,0.0,0.0,0.0,0.0,0.0,0.0,0.0,0.0,0.0,0.0,0.0,0.0,0.0,0.0,0.0,0.0,0.0,0.0,0.0,0.0,0.0,0.0,0.0,0.0,0.0,0.0,0.0,0.0,0.0,0.0,0.0,0.0,0.0,0.0,0.0,0.0,0.0,0.0,0.0,0.0,0.0,0.0,0.0,0.0,0.0,0.0,0.0,0.0,0.0,0.0,0.0,0.0,0.0,0.0,0.0,0.0,0.0,0.0,0.0,0.0,0.0,0.0,0.0,0.0,0.0,0.0,0.0,0.0,0.0,0.0,0.0,0.0,0.0,0.0,0.0,0.0,0.0,0.0,0.0,0.0,0.0,0.0,0.0,0.0,0.0,0.0,0.0,0.0,0.0,0.0,0.0,0.0,0.0,0.0,0.0,0.0,0.0,0.0,0.0,0.0,0.0,0.0,0.0,0.0,0.0,0.0,0.0,0.0,0.0,0.0,0.0,0.0,0.0,0.0,0.0,0.0,0.0,0.0,0.0,0.0,0.0,0.0,0.0,0.0,0.0,0.0,0.0,0.0,0.0,0.0,0.0,0.0,0.0,0.0,0.0,0.0,0.0,0.0,0.0,0.0,0.0,0.0,0.0,0.0,0.0,0.0,0.0,0.0,0.0,0.0,0.0,0.0,0.0,0.0,0.0,0.0,0.0,0.0,0.0,0.0,0.0,0.0,0.0,0.0,0.0,0.0,0.0,0.0,0.0,0.0,0.0,0.0,0.0,0.0,0.0,0.0,0.0,0.0,0.0,0.0,0.0,0.0,0.0,0.0,0.0,0.0,0.0,0.0,0.0,0.0,0.0,0.0,0.0,0.0,0.0,0.0,0.0,0.0,0.0,0.0,0.0,0.0,0.0,0.0,0.0,0.0,0.0,0.0,0.0,0.0,0.0,0.0,0.0,0.0,0.0,0.0,0.0,0.0,0.0,0.0,0.0,0.0,0.0,0.0,0.0,0.0,0.0,0.0,0.0,0.0,0.0,0.0,0.0,0.0,0.0,0.0,0.0,0.0,0.0,0.0,0.0,0.0,0.0,0.0,0.0,0.0,0.0,0.0,0.0,0.0,0.0,0.0,0.0,0.0,0.0,0.0,0.0,0.0,0.0,0.0,0.0,0.0,0.0,0.0,0.0,0.0,0.0,0.0,0.0,0.0,0.0,0.0,0.0,0.0,0.0,0.0,0.0,0.0,0.0,0.0,0.0,0.0,0.0,0.0,0.0,0.0,0.0,0.0,0.0,0.0,0.0,0.0,0.0,0.0,0.0,0.0,0.0,0.0,0.0,0.0,0.0,0.0,0.0,0.0,0.0,0.0,0.0,0.0,0.0,0.0,0.0,0.0,0.0,0.0,0.0,0.0,0.0,0.0,0.0,0.0,0.0,0.0,0.0,0.0,0.0,0.0,0.0,0.0,0.0,0.0,0.0,0.0,0.0,0.0,0.0,0.0,0.0,0.0,0.0,0.0,0.0,0.0,0.0,0.0,0.0,0.0,0.0,0.0,0.0,0.0,0.0,0.0,0.0,0.0,0.0,0.0,0.0,0.0,0.0,0.0,0.0,0.0,0.0,0.0,0.0,0.0,0.0,0.0,0.0,0.0,0.0,0.0,0.0,0.0,0.0,0.0,0.0,0.0,0.0,0.0,0.0,0.0,0.0,0.0,0.0,0.0,0.0,0.0,0.0,0.0,0.0,0.0,0.0,0.0,0.0,0.0,0.0,0.0,0.0,0.0,0.0,0.0,0.0,0.0,0.0,0.0,0.0,0.0,0.0,0.0,0.0,0.0,0.0,0.0,0.0,0.0,0.0,0.0,0.0,0.0,0.0,0.0,0.0,0.0,0.0,0.0,0.0,0.0,0.0,0.0,0.0,0.0,0.0,0.0,0.0,0.0,0.0,-0.2226,0.0,0.0,0.0,0.0,0.0,0.0,0.0,0.0,0.0,0.0,0.0,0.0,0.0,0.0,0.0,0.0,0.0,0.0,0.0,0.0,0.0,0.0,0.0,0.0,0.0,0.0,0.0,0.0,0.0,0.0,0.0,0.0,0.0,0.0,0.0,0.0,0.0,0.0,0.0,0.0,0.0,0.0,0.0,0.0,0.0,0.0,0.0,0.0,0.0,0.0,0.0,0.0,0.0,0.0,0.0,0.0,0.0,0.0,0.0,0.0,0.0,0.0,0.0,0.0,0.0,0.0,0.0,0.0,0.0,0.0,0.0,0.0,0.0,0.0,0.0,0.0,0.0,0.0,0.0,0.0,0.0,0.0,0.0,0.0,0.0,0.0,0.0,0.0,0.0,0.0,0.0,0.0,0.0,0.0,0.0,0.0,0.0,0.0,0.0,0.0,0.0,0.0,0.0,0.0,0.0,0.0,0.0,0.0,0.0,0.0,-0.3205,-0.3156,-0.3001,-0.2774,-0.2486,0.0,0.0,0.0,0.0,0.0,0.0,0.0,0.0,0.0,0.0,0.0,0.0,0.0,0.0,0.0,0.0,0.0,0.0,0.0,0.0,0.0,0.0,0.0,0.0,0.0,0.0,0.0,0.0,0.0,0.0,0.0,0.0,0.0,0.0,0.0,0.0,0.0,0.0,0.0,0.0,0.0,0.0,0.0,0.0,0.0,0.0,0.0,0.0,0.0,0.0,0.0,0.0,0.0,0.0,0.0,0.0,0.0,0.0,0.0,0.0,0.0,0.0,0.0,0.0,0.0,0.0,0.0,0.0,0.0,0.0,0.0,0.0,0.0,0.0,0.0,0.0,0.0,0.0,0.0,0.0,0.0,0.0,0.0,0.0,0.0,0.0,0.0,0.0,0.0,0.0,0.0,0.0,0.0,0.0,0.0,0.0,0.0,0.0,0.0,0.0,0.0,0.0,0.0,0.0,0.0,0.0,0.0,0.0,0.0,0.0,0.0,0.0,-0.3203,-0.2932,-0.2601,0.0,0.0,0.0,0.0,0.0,0.0,0.0,0.0,0.0,0.0,0.0,0.0,0.0,0.0,0.0,0.0,0.0,0.0,0.0,0.0,0.0,0.0,0.0,0.0,0.0,0.0,0.0,0.0,0.0,0.0,0.0,0.0,0.0,0.0,0.0,0.0,0.0,0.0,0.0,0.0,0.0,0.0,0.0,0.0,0.0,0.0,0.0,0.0,0.0,0.0,0.0,0.0,0.0,0.0,0.0,0.0,0.0,0.0,0.0,0.0,0.0,0.0,0.0,0.0,0.0,0.0,0.0,0.0,0.0,0.0,0.0,0.0,0.0,0.0,0.0,0.0,0.0,0.0,0.0,0.0,0.0,0.0,0.0,0.0,0.0,0.0,0.0,0.0,0.0,0.0,0.0,0.0,0.0,0.0,0.0,0.0,0.0,0.0,0.0,0.0,0.0,0.0,0.0,0.0,0.0,0.0,0.0,0.0,0.0,0.0,-0.3811,-0.3594,-0.3438,0.0,-0.227,0.0,0.0,0.0,0.0,0.0,0.0,0.0,0.0,0.0,0.0,0.0,0.0,0.0,0.0,0.0,0.0,0.0,0.0,0.0,0.0,0.0,0.0,0.0,0.0,0.0,0.0,0.0,0.0,0.0,0.0,0.0,0.0,0.0,0.0,0.0,0.0,0.0,0.0,0.0,0.0,0.0,0.0,0.0,0.0,0.0,0.0,0.0,0.0,0.0,0.0,0.0,0.0,0.0,0.0,0.0,0.0,0.0,0.0,0.0,0.0,0.0,0.0,0.0,0.0,0.0,0.0,0.0,0.0,0.0,0.0,0.0,0.0,0.0,0.0,0.0,0.0,0.0,0.0,0.0,0.0,0.0,0.0,0.0,0.0,0.0,0.0,0.0,0.0,0.0,0.0,0.0,0.0,0.0,0.0,0.0,0.0,0.0,0.0,0.0,0.0,0.0,0.0,0.0,0.0,0.0,0.0,0.0,0.0,0.0,0.0,-0.3939,-0.3846,-0.3563,-0.3169,0.0,0.0,0.0,0.0,0.0,0.0,0.0,0.0,0.0,0.0,0.0,0.0,0.0,0.0,0.0,0.0,0.0,0.0,0.0,0.0,0.0,0.0,0.0,0.0,0.0,0.0,0.0,0.0,0.0,0.0,0.0,0.0,0.0,0.0,0.0,0.0,0.0,0.0,0.0,0.0,0.0,0.0,0.0,0.0,0.0,0.0,0.0,0.0,0.0,0.0,0.0,0.0,0.0,0.0,0.0,0.0,0.0,0.0,0.0,0.0,0.0,0.0,0.0,0.0,0.0,0.0,0.0,0.0,0.0,0.0,0.0,0.0,0.0,0.0,0.0,0.0,0.0,0.0,0.0,0.0,0.0,0.0,0.0,0.0,0.0,0.0,0.0,0.0,0.0,0.0,0.0,0.0,0.0,0.0,0.0,0.0,0.0,0.0,0.0,0.0,0.0,0.0,0.0,0.0,0.0,0.0,0.0,0.0,0.0,0.0,-0.4245,-0.4164,-0.4063,-0.3784,-0.3398,-0.3007,0.0,0.0,0.0,0.0,0.0,0.0,0.0,0.0,0.0,0.0,0.0,0.0,0.0,0.0,0.0,0.0,0.0,0.0,0.0,0.0,0.0,0.0,0.0,0.0,0.0,0.0,0.0,0.0,0.0,0.0,0.0,0.0,0.0,0.0,0.0,0.0,0.0,0.0,0.0,0.0,0.0,0.0,0.0,0.0,0.0,0.0,0.0,0.0,0.0,0.0,0.0,0.0,0.0,0.0,0.0,0.0,0.0,0.0,0.0,0.0,0.0,0.0,0.0,0.0,0.0,0.0,0.0,0.0,0.0,0.0,0.0,0.0,0.0,0.0,0.0,0.0,0.0,0.0,0.0,0.0,0.0,0.0,0.0,0.0,0.0,0.0,0.0,0.0,0.0,0.0,0.0,0.0,0.0,0.0,0.0,0.0,0.0,0.0,0.0,0.0,0.0,0.0,0.0,0.0,0.0,0.0,0.0,0.0,-0.4477,-0.4565,-0.4483,-0.4275,-0.4141,-0.3733,0.0,0.0,0.0,0.0,0.0,0.0,0.0,0.0,0.0,0.0,0.0,0.0,0.0,0.0,0.0,0.0,0.0,0.0,0.0,0.0,0.0,0.0,0.0,0.0,0.0,0.0,0.0,0.0,0.0,0.0,0.0,0.0,0.0,0.0,0.0,0.0,0.0,0.0,0.0,0.0,0.0,0.0,0.0,0.0,0.0,0.0,0.0,0.0,0.0,0.0,0.0,0.0,0.0,0.0,0.0,0.0,0.0,0.0,0.0,0.0,0.0,0.0,0.0,0.0,0.0,0.0,0.0,0.0,0.0,0.0,0.0,0.0,0.0,0.0,0.0,0.0,0.0,0.0,0.0,0.0,0.0,0.0,0.0,0.0,0.0,0.0,0.0,0.0,0.0,0.0,0.0,0.0,0.0,0.0,0.0,0.0,0.0,0.0,0.0,0.0,0.0,0.0,0.0,0.0,0.0,0.0,0.0,0.0,0.0,-0.4874,-0.4882,-0.4863,-0.4692,-0.4305,-0.3972,0.0,0.0,0.0,0.0,0.0,0.0,0.0,0.0,0.0,0.0,0.0,0.0,0.0,0.0,0.0,0.0,0.0,0.0,0.0,0.0,0.0,0.0,0.0,0.0,0.0,0.0,0.0,0.0,0.0,0.0,0.0,0.0,0.0,0.0,0.0,0.0,0.0,0.0,0.0,0.0,0.0,0.0,0.0,0.0,0.0,0.0,0.0,0.0,0.0,0.0,0.0,0.0,0.0,0.0,0.0,0.0,0.0,0.0,0.0,0.0,0.0,0.0,0.0,0.0,0.0,0.0,0.0,0.0,0.0,0.0,0.0,0.0,0.0,0.0,0.0,0.0,0.0,0.0,0.0,0.0,0.0,0.0,0.0,0.0,0.0,0.0,0.0,0.0,0.0,0.0,0.0,0.0,0.0,0.0,0.0,0.0,0.0,0.0,0.0,0.0,0.0,0.0,0.0,0.0,0.0,0.0,0.0,0.0,0.0,-0.5298,0.0,-0.5329,-0.5109,-0.464,-0.4325,0.0,0.0,0.0,0.0,0.0,0.0,0.0,0.0,0.0,0.0,0.0,0.0,0.0,0.0,0.0,0.0,0.0,0.0,0.0,0.0,0.0,0.0,0.0,0.0,0.0,0.0,0.0,0.0,0.0,0.0,0.0,0.0,0.0,0.0,0.0,0.0,0.0,0.0,0.0,0.0,0.0,0.0,0.0,0.0,0.0,0.0,0.0,0.0,0.0,0.0,0.0,0.0,0.0,0.0,0.0,0.0,0.0,0.0,0.0,0.0,0.0,0.0,0.0,0.0,0.0,0.0,0.0,0.0,0.0,0.0,0.0,0.0,0.0,0.0,0.0,0.0,0.0,0.0,0.0,0.0,0.0,0.0,0.0,0.0,0.0,0.0,0.0,0.0,0.0,0.0,0.0,0.0,0.0,0.0,0.0,0.0,0.0,0.0,0.0,0.0,0.0,0.0,0.0,0.0,0.0,0.0,0.0,0.0,-0.5788,-0.5728,-0.5895,-0.59,-0.5622,-0.5284,-0.4841,0.0,0.0,0.0,0.0,0.0,0.0,0.0,0.0,0.0,0.0,0.0,0.0,0.0,0.0,0.0,0.0,0.0,0.0,0.0,0.0,0.0,0.0,0.0,0.0,0.0,0.0,0.0,0.0,0.0,0.0,0.0,0.0,0.0,0.0,0.0,0.0,0.0,0.0,0.0,0.0,0.0,0.0,0.0,0.0,0.0,0.0,0.0,0.0,0.0,0.0,0.0,0.0,0.0,0.0,0.0,0.0,0.0,0.0,0.0,0.0,0.0,0.0,0.0,0.0,0.0,0.0,0.0,0.0,0.0,0.0,0.0,0.0,0.0,0.0,0.0,0.0,0.0,0.0,0.0,0.0,0.0,0.0,0.0,0.0,0.0,0.0,0.0,0.0,0.0,0.0,0.0,0.0,0.0,0.0,0.0,0.0,0.0,0.0,0.0,0.0,0.0,0.0,0.0,0.0,0.0,0.0,0.0,0.0,0.0,-0.6589,-0.6658,-0.6604,-0.6426,-0.5955,-0.5383,0.0,0.0,0.0,0.0,0.0,0.0,0.0,0.0,0.0,0.0,0.0,0.0,0.0,0.0,0.0,0.0,0.0,0.0,0.0,0.0,0.0,0.0,0.0,0.0,0.0,0.0,0.0,0.0,0.0,0.0,0.0,0.0,0.0,0.0,0.0,0.0,0.0,0.0,0.0,0.0,0.0,0.0,0.0,0.0,0.0,0.0,0.0,0.0,0.0,0.0,0.0,0.0,0.0,0.0,0.0,0.0,0.0,0.0,0.0,0.0,0.0,0.0,0.0,0.0,0.0,0.0,0.0,0.0,0.0,0.0,0.0,0.0,0.0,0.0,0.0,0.0,0.0,0.0,0.0,0.0,0.0,0.0,0.0,0.0,0.0,0.0,0.0,0.0,0.0,0.0,0.0,0.0,0.0,0.0,0.0,0.0,0.0,0.0,0.0,0.0,0.0,0.0,0.0,0.0,0.0,0.0,0.0,0.0,0.0,-0.8196,-0.7772,-0.7402,-0.7218,-0.6609,-0.6013,-0.5486,0.0,0.0,0.0,0.0,0.0,0.0,0.0,0.0,0.0,0.0,0.0,0.0,0.0,0.0,0.0,0.0,0.0,0.0,0.0,0.0,0.0,0.0,0.0,0.0,0.0,0.0,0.0,0.0,0.0,0.0,0.0,0.0,0.0,0.0,0.0,0.0,0.0,0.0,0.0,0.0,0.0,0.0,0.0,0.0,0.0,0.0,0.0,0.0,0.0,0.0,0.0,0.0,0.0,0.0,0.0,0.0,0.0,0.0,0.0,0.0,0.0,0.0,0.0,0.0,0.0,0.0,0.0,0.0,0.0,0.0,0.0,0.0,0.0,0.0,0.0,0.0,0.0,0.0,0.0,0.0,0.0,0.0,0.0,0.0,0.0,0.0,0.0,0.0,0.0,0.0,0.0,0.0,0.0,0.0,0.0,0.0,0.0,0.0,0.0,0.0,0.0,0.0,0.0,0.0,0.0,0.0,0.0,0.0,-1.0262,-0.9166,-0.8368,-0.7973,-0.7296,-0.668,0.0,0.0,0.0,0.0,0.0,0.0,0.0,0.0,0.0,0.0,0.0,0.0,0.0,0.0,0.0,0.0,0.0,0.0,0.0,0.0,0.0,0.0,0.0,0.0,0.0,0.0,0.0,0.0,0.0,0.0,0.0,0.0,0.0,0.0,0.0,0.0,0.0,0.0,0.0,0.0,0.0,0.0,0.0,0.0,0.0,0.0,0.0,0.0,0.0,0.0,0.0,0.0,0.0,0.0,0.0,0.0,0.0,0.0,0.0,0.0,0.0,0.0,0.0,0.0,0.0,0.0,0.0,0.0,0.0,0.0,0.0,0.0,0.0,0.0,0.0,0.0,0.0,0.0,0.0,0.0,0.0,0.0,0.0,0.0,0.0,0.0,0.0,0.0,0.0,0.0,0.0,0.0,0.0,0.0,0.0,0.0,0.0,0.0,0.0,0.0,0.0,0.0,0.0,0.0,0.0,0.0,0.0,0.0,0.0,-1.0967,-1.0821,-1.0177,-0.9035,-0.8348,-0.7565,0.0,0.0,0.0,0.0,0.0,0.0,0.0,0.0,0.0,0.0,0.0,0.0,0.0,0.0,0.0,0.0,0.0,0.0,0.0,0.0,0.0,0.0,0.0,0.0,0.0,0.0,0.0,0.0,0.0,0.0,0.0,0.0,0.0,0.0,0.0,0.0,0.0,0.0,0.0,0.0,0.0,0.0,0.0,0.0,0.0,0.0,0.0,0.0,0.0,0.0,0.0,0.0,0.0,0.0,0.0,0.0,0.0,0.0,0.0,0.0,0.0,0.0,0.0,0.0,0.0,0.0,0.0,0.0,0.0,0.0,0.0,0.0,0.0,0.0,0.0,0.0,0.0,0.0,0.0,0.0,0.0,0.0,0.0,0.0,0.0,0.0,0.0,0.0,0.0,0.0,0.0,0.0,0.0,0.0,0.0,0.0,0.0,0.0,0.0,0.0,0.0,0.0,0.0,0.0,0.0,0.0,0.0,0.0,-1.1548,-1.194,-1.1942,-1.1542,-1.0611,-0.9536,-0.8436,0.0,0.0,0.0,0.0,0.0,0.0,0.0,0.0,0.0,0.0,0.0,0.0,0.0,0.0,0.0,0.0,0.0,0.0,0.0,0.0,0.0,0.0,0.0,0.0,0.0,0.0,0.0,0.0,0.0,0.0,0.0,0.0,0.0,0.0,0.0,0.0,0.0,0.0,0.0,0.0,0.0,0.0,0.0,0.0,0.0,0.0,0.0,0.0,0.0,0.0,0.0,0.0,0.0,0.0,0.0,0.0,0.0,0.0,0.0,0.0,0.0,0.0,0.0,0.0,0.0,0.0,0.0,0.0,0.0,0.0,0.0,0.0,0.0,0.0,0.0,0.0,0.0,0.0,0.0,0.0,0.0,0.0,0.0,0.0,0.0,0.0,0.0,0.0,0.0,0.0,0.0,0.0,0.0,0.0,0.0,0.0,0.0,0.0,0.0,0.0,0.0,0.0,0.0,0.0,0.0,0.0,0.0,0.0,-1.2547,-1.293,-1.281,-1.2652,-1.2351,-1.0706,-0.9268,0.0,0.0,0.0,0.0,0.0,0.0,0.0,0.0,0.0,0.0,0.0,0.0,0.0,0.0,0.0,0.0,0.0,0.0,0.0,0.0,0.0,0.0,0.0,0.0,0.0,0.0,0.0,0.0,0.0,0.0,0.0,0.0,0.0,0.0,0.0,0.0,0.0,0.0,0.0,0.0,0.0,0.0,0.0,0.0,0.0,0.0,0.0,0.0,0.0,0.0,0.0,0.0,0.0,0.0,0.0,0.0,0.0,0.0,0.0,0.0,0.0,0.0,0.0,0.0,0.0,0.0,0.0,0.0,0.0,0.0,0.0,0.0,0.0,0.0,0.0,0.0,0.0,0.0,0.0,0.0,0.0,0.0,0.0,0.0,0.0,0.0,0.0,0.0,0.0,0.0,0.0,0.0,0.0,0.0,0.0,0.0,0.0,0.0,0.0,0.0,0.0,0.0,0.0,0.0,0.0,0.0,0.0,0.0,-1.3347,-1.3802,-1.3823,-1.3585,-1.3093,-1.127,-0.9854,0.0,0.0,0.0,0.0,0.0,0.0,0.0,0.0,0.0,0.0,0.0,0.0,0.0,0.0,0.0,0.0,0.0,0.0,0.0,0.0,0.0,0.0,0.0,0.0,0.0,0.0,0.0,0.0,0.0,0.0,0.0,0.0,0.0,0.0,0.0,0.0,0.0,0.0,0.0,0.0,0.0,0.0,0.0,0.0,0.0,0.0,0.0,0.0,-0.732,0.0,0.0,0.0,0.0,0.0,0.0,0.0,0.0,0.0,0.0,0.0,0.0,0.0,0.0,0.0,0.0,0.0,0.0,0.0,0.0,0.0,0.0,0.0,0.0,0.0,0.0,0.0,0.0,0.0,0.0,0.0,0.0,0.0,0.0,0.0,0.0,0.0,0.0,0.0,0.0,0.0,0.0,0.0,0.0,0.0,0.0,0.0,0.0,0.0,0.0,0.0,0.0,0.0,0.0,0.0,0.0,0.0,0.0,0.0,-1.438,-1.4756,-1.4657,-1.4425,-1.3909,-1.2319,-1.0909,0.0,0.0,0.0,0.0,0.0,0.0,0.0,0.0,0.0,0.0,0.0,0.0,0.0,0.0,0.0,0.0,0.0,0.0,0.0,0.0,0.0,0.0,0.0,0.0,0.0,0.0,0.0,0.0,0.0,0.0,0.0,0.0,0.0,0.0,0.0,0.0,0.0,0.0,0.0,0.0,0.0,0.0,0.0,0.0,0.0,0.0,0.0,0.0,0.0,0.0,0.0,0.0,0.0,0.0,0.0,0.0,0.0,0.0,0.0,0.0,0.0,0.0,0.0,0.0,0.0,0.0,0.0,0.0,0.0,0.0,0.0,0.0,0.0,0.0,0.0,0.0,0.0,0.0,0.0,0.0,0.0,0.0,0.0,0.0,0.0,0.0,0.0,0.0,0.0,0.0,0.0,0.0,0.0,0.0,0.0,0.0,0.0,0.0,0.0,0.0,0.0,0.0,0.0,0.0,0.0,0.0,0.0,-1.4817,-1.5414,-1.5663,-1.5426,-1.5133,-1.4705,-1.3447,-1.21,-1.0573,0.0,0.0,0.0,0.0,0.0,0.0,0.0,0.0,0.0,0.0,0.0,0.0,0.0,0.0,0.0,0.0,0.0,0.0,0.0,0.0,0.0,0.0,0.0,0.0,0.0,0.0,0.0,0.0,0.0,0.0,0.0,0.0,0.0,0.0,0.0,0.0,0.0,0.0,-0.8811,-0.9414,0.0,0.0,0.0,0.0,0.0,0.0,0.0,0.0,-0.8222,0.0,0.0,0.0,0.0,0.0,0.0,0.0,0.0,0.0,0.0,0.0,0.0,0.0,0.0,0.0,0.0,0.0,0.0,0.0,0.0,0.0,0.0,0.0,0.0,0.0,0.0,0.0,0.0,0.0,0.0,0.0,0.0,0.0,0.0,0.0,0.0,0.0,0.0,0.0,0.0,0.0,0.0,0.0,0.0,0.0,0.0,0.0,0.0,0.0,0.0,0.0,0.0,0.0,0.0,0.0,0.0,-1.4673,-1.5557,-1.6141,-1.6427,-1.6138,-1.57,-1.5117,-1.4166,-1.3081,-1.1815,0.0,0.0,0.0,0.0,0.0,0.0,0.0,0.0,0.0,0.0,0.0,0.0,0.0,0.0,0.0,0.0,0.0,0.0,0.0,0.0,0.0,0.0,0.0,0.0,0.0,0.0,0.0,0.0,0.0,0.0,0.0,0.0,0.0,0.0,0.0,0.0,0.0,0.0,0.0,-1.0194,-1.0448,0.0,0.0,0.0,0.0,0.0,0.0,0.0,0.0,-0.8732,0.0,0.0,0.0,0.0,0.0,0.0,0.0,0.0,0.0,0.0,0.0,0.0,0.0,0.0,0.0,0.0,0.0,0.0,0.0,0.0,0.0,0.0,0.0,0.0,0.0,0.0,0.0,0.0,0.0,0.0,0.0,0.0,0.0,0.0,0.0,0.0,0.0,0.0,0.0,0.0,0.0,0.0,0.0,0.0,0.0,0.0,0.0,0.0,0.0,0.0,0.0,0.0,0.0,0.0,0.0,-1.5672,-1.6269,-1.6754,-1.712,-1.6858,-1.6333,-1.5692,-1.478,-1.3813,0.0,0.0,0.0,0.0,0.0,0.0,0.0,0.0,0.0,0.0,0.0,0.0,0.0,0.0,0.0,0.0,0.0,0.0,0.0,0.0,0.0,0.0,0.0,0.0,0.0,0.0,0.0,0.0,0.0,0.0,0.0,0.0,0.0,0.0,0.0,0.0,0.0,0.0,0.0,0.0,-1.0947,-1.1019,-1.0975,0.0,0.0,0.0,0.0,0.0,0.0,-0.9114,-0.9044,0.0,0.0,0.0,0.0,0.0,0.0,0.0,0.0,0.0,0.0,0.0,0.0,0.0,0.0,0.0,0.0,0.0,0.0,0.0,0.0,0.0,0.0,0.0,0.0,0.0,0.0,0.0,0.0,0.0,0.0,0.0,0.0,0.0,0.0,0.0,0.0,0.0,0.0,0.0,0.0,0.0,0.0,0.0,0.0,0.0,0.0,0.0,0.0,0.0,0.0,0.0,0.0,0.0,0.0,0.0,-1.6736,-1.697,-1.7313,-1.7862,-1.751,-1.6959,-1.6272,-1.5411,-1.4424,0.0,0.0,0.0,0.0,0.0,0.0,0.0,0.0,0.0,0.0,0.0,0.0,0.0,0.0,0.0,0.0,0.0,0.0,0.0,0.0,0.0,0.0,0.0,0.0,0.0,0.0,0.0,0.0,0.0,0.0,0.0,0.0,0.0,0.0,0.0,0.0,0.0,0.0,0.0,0.0,0.0,-1.1517,-1.1339,-1.0804,0.0,0.0,0.0,0.0,-0.9346,-0.9314,0.0,0.0,0.0,0.0,0.0,0.0,0.0,0.0,0.0,0.0,0.0,0.0,0.0,0.0,0.0,0.0,0.0,0.0,0.0,0.0,0.0,0.0,0.0,0.0,0.0,0.0,0.0,0.0,0.0,0.0,0.0,0.0,0.0,0.0,0.0,0.0,0.0,0.0,0.0,0.0,0.0,0.0,0.0,0.0,0.0,0.0,0.0,0.0,0.0,0.0,0.0,0.0,0.0,0.0,0.0,0.0,-1.7317,-1.7542,-1.791,-1.8613,-1.7988,-1.7373,-1.683,-1.6228,-1.5239,0.0,0.0,0.0,0.0,0.0,0.0,0.0,0.0,0.0,0.0,0.0,0.0,0.0,0.0,0.0,0.0,0.0,0.0,0.0,0.0,0.0,0.0,0.0,0.0,0.0,0.0,0.0,0.0,0.0,0.0,0.0,0.0,0.0,0.0,0.0,0.0,0.0,0.0,0.0,0.0,0.0,-1.182,-1.1764,-1.1301,-1.0873,0.0,0.0,-0.9836,-0.9836,-0.9669,0.0,0.0,0.0,0.0,0.0,0.0,0.0,0.0,0.0,0.0,0.0,0.0,0.0,0.0,0.0,0.0,0.0,0.0,0.0,0.0,0.0,0.0,0.0,0.0,0.0,0.0,0.0,0.0,0.0,0.0,0.0,0.0,0.0,0.0,0.0,0.0,0.0,0.0,0.0,0.0,0.0,0.0,0.0,0.0,0.0,0.0,0.0,0.0,0.0,0.0,0.0,0.0,0.0,0.0,0.0,-1.6377,-1.7839,-1.8237,-1.8541,-1.8911,-1.8452,-1.7833,-1.7176,-1.6542,-1.5489,0.0,0.0,0.0,0.0,0.0,0.0,0.0,0.0,0.0,0.0,0.0,0.0,0.0,0.0,0.0,0.0,0.0,0.0,0.0,0.0,0.0,0.0,0.0,0.0,0.0,0.0,0.0,0.0,0.0,0.0,0.0,0.0,0.0,0.0,0.0,0.0,0.0,0.0,0.0,0.0,0.0,0.0,-1.2291,-1.1727,0.0,0.0,0.0,-1.032,-1.0326,0.0,0.0,0.0,0.0,0.0,0.0,0.0,0.0,0.0,0.0,0.0,0.0,0.0,0.0,0.0,0.0,0.0,0.0,0.0,0.0,0.0,0.0,0.0,0.0,0.0,0.0,0.0,0.0,0.0,0.0,0.0,0.0,0.0,0.0,0.0,0.0,0.0,0.0,0.0,0.0,0.0,0.0,0.0,0.0,0.0,0.0,0.0,0.0,0.0,0.0,0.0,0.0,0.0,0.0,0.0,0.0,0.0,-1.8341,-1.8846,-1.919,-1.9477,-1.8916,-1.8299,-1.7801,-1.6945,0.0,0.0,0.0,0.0,0.0,0.0,0.0,0.0,0.0,0.0,0.0,0.0,0.0,0.0,0.0,0.0,0.0,0.0,0.0,0.0,0.0,0.0,0.0,0.0,0.0,0.0,0.0,-0.6519,0.0,0.0,0.0,0.0,0.0,0.0,0.0,0.0,0.0,0.0,0.0,0.0,0.0,0.0,-1.2594,-1.2665,-1.2119,-1.154,0.0,0.0,-1.0557,-1.0557,-1.0492,-1.0363,0.0,0.0,0.0,0.0,0.0,0.0,0.0,0.0,0.0,0.0,0.0,0.0,0.0,0.0,0.0,0.0,0.0,0.0,0.0,0.0,0.0,0.0,0.0,0.0,0.0,0.0,0.0,0.0,0.0,0.0,0.0,0.0,0.0,0.0,0.0,0.0,0.0,0.0,0.0,0.0,0.0,0.0,0.0,0.0,0.0,0.0,0.0,0.0,0.0,0.0,0.0,0.0,0.0,0.0,0.0,-1.8884,-1.923,-1.9813,-2.0684,-1.9494,-1.8809,-1.8864,-1.759,-1.6183,0.0,0.0,0.0,0.0,0.0,0.0,0.0,0.0,0.0,0.0,0.0,0.0,0.0,0.0,0.0,0.0,0.0,0.0,0.0,0.0,0.0,0.0,0.0,0.0,0.0,0.0,0.0,0.0,0.0,0.0,0.0,0.0,0.0,0.0,0.0,0.0,0.0,0.0,0.0,0.0,0.0,-1.2836,-1.2692,-1.2198,-1.1742,0.0,0.0,-1.0557,-1.0557,-1.0622,-1.0541,-1.0326,0.0,0.0,0.0,0.0,0.0,0.0,0.0,0.0,0.0,0.0,0.0,0.0,0.0,0.0,0.0,0.0,0.0,0.0,0.0,0.0,0.0,0.0,0.0,0.0,0.0,0.0,0.0,0.0,0.0,0.0,0.0,0.0,0.0,0.0,0.0,0.0,0.0,0.0,0.0,0.0,0.0,0.0,0.0,0.0,0.0,0.0,0.0,0.0,0.0,0.0,0.0,0.0,0.0,-1.8076,-1.913,-2.0139,-2.0742,-2.0906,-2.0403,-1.9986,-1.9596,-1.8341,-1.7079,0.0,0.0,0.0,0.0,0.0,0.0,0.0,0.0,0.0,0.0,0.0,0.0,0.0,0.0,0.0,0.0,0.0,0.0,0.0,0.0,0.0,0.0,0.0,0.0,0.0,0.0,0.0,0.0,-0.857,-0.9385,-1.0314,0.0,0.0,0.0,0.0,0.0,0.0,0.0,0.0,0.0,0.0,-1.321,-1.3227,-1.2581,0.0,0.0,-1.1332,-1.099,-1.099,-1.095,-1.0821,-1.0735,-1.06,0.0,0.0,0.0,0.0,0.0,0.0,0.0,0.0,0.0,0.0,0.0,0.0,0.0,0.0,0.0,0.0,0.0,0.0,0.0,0.0,0.0,0.0,0.0,0.0,0.0,0.0,0.0,0.0,0.0,0.0,0.0,0.0,0.0,0.0,0.0,0.0,0.0,0.0,0.0,0.0,0.0,0.0,0.0,0.0,0.0,0.0,0.0,0.0,0.0,0.0,0.0,0.0,-1.8628,-1.925,-2.07,-2.1397,-2.1272,-2.1096,-2.0768,-2.0173,-1.8981,-1.7716,0.0,0.0,0.0,0.0,0.0,0.0,0.0,0.0,0.0,0.0,0.0,0.0,0.0,0.0,0.0,0.0,0.0,0.0,0.0,0.0,0.0,0.0,0.0,0.0,0.0,0.0,0.0,0.0,-0.9118,-0.996,-1.0533,0.0,0.0,0.0,0.0,0.0,0.0,0.0,0.0,0.0,0.0,-1.3588,-1.3701,-1.3008,-1.248,-1.2226,-1.1822,-1.1532,-1.1467,-1.1311,-1.1149,-1.1004,0.0,0.0,0.0,0.0,0.0,0.0,0.0,0.0,0.0,0.0,0.0,0.0,0.0,0.0,0.0,0.0,0.0,0.0,0.0,0.0,0.0,0.0,0.0,0.0,0.0,0.0,0.0,0.0,0.0,0.0,-1.3726,0.0,0.0,0.0,0.0,0.0,0.0,0.0,0.0,0.0,0.0,0.0,0.0,0.0,0.0,0.0,0.0,0.0,0.0,0.0,0.0,0.0,0.0,-1.8814,-1.9417,-2.0937,-2.1857,-2.2023,-2.1409,-2.1018,-2.0841,-1.9473,-1.7996,-1.6578,0.0,0.0,0.0,0.0,0.0,0.0,0.0,0.0,0.0,0.0,0.0,0.0,0.0,0.0,0.0,0.0,0.0,0.0,0.0,0.0,0.0,0.0,0.0,0.0,0.0,0.0,-0.8851,-0.9862,-1.0548,0.0,0.0,0.0,0.0,0.0,0.0,0.0,0.0,0.0,0.0,-1.4402,-1.4213,-1.4028,-1.3454,-1.301,-1.2813,-1.2392,-1.1951,-1.1725,-1.1682,-1.1526,0.0,0.0,0.0,0.0,0.0,0.0,0.0,0.0,0.0,0.0,0.0,0.0,0.0,0.0,0.0,0.0,0.0,0.0,0.0,0.0,0.0,0.0,0.0,0.0,0.0,0.0,0.0,-1.5815,-1.5605,0.0,0.0,0.0,0.0,0.0,0.0,0.0,0.0,0.0,0.0,0.0,-1.9246,-1.9927,0.0,0.0,0.0,0.0,0.0,0.0,0.0,0.0,0.0,0.0,0.0,0.0,-1.9636,-2.0602,-2.1758,-2.2469,-2.2536,-2.2429,-2.2072,-2.1484,-2.0232,-1.8514,-1.6307,0.0,0.0,0.0,0.0,0.0,0.0,0.0,0.0,0.0,0.0,0.0,0.0,0.0,0.0,0.0,0.0,0.0,0.0,0.0,0.0,0.0,0.0,0.0,0.0,0.0,-0.9134,0.0,0.0,0.0,0.0,0.0,0.0,0.0,0.0,0.0,0.0,0.0,-1.4299,-1.477,-1.4524,-1.4362,-1.4414,-1.3678,-1.3056,0.0,0.0,0.0,0.0,0.0,0.0,0.0,0.0,0.0,0.0,0.0,0.0,0.0,0.0,-1.1813,-1.0996,-1.0654,-1.0492,-1.0333,0.0,0.0,0.0,0.0,0.0,0.0,0.0,0.0,0.0,0.0,0.0,0.0,0.0,0.0,-1.7677,0.0,-1.7306,0.0,0.0,0.0,0.0,0.0,0.0,0.0,0.0,-1.9961,-2.0625,-2.0888,-2.1599,-2.1955,0.0,-2.1498,-2.0517,0.0,0.0,0.0,0.0,0.0,0.0,0.0,0.0,-2.0369,-2.1181,-2.234,-2.2889,-2.2793,-2.2908,-2.2628,-2.1797,-2.046,-1.8714,-1.6753,-1.5897,-1.4795,0.0,0.0,0.0,0.0,0.0,0.0,0.0,0.0,0.0,0.0,0.0,0.0,0.0,0.0,0.0,0.0,0.0,0.0,0.0,0.0,0.0,0.0,0.0,-0.9752,0.0,0.0,0.0,0.0,0.0,0.0,0.0,0.0,0.0,-1.4172,-1.4609,-1.5028,-1.5326,-1.4977,-1.4643,-1.476,0.0,0.0,0.0,0.0,0.0,0.0,0.0,-1.2693,-1.2797,-1.2786,-1.2871,-1.2968,-1.2968,-1.2962,-1.3059,0.0,0.0,-1.1753,-1.1466,-1.1354,-1.1277,-1.126,-1.1233,-1.1145,-1.1033,-1.0926,0.0,0.0,0.0,0.0,0.0,0.0,0.0,0.0,-2.0207,-1.9964,0.0,-1.9706,0.0,0.0,0.0,0.0,0.0,-1.9594,0.0,0.0,-2.1352,-2.2078,-2.2739,-2.3243,-2.3772,-2.4214,-2.3018,-2.2383,-2.2113,-2.0687,0.0,0.0,0.0,0.0,0.0,0.0,-2.1053,-2.1307,-2.2696,-2.3231,-2.2838,-2.2919,-2.2553,-2.1721,-2.0023,-1.8715,-1.7812,-1.6839,-1.5698,-1.4585,-1.3585,0.0,0.0,0.0,0.0,0.0,0.0,0.0,0.0,0.0,0.0,0.0,0.0,0.0,0.0,0.0,0.0,0.0,0.0,0.0,0.0,-0.9638,0.0,0.0,0.0,0.0,0.0,0.0,0.0,0.0,0.0,0.0,-1.5452,-1.5612,-1.5757,-1.5948,0.0,0.0,0.0,0.0,-1.392,-1.3884,-1.3636,-1.3448,-1.3202,-1.3256,-1.3176,-1.2946,0.0,0.0,-1.3179,-1.3271,-1.3282,-1.3459,-1.3385,-1.3173,-1.2882,-1.274,-1.2666,-1.2543,-1.2486,-1.2422,-1.2221,-1.2046,-1.2032,-2.5084,0.0,0.0,0.0,0.0,-2.1928,-2.1812,-2.1758,-2.1478,-2.1263,-2.1125,-2.0919,0.0,0.0,0.0,0.0,0.0,0.0,-2.1518,-2.2103,-2.2764,-2.343,-2.405,-2.4327,-2.4412,-2.4275,-2.3916,-2.364,-2.3292,-2.2745,-2.1592,-1.9877,0.0,0.0,0.0,0.0,-2.1632,-2.2685,-2.3015,-2.3176,-2.315,-2.2787,-2.2014,-2.0722,-1.9915,-1.9086,-1.8234,-1.7483,-1.6818,-1.6072,-1.4784,0.0,0.0,0.0,0.0,0.0,0.0,0.0,0.0,0.0,0.0,0.0,0.0,0.0,0.0,0.0,0.0,0.0,0.0,0.0,-0.9956,-1.0243,-1.0629,0.0,0.0,0.0,0.0,0.0,0.0,0.0,0.0,0.0,-1.6441,-1.6323,-1.6162,0.0,0.0,-1.5088,-1.5106,-1.4386,-1.3843,-1.3919,-1.3642,0.0,0.0,-1.3718,-1.379,-1.3803,-1.388,-1.3886,-1.398,-1.398,-1.398,-1.4069,-1.398,-1.398,-1.3862,-1.3292,-1.278,-1.2694,-1.2677,-1.2654,-1.2591,-1.2631,-1.2592,-2.6891,-2.5284,-2.4832,-2.4504,-2.4299,-2.401,-2.3907,-2.3848,-2.3489,-2.327,-2.3035,-2.2811,-2.2521,-2.2309,-2.2132,0.0,0.0,0.0,-2.3071,-2.3467,-2.3852,-2.4414,-2.4991,-2.5069,-2.5115,-2.5061,-2.4785,-2.4475,-2.4195,-2.3723,-2.2799,-2.1404,0.0,0.0,-2.1755,-2.1973,-2.2513,-2.3338,-2.3424,-2.3374,-2.3298,-2.2478,-2.1502,-2.0342,-1.9951,-1.9358,-1.8641,-1.825,-1.7683,-1.6996,-1.5937,-1.4914,0.0,0.0,0.0,0.0,0.0,0.0,0.0,0.0,0.0,0.0,0.0,-0.8326,0.0,0.0,0.0,0.0,-0.9648,-1.0294,-1.0871,-1.0976,0.0,0.0,0.0,0.0,0.0,0.0,0.0,-1.5042,-1.582,-1.6461,-1.6875,-1.6817,-1.6607,-1.6195,-1.5551,-1.51,-1.5107,0.0,-1.4223,-1.4323,-1.4237,-1.4231,-1.4335,-1.4252,-1.4243,-1.4316,-1.4298,-1.4298,-1.4298,-1.4298,-1.4298,-1.4298,-1.4298,-1.4298,-1.4298,-1.3744,-1.3362,-1.3356,-1.345,-1.345,-1.3356,-1.3269,-1.3176,-2.783,-2.7816,-2.7097,-2.6574,-2.6287,-2.6027,-2.6042,-2.6109,-2.5686,-2.5383,-2.5116,-2.4885,-2.4467,-2.3841,-2.3703,0.0,-2.4353,-2.4353,-2.4443,-2.4701,-2.4701,-2.5028,-2.5661,-2.5661,-2.5815,-2.6119,-2.5475,-2.5025,-2.4784,-2.4054,-2.3613,-2.3613,-2.3288,-2.2993,-2.2833,-2.3201,-2.3395,-2.3429,-2.3743,-2.3666,-2.3161,-2.2025,-2.1108,-2.0264,-2.002,-1.9627,-1.9082,-1.8772,-1.8373,-1.7613,-1.7013,-1.5915,-1.4475,0.0,0.0,0.0,0.0,0.0,0.0,0.0,0.0,0.0,0.0,0.0,0.0,0.0,0.0,0.0,-1.0522,0.0,-1.1558,-1.1784,0.0,0.0,0.0,-1.2713,-1.3404,-1.4135,-1.4871,-1.5637,0.0,0.0,-1.7022,-1.7167,-1.7145,-1.6395,-1.5783,-1.5409,-1.5189,-1.4936,-1.4835,-1.5046,-1.5101,-1.5101,-1.5052,-1.4883,-1.4678,-1.4455,-1.4364,-1.4395,-1.4395,-1.4395,-1.4377,-1.4401,-1.4364,-1.4377,-1.437,-1.4352,-1.4328,-1.4316,-1.4292,-1.428,-1.4262,-1.407,-1.3878,-2.8782,-2.8782,-2.8581,-2.7925,-2.7037,-2.6606,-2.6371,-2.6184,-2.5623,-2.5307,-2.5243,-2.4949,-2.4745,-2.4555,-2.4491,-2.4553,-2.4691,-2.4678,-2.4903,-2.5344,-2.5344,-2.559,-2.6046,-2.6058,-2.5926,-2.5746,-2.5554,-2.5411,-2.5189,-2.4929,-2.4753,-2.4484,-2.4425,-2.4073,-2.3456,-2.3444,-2.3626,-2.4016,-2.3768,-2.3224,-2.2176,-2.1415,-2.0722,-2.002,-1.9794,-1.9548,-1.9222,-1.8843,-1.8576,-1.8391,-1.7392,-1.6566,-1.6073,-1.4626,0.0,0.0,0.0,0.0,0.0,0.0,0.0,0.0,0.0,-0.976,-0.9938,0.0,-1.0502,0.0,-1.1152,-1.155,-1.1828,-1.202,0.0,0.0,-1.2954,-1.3386,-1.3983,-1.4641,-1.5315,-1.5966,-1.6533,-1.7132,-1.7523,-1.7337,-1.7009,-1.6867,-1.6203,-1.5725,-1.5701,-1.5312,-1.5034,-1.5107,-1.5131,-1.5113,-1.5113,-1.5059,-1.4986,-1.4932,-1.4908,-1.4914,-1.4914,-1.4914,-1.4914,-1.4914,-1.4914,-1.4914,-1.4902,-1.4763,-1.463,-1.4606,-1.4449,-1.4298,-1.4298,-1.4202,-1.4112,-2.8972,-2.8944,-2.8908,-2.8461,-2.7707,-2.7547,-2.7346,-2.7093,-2.644,-2.6115,-2.5997,-2.5693,-2.5548,-2.5548,-2.5548,-2.5548,-2.5548,-2.5548,-2.5645,-2.5852,-2.5865,-2.5971,-2.6062,-2.6062,-2.591,-2.5606,-2.5606,-2.5465,-2.5253,-2.5182,-2.5052,-2.4801,-2.4929,-2.4748,-2.4253,-2.4036,-2.4214,-2.4705,-2.4026,-2.3165,-2.2051,-2.1399,-2.0664,-1.9951,-1.9715,-1.9478,-1.9301,-1.8922,-1.8709,-1.87,-1.7692,-1.7012,-1.6594,-1.5419,-1.4516,0.0,0.0,0.0,0.0,0.0,0.0,0.0,0.0,0.0,0.0,0.0,-1.1323,-1.1768,-1.194,-1.22,-1.2614,-1.2759,-1.291,-1.3049,-1.3547,-1.4008,-1.4371,-1.5046,-1.5769,-1.6483,-1.6915,-1.729,-1.7775,-1.7668,-1.7413,-1.7298,-1.6823,-1.6337,-1.5915,-1.5487,-1.5318,-1.5439,-1.5457,-1.5403,-1.5306,-1.5384,-1.5444,-1.5334,-1.5411,-1.5512,-1.5512,-1.5512,-1.5512,-1.5512,-1.5512,-1.5512,-1.5506,-1.54,-1.5289,-1.527,-1.506,-1.4771,-1.4346,-1.4298,-1.4232,-2.8702,-2.8675,-2.8587,-2.8444,-2.83,-2.8392,-2.8276,-2.8013,-2.7469,-2.7146,-2.6956,-2.6602,-2.6521,-2.6521,-2.6465,-2.6465,-2.6465,-2.6396,-2.6339,-2.6131,-2.6131,-2.6062,-2.584,-2.5828,-2.5688,-2.5535,-2.5548,-2.5324,-2.504,-2.5111,-2.5016,-2.4907,-2.5156,-2.5211,-2.5077,-2.4763,-2.4867,-2.5228,-2.4284,-2.3228,-2.2288,-2.161,-2.0864,-2.0042,-1.9795,-1.9626,-1.9457,-1.9084,-1.8825,-1.8771,-1.7963,-1.7309,-1.6836,-1.6365,-1.5701,0.0,-1.4561,0.0,0.0,0.0,0.0,0.0,0.0,0.0,0.0,-1.195,-1.2312,-1.2771,-1.2807,-1.3006,-1.3471,-1.355,-1.3568,-1.3653,-1.4047,-1.4519,-1.4756,-1.5484,-1.6188,-1.6994,-1.7279,-1.7519,-1.7839,-1.7915,-1.777,-1.7627,-1.7297,-1.6937,-1.6235,-1.586,-1.5725,-1.5968,-1.5998,-1.5964,-1.5805,-1.5866,-1.589,-1.5769,-1.5852,-1.6126,-1.6056,-1.6043,-1.6138,-1.6037,-1.6062,-1.6043,-1.6126,-1.6005,-1.6068,-1.5973,-1.5708,-1.532,-1.4655,-1.4449,-1.4485,-2.821,-2.8262,-2.8197,-2.8145,-2.8145,-2.7802,-2.7656,-2.7603,-2.7214,-2.6875,-2.6589,-2.6533,-2.6521,-2.6465,-2.6339,-2.627,-2.627,-2.605,-2.598,-2.5968,-2.598,-2.5828,-2.5688,-2.5453,-2.5324,-2.5194,-2.4992,-2.4933,-2.4873,-2.5262,-2.5315,-2.5094,-2.5454,-2.5684,-2.5814,0.0,0.0,0.0,-2.3887,-2.3111,-2.2483,-2.183,-2.1205,-2.0615,-2.0458,0.0,-2.0292,-1.9799,-1.949,-1.9188,-1.8494,0.0,0.0,0.0,0.0,0.0,0.0,0.0,0.0,0.0,0.0,0.0,-1.4304,-1.3691,-1.2853,-1.3015,-1.326,-1.335,-1.3363,-1.3399,-1.3507,-1.3897,-1.4118,-1.4223,-1.4771,-1.5308,-1.5367,-1.6054,-1.656,-1.6752,-1.7176,-1.764,-1.7936,-1.7735,-1.7654,-1.7769,-1.7457,-1.7153,-1.6996,-1.6647,-1.6461,-1.6518,-1.6518,-1.6505,-1.6455,-1.6542,-1.651,-1.6472,-1.6472,-1.6565,-1.6545,-1.6552,-1.6565,-1.6558,-1.6571,-1.6565,-1.6565,-1.6399,-1.624,-1.624,-1.6075,-1.5777,-1.5363,-1.5044,-1.4968,-2.8635,0.0,-2.866,-2.8605,0.0,-2.8166,-2.8027,-2.7862,-2.7173,-2.6726,-2.6521,-2.6521,-2.6465,-2.6339,-2.627,-2.6131,-2.6062,-2.591,-2.584,-2.5758,-2.5676,-2.5548,-2.5324,-2.5158,-2.5016,-2.4933,-2.5046,-2.5028,-2.4908,-2.5373,-2.5454,-2.5139,-2.5508,-2.5712,-2.5616,-2.5053,-2.466,-2.4426,-2.4013,-2.34,-2.2532,-2.1935,-2.14,-2.0857,0.0,0.0,0.0,0.0,0.0,0.0,0.0,0.0,0.0,0.0,0.0,-1.792,-1.7419,-1.7069,-1.6831,-1.6397,-1.6122,-1.5857,-1.5315,-1.4658,-1.3743,-1.3804,-1.3932,-1.4062,-1.4068,-1.413,-1.4272,-1.4503,-1.4678,-1.4697,-1.53,-1.5654,-1.5776,-1.6306,-1.6844,-1.7107,-1.7344,-1.7652,-1.7957,-1.7888,-1.7735,-1.7772,-1.7595,-1.7384,-1.7378,-1.6948,-1.6723,-1.6723,-1.6723,-1.6723,-1.673,-1.6842,-1.6955,-1.6948,-1.7054,-1.7153,-1.716,-1.716,-1.7153,-1.7153,-1.716,-1.7153,-1.7147,-1.7036,-1.6938,-1.6938,-1.673,-1.6536,-1.6304,-1.58,-1.5352,-2.9149,-2.9416,-2.9248,-2.9048,-2.8918,-2.8664,-2.846,-2.8277,0.0,0.0,0.0,-2.6766,-2.6614,-2.6429,-2.6416,-2.6276,-2.6052,-2.6052,-2.5898,-2.5743,-2.5529,-2.5373,-2.5313,-2.5073,-2.494,-2.495,-2.5303,-2.5275,-2.4956,-2.5447,-2.5441,-2.515,-2.5538,-2.5447,-2.4977,-2.4598,-2.4368,-2.4282,-2.411,-2.3507,-2.2561,-2.2112,-2.1597,-2.0977,-2.0808,-2.0732,-2.0732,-2.0314,-2.0039,-1.996,-1.9445,-1.9109,-1.9109,-1.8919,-1.8779,-1.8837,-1.8655,-1.8392,-1.8137,-1.7705,-1.7255,-1.6632,-1.6064,-1.5364,-1.4663,-1.4468,-1.4564,-1.4695,-1.4814,-1.491,-1.5057,-1.5223,-1.5249,-1.5249,-1.5687,-1.6045,-1.6065,-1.65,-1.6982,-1.7422,-1.7503,-1.7633,-1.7857,-1.7891,-1.7799,-1.7687,-1.7582,-1.7589,-1.7582,-1.716,-1.6942,-1.6935,-1.6942,-1.6836,-1.6942,-1.706,-1.7279,-1.7272,-1.7483,-1.7589,-1.7589,-1.7589,-1.7589,-1.7582,-1.7589,-1.7582,-1.7582,-1.7569,-1.7589,-1.7589,-1.7477,-1.7279,-1.7134,-1.6484,-1.5844,-2.919,-2.9074,-2.9003,-2.8905,-2.8664,-2.8473,-2.8328,-2.8097,-2.7934,-2.7811,-2.7605,-2.7605,-2.7519,-2.7299,-2.7127,-2.6918,-2.6793,-2.6545,-2.6395,-2.6233,-2.6158,-2.6158,-2.6083,-2.5791,-2.5562,-2.5509,-2.5258,-2.5037,-2.5004,-2.5384,-2.548,-2.5444,-2.5535,-2.5189,-2.4617,-2.4337,-2.3927,-2.3319,-2.3232,-2.3115,-2.2707,-2.2277,-2.1896,-2.1575,-2.1557,-2.1566,-2.1557,-2.13,-2.1058,-2.0629,-2.035,-2.0271,-2.0271,-2.0018,-1.9972,-2.0005,-1.9768,-1.9595,-1.9331,-1.8875,-1.8218,-1.7287,-1.7051,-1.6584,-1.5712,-1.5246,-1.4981,-1.5019,-1.5114,-1.5032,-1.5096,-1.5486,-1.581,-1.583,-1.6262,-1.654,-1.6547,-1.6907,-1.721,-1.7271,-1.7479,-1.7627,-1.7674,-1.7694,-1.7694,-1.7589,-1.7589,-1.7589,-1.7582,-1.7582,-1.7477,-1.7477,-1.7477,-1.7477,-1.7371,-1.7477,-1.7483,-1.7582,-1.7582,-1.7589,-1.7589,-1.7589,-1.7589,-1.7589,-1.7589,-1.7589,-1.7589,-1.7589,-1.7589,-1.7589,-1.7582,-1.7483,-1.7279,-1.6963,-1.6721,-2.9982,-2.9934,-2.9699,-2.9538,-2.9363,-2.9076,-2.8913,-2.8761,-2.8698,-2.8287,-2.7779,-2.7681,-2.7533,-2.7285,-2.7148,-2.6923,-2.6697,-2.6546,-2.6306,-2.6077,-2.6,-2.5923,-2.5758,-2.5474,-2.5329,-2.5339,-2.5325,-2.5194,-2.511,-2.5387,-2.5474,-2.5319,-2.5104,-2.4786,-2.4368,-2.3851,-2.3396,-2.3135,-2.3144,-2.2882,-2.2451,-2.2185,-2.2008,-2.1731,-2.1731,-2.1731,-2.1731,-2.1472,-2.1302,-2.1121,-2.0926,-2.0749,-2.074,-2.0651,-2.0552,-2.0546,-2.0382,-2.0209,-1.9762,-1.9196,-1.8635,-1.8172,-1.7606,-1.7218,-1.6915,-1.6116,-1.5721,-1.5969,-1.5886,-1.5848,-1.5999,-1.6229,-1.6302,-1.6302,-1.6767,-1.6941,-1.6981,-1.7208,-1.7375,-1.7395,-1.7495,-1.7582,-1.7589,-1.7589,-1.7589,-1.7589,-1.7589,-1.7589,-1.7589,-1.7589,-1.7589,-1.7589,-1.7589,-1.7589,-1.7589,-1.7589,-1.7589,-1.7589,-1.7589,-1.7589,-1.7589,-1.7589,-1.7589,-1.7589,-1.7589,-1.7589,-1.7589,-1.7589,-1.7589,-1.7589,-1.7589,-1.7589,-1.7378,-1.7166,-1.6743,-3.052,-3.0546,-3.0228,-3.0075,-2.9921,-2.9574,-2.9353,-2.9341,-2.9118,-2.8664,-2.7963,-2.7814,-2.7651,-2.7412,-2.7208,-2.6978,-2.6736,-2.6569,-2.6337,-2.6037,-2.597,-2.5723,-2.5475,-2.5292,-2.5132,-2.5145,-2.5304,-2.529,-2.5135,-2.5198,-2.5115,-2.4861,-2.4433,-2.411,-2.3937,-2.3319,-2.2969,-2.2872,-2.2872,-2.2618,-2.2097,-2.2008,-2.1919,-2.1731,-2.1731,-2.1731,-2.1651,-2.1571,-2.1491,-2.1482,-2.1284,-2.1177,-2.1177,-2.1096,-2.1006,-2.0826,-2.0744,-2.0473,-1.9928,-1.9379,-1.9044,-1.8939,-1.8193,-1.7859,-1.7852,-1.7227,-1.6711,-1.6828,-1.6674,-1.6565,-1.6746,-1.6774,-1.6807,-1.682,-1.7068,-1.7241,-1.7268,-1.7448,-1.7589,-1.7589,-1.7589,-1.7589,-1.7589,-1.7589,-1.7589,-1.7589,-1.7589,-1.7589,-1.7589,-1.7589,-1.7589,-1.7589,-1.7589,-1.7589,-1.7589,-1.7589,-1.7589,-1.7589,-1.7589,-1.7589,-1.7589,-1.7589,-1.7589,-1.7589,-1.7589,-1.7589,-1.7589,-1.7589,-1.7589,-1.7589,-1.7589,-1.7589,-1.7589,-1.7153,-1.6624,-3.0292,-3.0152,-3.0088,-2.9819,-2.9496,-2.9419,-2.9275,-2.9131,-2.8882,-2.87,-2.8385,-2.8445,-2.8251,-2.8116,-2.7853,-2.7509,-2.7163,-2.7117,-2.6862,-2.6546,-2.6509,-2.6405,-2.6008,-2.592,-2.5692,-2.546,-2.5316,-2.5158,-2.5104,-2.4754,-2.4358,-2.3927,-2.3484,-2.3232,-2.3135,-2.2706,-2.2353,-2.2185,-2.2185,-2.2185,-2.2097,-2.183,-2.1741,-2.1731,-2.1731,-2.1731,-2.1731,-2.1651,-2.1651,-2.1651,-2.1642,-2.1642,-2.1642,-2.1482,-2.1293,-2.1006,-2.0826,-2.0473,-1.9936,-1.9845,-1.9619,-1.9272,-1.9209,-1.8969,-1.8701,-1.8324,-1.793,-1.7584,-1.7279,-1.7,-1.7041,-1.7164,-1.721,-1.7121,-1.7348,-1.7542,-1.7535,-1.7569,-1.7589,-1.7589,-1.7589,-1.7589,-1.7589,-1.7589,-1.7589,-1.7589,-1.7589,-1.7589,-1.7589,-1.7589,-1.7589,-1.7589,-1.7589,-1.7589,-1.7589,-1.7589,-1.7589,-1.7589,-1.7589,-1.7589,-1.7589,-1.7589,-1.7589,-1.7589,-1.7589,-1.7589,-1.7589,-1.7589,-1.7589,-1.7589,-1.7589,-1.7589,-1.7582,-1.7153,-1.6624,-3.0152,-3.0088,-3.0011,-2.9689,-2.9406,-2.9184,-2.8961,-2.8736,-2.8566,-2.8339,-2.8111,-2.7857,-2.7857,-2.7962,-2.7615,-2.736,-2.7174,-2.6951,-2.6622,-2.6229,-2.6229,-2.5979,-2.5611,-2.5538,-2.5369,-2.5115,-2.4871,-2.47,-2.4529,-2.4272,-2.3841,-2.3396,-2.3222,-2.296,-2.2706,-2.2353,-2.2185,-2.2106,-2.1919,-2.183,-2.183,-2.1731,-2.1731,-2.1731,-2.1731,-2.1731,-2.1731,-2.1731,-2.1731,-2.1731,-2.1731,-2.1731,-2.1731,-2.1651,-2.1472,-2.1284,-2.0925,-2.0564,-2.0201,-2.0222,-2.0222,-1.9997,-1.9829,-1.961,-1.9644,-1.9184,-1.8858,-1.8709,-1.8101,-1.7652,-1.762,-1.7653,-1.7624,-1.7533,-1.7522,-1.7589,-1.7589,-1.7589,-1.7589,-1.7589,-1.7589,-1.7589,-1.7589,-1.7589,-1.7589,-1.7589,-1.7589,-1.7589,-1.7589,-1.7589,-1.7589,-1.7589,-1.7589,-1.7589,-1.7589,-1.7589,-1.7589,-1.7589,-1.7589,-1.7589,-1.7589,-1.7589,-1.7589,-1.7589,-1.7589,-1.7589,-1.7589,-1.7589,-1.7589,-1.7589,-1.7589,-1.7589,-1.7589,-1.716,-1.6736,-3.0011,-3.0011,-2.9779,-2.9521,-2.9184,-2.8882,-2.8578,-2.8419,-2.8099,-2.7857,-2.7708,-2.7278,-2.7208,-2.7371,-2.7115,-2.6951,-2.6787,-2.655,-2.6146,-2.5728,-2.5633,-2.538,-2.5041,-2.4956,-2.4775,-2.4605,-2.4358,-2.4186,-2.3937,-2.3754,-2.3406,-2.2969,-2.2882,-2.2618,-2.2362,-2.2087,-2.2008,-2.2008,-2.183,-2.1731,-2.1731,-2.1731,-2.1731,-2.1731,-2.1731,-2.1731,-2.1731,-2.1731,-2.1731,-2.1731,-2.1731,-2.1731,-2.1731,-2.1731,-2.1562,-2.1293,-2.0934,-2.0616,-2.0446,-2.0517,-2.0661,-2.0769,-2.0564,-2.0367,-2.0456,-2.0031,-1.9732,-1.9598,-1.8949,-1.8405,-1.8283,-1.8128,-1.7911,-1.7694,-1.7694,-1.7589,-1.7589,-1.7589,-1.7589,-1.7589,-1.7589,-1.7589,-1.7589,-1.7589,-1.7589,-1.7589,-1.7589,-1.7589,-1.7589,-1.7589,-1.7589,-1.7589,-1.7589,-1.7589,-1.7589,-1.7589,-1.7589,-1.7589,-1.7589,-1.7589,-1.7589,-1.7589,-1.7589,-1.7589,-1.7589,-1.7589,-1.7589,-1.7589,-1.7589,-1.7589,-1.7589,-1.7589,-1.749,-1.7054,-1.6736,-2.9792,-2.9779,-2.9509,-2.9197,-2.8803,-2.8578,-2.8419,-2.8179,-2.7765,-2.7429,-2.7185,-2.6962,-2.6715,-2.6373,-2.6539,-2.6396,-2.5979,-2.5895,-2.5633,-2.5211,-2.5031,-2.4786,-2.454,-2.4368,-2.411,-2.3927,-2.3841,-2.358,-2.3232,-2.3144,-2.2882,-2.2441,-2.2274,-2.2185,-2.2097,-2.183,-2.1741,-2.1741,-2.1741,-2.1651,-2.1642,-2.1642,-2.1642,-2.1642,-2.1642,-2.1642,-2.1642,-2.1642,-2.1642,-2.1642,-2.1642,-2.1642,-2.1651,-2.1651,-2.1454,-2.1105,-2.0843,-2.0746,-2.0881,-2.0917,-2.1096,-2.1489,-2.1435,-2.1321,-2.0899,-2.0743,-2.0357,-1.9776,-1.9642,-1.9339,-1.8855,-1.8443,-1.8023,-1.7911,-1.7799,-1.7694,-1.7589,-1.7589,-1.7589,-1.7589,-1.7589,-1.7589,-1.7589,-1.7589,-1.7589,-1.7589,-1.7589,-1.7589,-1.7589,-1.7589,-1.7589,-1.7589,-1.7589,-1.7589,-1.7589,-1.7589,-1.7589,-1.7589,-1.7589,-1.7589,-1.7589,-1.7589,-1.7589,-1.7589,-1.7589,-1.7589,-1.7589,-1.7589,-1.7589,-1.7589,-1.7589,-1.7483,-1.7384,-1.6948,-1.663,-2.9702,-2.9521,-2.9184,-2.887,-2.8578,-2.8419,-2.8007,-2.751,-2.7348,-2.7115,-2.6798,-2.6385,-2.6135,-2.5968,-2.579,-2.5706,-2.5622,-2.538,-2.5041,-2.4786,-2.4529,-2.4272,-2.41,-2.4013,-2.3851,-2.358,-2.3406,-2.3135,-2.2696,-2.2696,-2.253,-2.2264,-2.2185,-2.2008,-2.183,-2.1741,-2.1731,-2.1651,-2.1562,-2.1472,-2.1482,-2.1374,-2.1275,-2.1284,-2.1383,-2.1472,-2.1275,-2.1275,-2.1275,-2.1275,-2.1266,-2.1275,-2.1275,-2.1266,-2.122,-2.1169,-2.102,-2.1093,-2.1182,-2.1456,-2.1696,-2.1863,-2.192,-2.177,-2.1387,-2.1121,-2.0719,-2.03,-1.9894,-1.9576,-1.9376,-1.8855,-1.845,-1.8016,-1.7911,-1.7799,-1.7694,-1.7589,-1.7589,-1.7589,-1.7589,-1.7589,-1.7589,-1.7589,-1.7589,-1.7589,-1.7589,-1.7589,-1.7589,-1.7589,-1.7589,-1.7589,-1.7589,-1.7589,-1.7589,-1.7589,-1.7589,-1.7589,-1.7589,-1.7589,-1.7589,-1.7589,-1.7589,-1.7589,-1.7589,-1.7589,-1.7589,-1.7589,-1.7589,-1.7582,-1.7582,-1.7384,-1.7179,-1.6849,-1.653,-2.9521,-2.9184,-2.8882,-2.8566,-2.8339,-2.8007,-2.7603,-2.7185,-2.6869,-2.6622,-2.6313,-2.5884,-2.5559,-2.5391,-2.5126,-2.4946,-2.4946,-2.4775,-2.4615,-2.4282,-2.4024,-2.3851,-2.358,-2.3493,-2.3319,-2.3144,-2.2969,-2.2696,-2.2353,-2.2274,-2.2185,-2.2008,-2.2008,-2.183,-2.1651,-2.1571,-2.1553,-2.1463,-2.1293,-2.1293,-2.1195,-2.1096,-2.0997,-2.0907,-2.1105,-2.1114,-2.0997,-2.0997,-2.0997,-2.0997,-2.0997,-2.0997,-2.0997,-2.1121,-2.1216,-2.1203,-2.1351,-2.1492,-2.1559,-2.185,-2.2038,-2.2175,-2.2281,-2.2131,-2.1818,-2.142,-2.1019,-2.0617,-2.0205,-1.9887,-1.968,-1.9376,-1.8862,-1.8331,-1.8016,-1.7905,-1.7687,-1.7589,-1.7589,-1.7589,-1.7589,-1.7589,-1.7589,-1.7589,-1.7589,-1.7589,-1.7589,-1.7589,-1.7589,-1.7589,-1.7589,-1.7589,-1.7589,-1.7589,-1.7589,-1.7589,-1.7589,-1.7589,-1.7589,-1.7589,-1.7589,-1.7589,-1.7589,-1.7589,-1.7589,-1.7589,-1.7589,-1.7589,-1.7582,-1.7582,-1.7378,-1.7179,-1.6961,-1.6643,-1.6424,-2.9184,-2.8803,-2.8578,-2.8339,-2.8087,-2.751,-2.7267,-2.7021,-2.6302,-2.5979,-2.5812,-2.5369,-2.4956,-2.4625,-2.454,-2.4282,-2.4013,-2.4272,-2.4186,-2.3841,-2.359,-2.3319,-2.3047,-2.2969,-2.2706,-2.253,-2.2441,-2.2274,-2.2097,-2.2097,-2.1919,-2.1731,-2.1741,-2.1562,-2.1392,-2.1383,-2.1284,-2.1096,-2.0997,-2.0997,-2.0997,-2.0997,-2.0817,-2.0744,-2.0744,-2.0826,-2.0907,-2.0997,-2.0907,-2.0907,-2.0907,-2.0997,-2.0995,-2.1269,-2.1424,-2.136,-2.1613,-2.1777,-2.1927,-2.2021,-2.221,-2.2424,-2.2526,-2.2443,-2.203,-2.1827,-2.142,-2.0925,-2.0617,-2.0308,-1.9887,-1.968,-1.9264,-1.8527,-1.8227,-1.7905,-1.7694,-1.7589,-1.7589,-1.7589,-1.7589,-1.7589,-1.7589,-1.7589,-1.7589,-1.7589,-1.7589,-1.7589,-1.7589,-1.7589,-1.7589,-1.7589,-1.7589,-1.7589,-1.7589,-1.7589,-1.7589,-1.7589,-1.7589,-1.7589,-1.7589,-1.7589,-1.7589,-1.7589,-1.7589,-1.7589,-1.7582,-1.7582,-1.7477,-1.7483,-1.7279,-1.7073,-1.6749,-1.6424,-1.6211,-2.8803,-2.8578,-2.8339,-2.8007,-2.751,-2.7267,-2.6857,-2.6302,-2.5979,-2.5644,-2.5211,-2.4871,-2.454,-2.4282,-2.411,-2.3841,-2.359,-2.358,-2.3406,-2.3319,-2.3144,-2.2882,-2.2618,-2.253,-2.2441,-2.2274,-2.2185,-2.2087,-2.183,-2.183,-2.175,-2.1571,-2.1482,-2.1383,-2.1096,-2.1096,-2.1087,-2.0988,-2.0826,-2.0826,-2.0736,-2.0645,-2.0464,-2.0473,-2.0382,-2.0464,-2.0555,-2.0555,-2.0555,-2.0564,-2.0555,-2.0676,-2.0928,-2.1084,-2.1294,-2.1672,-2.1836,-2.2077,-2.2404,-2.2372,-2.2407,-2.2627,-2.2653,-2.2443,-2.2131,-2.2021,-2.1717,-2.1224,-2.0925,-2.0514,-2.0094,-1.9783,-1.9472,-1.8757,-1.8436,-1.8115,-1.7905,-1.7694,-1.7589,-1.7589,-1.7589,-1.7589,-1.7589,-1.7589,-1.7589,-1.7589,-1.7589,-1.7589,-1.7582,-1.7589,-1.7589,-1.7589,-1.7589,-1.7694,-1.7687,-1.7793,-1.7799,-1.7687,-1.7687,-1.7589,-1.7589,-1.7589,-1.7589,-1.7589,-1.7589,-1.7589,-1.7582,-1.7477,-1.7378,-1.7166,-1.6961,-1.6643,-1.6424,-1.6211,-1.6099,-2.8578,-2.8339,-2.8007,-2.7592,-2.7185,-2.6857,-2.6373,-2.5895,-2.5475,-2.5137,-2.47,-2.4368,-2.411,-2.3937,-2.3667,-2.3406,-2.3242,-2.2969,-2.2794,-2.2706,-2.2706,-2.253,-2.2264,-2.2176,-2.2087,-2.1998,-2.1919,-2.182,-2.1562,-2.1571,-2.1472,-2.1293,-2.1293,-2.1105,-2.0916,-2.0907,-2.0817,-2.0736,-2.0654,-2.0564,-2.0564,-2.0382,-2.0292,-2.0292,-2.0292,-2.036,-2.0489,-2.0506,-2.0437,-2.036,-2.042,-2.0694,-2.1045,-2.1225,-2.1508,-2.1893,-2.2141,-2.2312,-2.2619,-2.2627,-2.2653,-2.2653,-2.2653,-2.2544,-2.2333,-2.2232,-2.1928,-2.1522,-2.1224,-2.0814,-2.0189,-1.9983,-1.9576,-1.9078,-1.8646,-1.822,-1.7911,-1.7694,-1.7582,-1.7589,-1.7589,-1.7589,-1.7589,-1.7589,-1.7589,-1.7589,-1.7589,-1.7694,-1.7687,-1.7793,-1.7799,-1.7799,-1.801,-1.8003,-1.7898,-1.7898,-1.7905,-1.7898,-1.7793,-1.7687,-1.7589,-1.7589,-1.7589,-1.7589,-1.7589,-1.7483,-1.7477,-1.7378,-1.7173,-1.6855,-1.6643,-1.643,-1.6318,-1.6105,-1.5998,-2.8339,-2.8087,-2.7429,-2.7185,-2.6951,-2.6302,-2.5895,-2.5644,-2.4967,-2.454,-2.4358,-2.3927,-2.3667,-2.3416,-2.3144,-2.2969,-2.2794,-2.253,-2.2353,-2.2274,-2.2264,-2.2264,-2.2097,-2.183,-2.1741,-2.1741,-2.1651,-2.1562,-2.1392,-2.1392,-2.1293,-2.1006,-2.1006,-2.0907,-2.0744,-2.0654,-2.0555,-2.0382,-2.0335,-2.036,-2.036,-2.0412,-2.0412,-2.042,-2.0446,-2.0591,-2.0848,-2.0891,-2.0737,-2.0472,-2.0746,-2.1071,-2.143,-2.1799,-2.1944,-2.2064,-2.2364,-2.2584,-2.2644,-2.2653,-2.2653,-2.2653,-2.2653,-2.2653,-2.2552,-2.2333,-2.203,-2.1717,-2.142,-2.1019,-2.0395,-2.0086,-1.9776,-1.9272,-1.8743,-1.8213,-1.7694,-1.7589,-1.7589,-1.7589,-1.7589,-1.7589,-1.7589,-1.7589,-1.7694,-1.7694,-1.7694,-1.7905,-1.7905,-1.801,-1.8115,-1.822,-1.822,-1.8213,-1.8108,-1.8108,-1.8115,-1.8108,-1.8003,-1.7898,-1.7694,-1.7694,-1.7589,-1.7589,-1.7589,-1.7378,-1.7272,-1.7173,-1.6961,-1.6643,-1.6537,-1.6324,-1.6217,-1.5998,-1.5891,-2.7938,-2.7429,-2.7267,-2.6869,-2.6302,-2.5979,-2.5475,-2.4882,-2.4625,-2.4196,-2.3764,-2.3406,-2.3232,-2.2979,-2.2706,-2.253,-2.2441,-2.2264,-2.2176,-2.2097,-2.1909,-2.1909,-2.1731,-2.1562,-2.1482,-2.1472,-2.1275,-2.1177,-2.1096,-2.1096,-2.1015,-2.0835,-2.0736,-2.0654,-2.0473,-2.0382,-2.0382,-2.0343,-2.06,-2.0711,-2.0763,-2.0968,-2.1114,-2.1114,-2.1088,-2.1148,-2.1259,-2.1086,-2.1052,-2.1139,-2.1199,-2.1448,-2.1799,-2.1961,-2.2124,-2.2355,-2.2466,-2.2653,-2.2653,-2.2653,-2.2653,-2.2653,-2.2653,-2.2653,-2.2544,-2.2544,-2.2232,-2.1827,-2.1623,-2.1224,-2.0506,-2.0189,-1.9783,-1.9071,-1.8639,-1.8318,-1.801,-1.7694,-1.7589,-1.7589,-1.7589,-1.7694,-1.7694,-1.7799,-1.7911,-1.7905,-1.801,-1.8213,-1.822,-1.8331,-1.8429,-1.8325,-1.8429,-1.8429,-1.8422,-1.8422,-1.8318,-1.8318,-1.8213,-1.8108,-1.7898,-1.7687,-1.7694,-1.7589,-1.7384,-1.7279,-1.7067,-1.6861,-1.6643,-1.6424,-1.6211,-1.6105,-1.5998,-1.5885,-1.5885,-2.751,-2.7185,-2.6787,-2.6385,-2.5895,-2.5475,-2.4967,-2.454,-2.4196,-2.3841,-2.3319,-2.3067,-2.2882,-2.2618,-2.2353,-2.2264,-2.2274,-2.2008,-2.1928,-2.1741,-2.1544,-2.1463,-2.1472,-2.1383,-2.1195,-2.1195,-2.1087,-2.0997,-2.0907,-2.0916,-2.0736,-2.0564,-2.0564,-2.0473,-2.0292,-2.0292,-2.0386,-2.054,-2.0788,-2.0934,-2.1114,-2.1293,-2.1283,-2.1213,-2.1222,-2.1272,-2.124,-2.131,-2.1335,-2.1315,-2.129,-2.1539,-2.1869,-2.2019,-2.213,-2.2434,-2.2544,-2.2653,-2.2653,-2.2653,-2.2653,-2.2653,-2.2653,-2.2653,-2.2653,-2.2653,-2.2333,-2.1827,-2.1725,-2.1326,-2.0617,-2.0197,-1.9687,-1.9175,-1.8757,-1.8534,-1.8227,-1.8003,-1.7898,-1.7898,-1.7898,-1.7898,-1.7905,-1.8115,-1.8122,-1.822,-1.822,-1.8429,-1.8534,-1.8541,-1.8646,-1.8743,-1.8743,-1.8848,-1.8848,-1.8848,-1.8743,-1.8743,-1.8422,-1.8318,-1.8115,-1.7799,-1.7687,-1.7589,-1.7384,-1.7173,-1.6855,-1.6643,-1.643,-1.6211,-1.5998,-1.5891,-1.5885,-1.5885,-1.5885,-2.7103,-2.7021,-2.6218,-2.5822,-2.5644,-2.4871,-2.4454,-2.4272,-2.3754,-2.3319,-2.3057,-2.2803,-2.253,-2.2353,-2.2176,-2.2008,-2.2008,-2.1741,-2.1562,-2.1383,-2.1186,-2.1096,-2.1203,-2.1105,-2.1006,-2.0997,-2.0898,-2.0817,-2.0645,-2.0654,-2.0564,-2.0382,-2.0292,-2.0292,-2.0292,-2.0292,-2.0506,-2.0788,-2.0942,-2.1174,-2.1343,-2.1497,-2.1476,-2.1282,-2.1184,-2.1203,-2.1255,-2.1377,-2.1443,-2.118,-2.1163,-2.1412,-2.1676,-2.1912,-2.2013,-2.2123,-2.2333,-2.2443,-2.2544,-2.2544,-2.2544,-2.2544,-2.2653,-2.2653,-2.2653,-2.2544,-2.2342,-2.1725,-2.1725,-2.1326,-2.0624,-2.0094,-1.968,-1.9376,-1.9078,-1.8757,-1.8534,-1.8422,-1.8422,-1.8422,-1.8422,-1.8422,-1.8422,-1.8422,-1.8422,-1.8436,-1.8646,-1.8848,-1.8952,-1.9063,-1.9168,-1.9368,-1.9368,-1.9368,-1.9376,-1.9376,-1.9272,-1.9168,-1.8639,-1.8318,-1.8115,-1.7905,-1.7687,-1.7477,-1.7166,-1.6955,-1.6636,-1.6424,-1.6211,-1.6105,-1.5885,-1.5885,-1.5885,-1.5885,-1.5885,-2.6787,-2.6146,-2.5979,-2.5475,-2.4796,-2.454,-2.4196,-2.3667,-2.3319,-2.3057,-2.2803,-2.2451,-2.2274,-2.2087,-2.1919,-2.175,-2.1571,-2.1482,-2.1293,-2.1087,-2.0835,-2.0835,-2.0835,-2.0736,-2.0744,-2.0736,-2.0555,-2.0473,-2.0382,-2.0382,-2.0382,-2.0292,-2.0292,-2.0292,-2.0292,-2.03,-2.0489,-2.0857,-2.1139,-2.1377,-2.1556,-2.171,-2.172,-2.1528,-2.1436,-2.1402,-2.129,-2.1379,-2.1285,-2.1135,-2.1306,-2.1525,-2.1599,-2.1725,-2.1827,-2.1827,-2.1827,-2.203,-2.2123,-2.2232,-2.2342,-2.2544,-2.2552,-2.2653,-2.2653,-2.2653,-2.2342,-2.1827,-2.1725,-2.1326,-2.0617,-2.0197,-1.9879,-1.9576,-1.9376,-1.9175,-1.9063,-1.8639,-1.8527,-1.8422,-1.8422,-1.8422,-1.8422,-1.8757,-1.8757,-1.8862,-1.8966,-1.9272,-1.9376,-1.948,-1.9576,-1.9783,-1.9783,-1.9783,-1.968,-1.9576,-1.948,-1.9272,-1.8743,-1.8422,-1.822,-1.7905,-1.7582,-1.7265,-1.6948,-1.6736,-1.6524,-1.6205,-1.5998,-1.5885,-1.5885,-1.5885,-1.5885,-1.5885,-1.5885,-2.6302,-2.5895,-2.5391,-2.4967,-2.4454,-2.4196,-2.3754,-2.3319,-2.3057,-2.2794,-2.2451,-2.2195,-2.2008,-2.1741,-2.1651,-2.1482,-2.1203,-2.1114,-2.1015,-2.0826,-2.0654,-2.0473,-2.0473,-2.0473,-2.0473,-2.0464,-2.0382,-2.0292,-2.0292,-2.0292,-2.0292,-2.0292,-2.0292,-2.0292,-2.0292,-2.0292,-2.0525,-2.0874,-2.112,-2.1379,-2.1603,-2.182,-2.1835,-2.1522,-2.142,-2.1216,-2.1113,-2.0917,-2.0822,-2.0814,-2.0909,-2.1105,-2.1326,-2.142,-2.1522,-2.1522,-2.1623,-2.1725,-2.192,-2.1928,-2.1928,-2.2139,-2.2342,-2.2333,-2.2443,-2.2443,-2.2342,-2.1827,-2.1623,-2.1428,-2.0624,-2.0411,-2.0101,-1.9783,-1.9576,-1.948,-1.9272,-1.8959,-1.8848,-1.8848,-1.8848,-1.8848,-1.8959,-1.9071,-1.9175,-1.9272,-1.9472,-1.968,-1.9783,-1.9879,-1.9879,-1.9983,-2.0086,-2.0086,-1.9983,-1.9879,-1.968,-1.9368,-1.884,-1.8527,-1.8318,-1.7898,-1.7589,-1.7265,-1.6955,-1.6636,-1.6424,-1.6105,-1.5885,-1.5885,-1.5885,-1.5885,-1.5885,-1.5885,-1.5885,-2.5812,-2.5654,-2.4796,-2.4454,-2.4282,-2.3667,-2.3329,-2.3057,-2.2794,-2.2451,-2.2097,-2.2008,-2.1741,-2.1383,-2.1383,-2.1195,-2.1006,-2.0736,-2.0645,-2.0555,-2.0464,-2.0374,-2.0292,-2.0292,-2.0292,-2.0292,-2.0292,-2.0292,-2.0292,-2.0292,-2.0292,-2.0292,-2.0201,-2.0201,-2.0201,-2.0235,-2.0365,-2.0895,-2.0925,-2.1178,-2.156,-2.1615,-2.153,-2.1121,-2.1019,-2.0814,-2.0712,-2.0609,-2.0411,-2.0411,-2.0189,-2.0395,-2.0704,-2.0917,-2.1121,-2.1113,-2.1318,-2.142,-2.1522,-2.1632,-2.1632,-2.1725,-2.192,-2.2021,-2.2131,-2.2241,-2.2038,-2.1835,-2.1522,-2.1224,-2.0624,-2.0522,-2.0308,-1.999,-1.9783,-1.968,-1.9472,-1.9376,-1.9368,-1.9264,-1.9264,-1.9272,-1.9368,-1.9583,-1.968,-1.9783,-1.9983,-2.0189,-2.0189,-2.0189,-2.0189,-2.0292,-2.0395,-2.03,-2.0197,-2.0078,-1.9776,-1.9465,-1.8945,-1.8632,-1.8318,-1.7898,-1.7477,-1.7166,-1.6849,-1.653,-1.6318,-1.5998,-1.5891,-1.5885,-1.5885,-1.5885,-1.5885,-1.5885,-1.5891,-2.5486,-2.47,-2.4529,-2.4196,-2.3677,-2.3319,-2.3057,-2.2794,-2.2362,-2.2097,-2.1741,-2.1571,-2.1374,-2.1096,-2.1096,-2.0916,-2.0744,-2.0564,-2.0382,-2.0382,-2.0283,-2.0292,-2.0292,-2.0292,-2.0292,-2.0292,-2.0292,-2.0201,-2.0292,-2.0292,-2.0201,-2.0201,-2.011,-1.9928,-1.9936,-1.9887,-2.012,-2.0649,-2.0774,-2.0925,-2.1257,-2.1318,-2.1121,-2.0712,-2.0617,-2.0506,-2.0292,-2.0189,-2.0189,-2.0181,-2.0086,-2.0086,-2.0189,-2.0189,-2.0292,-2.0498,-2.0609,-2.0814,-2.1019,-2.1216,-2.1428,-2.1632,-2.1725,-2.1725,-2.1827,-2.1827,-2.1725,-2.153,-2.1224,-2.1019,-2.0822,-2.0617,-2.0514,-2.03,-2.0197,-1.9983,-1.9983,-1.9879,-1.9879,-1.968,-1.968,-1.968,-1.9783,-1.9887,-1.999,-2.0094,-2.0189,-2.0403,-2.0403,-2.0506,-2.0514,-2.0609,-2.0814,-2.0617,-2.0514,-2.0189,-1.9983,-1.9569,-1.9153,-1.8527,-1.8318,-1.7898,-1.7477,-1.7054,-1.6736,-1.6524,-1.6205,-1.5998,-1.5891,-1.5885,-1.5885,-1.5885,-1.5785,-1.5785,-1.5684,-2.4882,-2.4454,-2.4013,-2.358,-2.3232,-2.2872,-2.2608,-2.2451,-2.2008,-2.1741,-2.1562,-2.1293,-2.1105,-2.0916,-2.0826,-2.0744,-2.0473,-2.0382,-2.0292,-2.0292,-2.0292,-2.0292,-2.0292,-2.0201,-2.011,-2.0019,-2.0027,-2.0027,-2.0119,-2.011,-2.0027,-1.9936,-1.9754,-1.9754,-1.9762,-1.9687,-1.9906,-2.0311,-2.0508,-2.0621,-2.1049,-2.1019,-2.0719,-2.0514,-2.03,-2.0189,-2.0086,-1.9783,-1.968,-1.9576,-1.9368,-1.9257,-1.9257,-1.9354,-1.945,-1.9983,-2.0197,-2.03,-2.0506,-2.0712,-2.0925,-2.1019,-2.1318,-2.1522,-2.1522,-2.1623,-2.1522,-2.1326,-2.1121,-2.0925,-2.0925,-2.0719,-2.0617,-2.0522,-2.0403,-2.0292,-2.0181,-2.0086,-2.0086,-2.0094,-1.999,-1.999,-1.999,-2.0197,-2.03,-2.0403,-2.0395,-2.0506,-2.0719,-2.0719,-2.0719,-2.0822,-2.0917,-2.0814,-2.0617,-2.0292,-2.0078,-1.9672,-1.9153,-1.8632,-1.8213,-1.7793,-1.7364,-1.6836,-1.6624,-1.6418,-1.6205,-1.5885,-1.5885,-1.5885,-1.5885,-1.5891,-1.5684,-1.569,-1.5476,-2.4368,-2.4196,-2.3406,-2.3047,-2.2872,-2.2432,-2.2176,-2.2008,-2.1731,-2.1472,-2.1203,-2.1006,-2.0826,-2.0645,-2.0555,-2.0473,-2.0292,-2.0292,-2.0283,-2.0201,-2.0201,-2.0201,-2.011,-1.9936,-1.9845,-1.9845,-1.9762,-1.9671,-1.9845,-1.9845,-1.9762,-1.9671,-1.9587,-1.9487,-1.9487,-1.951,-1.9825,-2.007,-2.0281,-2.0428,-2.0664,-2.0617,-2.0411,-2.0308,-2.0086,-1.9879,-1.968,-1.9368,-1.9168,-1.8952,-1.8743,-1.8422,-1.8422,-1.8422,-1.884,-1.9569,-1.9872,-1.9879,-1.999,-2.03,-2.0506,-2.0506,-2.0814,-2.1011,-2.1224,-2.1224,-2.1428,-2.1224,-2.1019,-2.0925,-2.0925,-2.0925,-2.0822,-2.0617,-2.0617,-2.0506,-2.0395,-2.0395,-2.0395,-2.0395,-2.0292,-2.0292,-2.0403,-2.0403,-2.0617,-2.0617,-2.0609,-2.0712,-2.0822,-2.0822,-2.0822,-2.0822,-2.0917,-2.0814,-2.0609,-2.0292,-2.0078,-1.9776,-1.9153,-1.8527,-1.8115,-1.7694,-1.7265,-1.673,-1.6524,-1.6424,-1.6105,-1.5891,-1.5785,-1.5785,-1.5785,-1.5678,-1.547,-1.5363,-1.5256,-2.4013,-2.3232,-2.3144,-2.2872,-2.2441,-2.1998,-2.1741,-2.1642,-2.1275,-2.1006,-2.0835,-2.0736,-2.0555,-2.0382,-2.0382,-2.0292,-2.0292,-2.0201,-2.011,-1.9928,-1.9936,-1.9845,-1.9671,-1.9671,-1.9579,-1.9579,-1.9579,-1.9587,-1.9579,-1.9579,-1.9579,-1.9487,-1.9296,-1.9279,-1.922,-1.9378,-1.959,-1.9949,-2.017,-2.0427,-2.0436,-2.03,-1.999,-1.9783,-1.9576,-1.9272,-1.9063,-1.875,-1.8534,-1.8527,-1.8422,-1.8422,-1.8422,-1.8422,-1.8422,-1.8736,-1.9056,-1.9376,-1.9472,-1.9783,-2.0094,-2.0094,-2.0292,-2.0395,-2.0609,-2.0814,-2.0917,-2.0917,-2.0925,-2.0822,-2.0814,-2.0917,-2.0925,-2.0822,-2.0822,-2.0822,-2.0712,-2.0601,-2.0712,-2.0712,-2.0609,-2.0712,-2.0712,-2.0822,-2.0822,-2.0822,-2.0925,-2.0925,-2.0925,-2.0925,-2.0925,-2.0925,-2.0822,-2.0712,-2.0609,-2.0292,-1.9983,-1.9776,-1.9153,-1.8318,-1.801,-1.7589,-1.7166,-1.6736,-1.653,-1.6324,-1.5998,-1.5791,-1.5791,-1.5684,-1.5577,-1.5363,-1.5143,-1.5041,-1.4934,-2.3093,-2.2891,-2.253,-2.2176,-2.1998,-2.1454,-2.1275,-2.1275,-2.1006,-2.0826,-2.0654,-2.0555,-2.0283,-2.011,-2.011,-2.0019,-1.9936,-1.9936,-1.9845,-1.9762,-1.9762,-1.9671,-1.9579,-1.9479,-1.9379,-1.9296,-1.9204,-1.9112,-1.9204,-1.9296,-1.9296,-1.9112,-1.9012,-1.9004,-1.896,-1.9083,-1.9327,-1.963,-1.9961,-2.0233,-2.0158,-1.9887,-1.9576,-1.948,-1.9056,-1.8743,-1.8534,-1.8331,-1.8115,-1.8003,-1.7793,-1.7582,-1.747,-1.747,-1.747,-1.7694,-1.8115,-1.8422,-1.884,-1.9368,-1.9576,-1.9776,-1.9879,-2.0189,-2.03,-2.0403,-2.0498,-2.0498,-2.0609,-2.0617,-2.0712,-2.0822,-2.0925,-2.0925,-2.0925,-2.0925,-2.0925,-2.0925,-2.0814,-2.0925,-2.0925,-2.0925,-2.0925,-2.0925,-2.0925,-2.0925,-2.0925,-2.0925,-2.0925,-2.0925,-2.0925,-2.0925,-2.0719,-2.0617,-2.0411,-2.0197,-1.9783,-1.9472,-1.8945,-1.8318,-1.7793,-1.7371,-1.6948,-1.6524,-1.6318,-1.5998,-1.5791,-1.5684,-1.5583,-1.5476,-1.5374,-1.5041,-1.4821,-1.4821,-1.4713,-2.1988,-2.2211,-2.1872,-2.1642,-2.1463,-2.1087,-2.0916,-2.0916,-2.0654,-2.0564,-2.0473,-2.0209,-2.0027,-1.9845,-1.9845,-1.9762,-1.9579,-1.9587,-1.9579,-1.9496,-1.9487,-1.9487,-1.9296,-1.9196,-1.9104,-1.9104,-1.902,-1.892,-1.892,-1.892,-1.892,-1.8827,-1.8743,-1.8743,-1.8761,-1.8917,-1.9248,-1.9545,-1.9732,-1.9842,-1.9665,-1.9264,-1.916,-1.8848,-1.8527,-1.8213,-1.8108,-1.7799,-1.7582,-1.7371,-1.7265,-1.7054,-1.6836,-1.6829,-1.6942,-1.7166,-1.7371,-1.7582,-1.8003,-1.8527,-1.8952,-1.9264,-1.9465,-1.9665,-1.9879,-1.9879,-2.0086,-2.0181,-2.03,-2.0411,-2.0411,-2.0617,-2.0719,-2.0822,-2.0822,-2.0925,-2.0925,-2.0925,-2.0925,-2.0925,-2.0925,-2.0925,-2.0925,-2.0925,-2.0925,-2.0925,-2.0925,-2.0925,-2.0925,-2.0925,-2.0822,-2.0822,-2.0617,-2.0411,-2.0101,-1.9894,-1.9583,-1.916,-1.8639,-1.8108,-1.7687,-1.716,-1.6636,-1.6318,-1.5998,-1.5791,-1.5583,-1.5482,-1.5482,-1.5154,-1.4934,-1.4826,-1.4606,-1.4498,-1.4504,-2.0625,-2.0694,-2.1398,-2.1445,-2.1087,-2.0826,-2.0736,-2.0654,-2.0382,-2.0201,-2.0019,-1.9754,-1.9679,-1.9587,-1.9579,-1.9579,-1.9587,-1.9587,-1.9396,-1.9288,-1.9188,-1.9104,-1.9012,-1.892,-1.8827,-1.8827,-1.8735,-1.8735,-1.8735,-1.8651,-1.8651,-1.8743,-1.8558,-1.8566,-1.8613,-1.8854,-1.9124,-1.9343,-1.9435,-1.9146,-1.8938,-1.8632,-1.8422,-1.8318,-1.8003,-1.7687,-1.7582,-1.716,-1.6948,-1.6842,-1.6736,-1.6736,-1.6624,-1.6518,-1.663,-1.6736,-1.6736,-1.6948,-1.7259,-1.7891,-1.8422,-1.8527,-1.8729,-1.9146,-1.9257,-1.9576,-1.9776,-1.9872,-1.999,-2.0086,-2.0189,-2.03,-2.0506,-2.0609,-2.0712,-2.0822,-2.0822,-2.0917,-2.0917,-2.0925,-2.0925,-2.0925,-2.0925,-2.0925,-2.0925,-2.0925,-2.0917,-2.0917,-2.0814,-2.0814,-2.0719,-2.0617,-2.0522,-2.0205,-1.9791,-1.948,-1.9168,-1.8743,-1.822,-1.7898,-1.7477,-1.6948,-1.6424,-1.6111,-1.5897,-1.569,-1.5482,-1.5261,-1.5148,-1.4821,-1.4606,-1.4504,-1.4401,-1.4401,-1.4293,-1.9711,-1.9679,-2.0219,-2.0606,-2.0826,-2.0382,-2.0201,-2.0201,-1.9936,-1.9845,-1.9762,-1.9671,-1.9487,-1.9387,-1.9379,-1.9296,-1.9112,-1.9112,-1.9012,-1.9012,-1.892,-1.892,-1.8827,-1.8827,-1.8827,-1.8735,-1.8651,-1.8566,-1.8566,-1.8373,-1.8272,-1.8272,-1.8202,-1.8442,-1.8529,-1.8716,-1.8883,-1.8801,-1.8848,-1.8632,-1.8325,-1.8003,-1.7793,-1.7595,-1.7265,-1.7054,-1.7047,-1.6836,-1.663,-1.6524,-1.6424,-1.6311,-1.6205,-1.6205,-1.6311,-1.6418,-1.6424,-1.6524,-1.673,-1.747,-1.8003,-1.8422,-1.8527,-1.8632,-1.8743,-1.884,-1.9063,-1.9272,-1.9583,-1.9672,-1.9887,-2.0086,-2.0292,-2.0292,-2.0403,-2.0617,-2.0719,-2.0712,-2.0814,-2.0814,-2.0822,-2.0925,-2.0925,-2.0925,-2.0925,-2.0925,-2.0917,-2.0814,-2.0712,-2.0609,-2.0506,-2.0308,-2.0101,-1.9894,-1.9472,-1.9168,-1.8855,-1.8331,-1.7799,-1.7378,-1.7054,-1.6743,-1.6217,-1.601,-1.5583,-1.5369,-1.5154,-1.5041,-1.4821,-1.4606,-1.4396,-1.4293,-1.4191,-1.4191,-1.4196,-1.9002,-1.8863,-1.9338,-1.9843,-2.0275,-1.9936,-1.9845,-1.9754,-1.9679,-1.9487,-1.9487,-1.9396,-1.9296,-1.9104,-1.9096,-1.9012,-1.892,-1.8827,-1.8827,-1.8827,-1.8743,-1.8743,-1.8651,-1.8643,-1.855,-1.8558,-1.8465,-1.8381,-1.8373,-1.7994,-1.79,-1.783,-1.7819,-1.8013,-1.826,-1.8438,-1.8416,-1.8241,-1.8115,-1.8003,-1.7694,-1.7477,-1.7265,-1.7067,-1.6743,-1.6636,-1.653,-1.6424,-1.6211,-1.6004,-1.5897,-1.5785,-1.5785,-1.5678,-1.5897,-1.6004,-1.6111,-1.6211,-1.6524,-1.6942,-1.7477,-1.7681,-1.7786,-1.7891,-1.8108,-1.8213,-1.8422,-1.875,-1.8959,-1.9168,-1.9472,-1.968,-1.9879,-1.999,-2.0189,-2.0403,-2.0514,-2.0506,-2.0609,-2.0719,-2.0822,-2.0917,-2.0822,-2.0822,-2.0822,-2.0822,-2.0719,-2.0719,-2.0617,-2.0411,-2.0197,-1.999,-1.9687,-1.9376,-1.9056,-1.8639,-1.822,-1.7905,-1.7371,-1.6849,-1.653,-1.6217,-1.6004,-1.5577,-1.5256,-1.5041,-1.4826,-1.4719,-1.4611,-1.4504,-1.4293,-1.4191,-1.4191,-1.4196,-1.4196,-1.8421,-1.8112,-1.8712,-1.9216,-1.9621,-1.9587,-1.9587,-1.9579,-1.9587,-1.9396,-1.9196,-1.9012,-1.8827,-1.8827,-1.8827,-1.8735,-1.8735,-1.8735,-1.8735,-1.8651,-1.8558,-1.8481,-1.8381,-1.8373,-1.8272,-1.8179,-1.8094,-1.8009,-1.8087,-1.752,-1.7333,-1.7261,-1.7237,-1.7376,-1.78,-1.7967,-1.7908,-1.764,-1.7582,-1.7265,-1.6948,-1.6736,-1.6736,-1.6418,-1.6318,-1.6105,-1.6105,-1.5791,-1.569,-1.5583,-1.5363,-1.525,-1.525,-1.5369,-1.5476,-1.5583,-1.5791,-1.5891,-1.5998,-1.6418,-1.673,-1.6942,-1.7147,-1.7153,-1.747,-1.7681,-1.7793,-1.8227,-1.8429,-1.8534,-1.8855,-1.9175,-1.9368,-1.9569,-1.9776,-2.0094,-2.0094,-2.03,-2.0403,-2.0506,-2.0712,-2.0814,-2.0712,-2.0719,-2.0719,-2.0617,-2.0624,-2.0522,-2.0308,-2.0101,-1.9783,-1.9472,-1.916,-1.8848,-1.8534,-1.8003,-1.7582,-1.7371,-1.7054,-1.6424,-1.6004,-1.5797,-1.547,-1.5041,-1.4934,-1.4821,-1.4611,-1.4401,-1.4401,-1.4293,-1.4299,-1.4191,-1.4196,-1.4191,-1.4191,-1.7788,-1.7801,-1.8197,-1.8515,-1.8765,-1.9198,-1.9288,-1.9288,-1.9112,-1.902,-1.892,-1.8743,-1.8566,-1.8566,-1.8458,-1.8365,-1.8365,-1.8365,-1.8365,-1.8365,-1.828,-1.828,-1.8187,-1.8102,-1.8001,-1.8001,-1.7822,-1.7542,-1.752,-1.7052,-1.6864,-1.6781,-1.6821,-1.7045,-1.7291,-1.7351,-1.7312,-1.7041,-1.6948,-1.6736,-1.6205,-1.6099,-1.5992,-1.5672,-1.5571,-1.5571,-1.5464,-1.5256,-1.5154,-1.5148,-1.4928,-1.4934,-1.4934,-1.5154,-1.5148,-1.5148,-1.525,-1.525,-1.5357,-1.5571,-1.5992,-1.6305,-1.6624,-1.673,-1.6948,-1.7047,-1.7265,-1.7589,-1.7799,-1.801,-1.8233,-1.8541,-1.8736,-1.884,-1.9153,-1.9472,-1.9687,-1.999,-2.0189,-2.0189,-2.0395,-2.0395,-2.0395,-2.03,-2.0308,-2.0197,-2.0094,-1.9998,-1.9791,-1.9583,-1.9376,-1.8848,-1.8534,-1.822,-1.7898,-1.7477,-1.7054,-1.6736,-1.6524,-1.6105,-1.5684,-1.5369,-1.5041,-1.4826,-1.4713,-1.4498,-1.4396,-1.4293,-1.4191,-1.4191,-1.4083,-1.4083,-1.4083,-1.4083,-1.4083,-1.7113,-1.7111,-1.7461,-1.7715,-1.7982,-1.8629,-1.892,-1.8819,-1.8643,-1.855,-1.855,-1.8373,-1.8381,-1.828,-1.8179,-1.8087,-1.8087,-1.8087,-1.8087,-1.8087,-1.7893,-1.78,-1.7815,-1.7636,-1.7441,-1.7441,-1.7355,-1.7073,-1.7052,-1.6581,-1.6348,-1.6343,-1.6301,-1.6362,-1.6633,-1.674,-1.673,-1.6524,-1.6311,-1.6099,-1.5678,-1.5571,-1.5351,-1.5143,-1.5041,-1.5035,-1.5035,-1.4928,-1.4821,-1.4821,-1.4826,-1.4724,-1.4719,-1.4826,-1.4821,-1.4821,-1.4928,-1.5035,-1.5035,-1.5035,-1.5464,-1.5885,-1.6205,-1.6424,-1.653,-1.663,-1.6743,-1.6955,-1.716,-1.7483,-1.7701,-1.801,-1.8213,-1.8318,-1.8534,-1.8959,-1.9056,-1.9465,-1.9783,-1.9783,-1.9983,-1.9983,-1.9983,-1.9887,-1.9791,-1.968,-1.9672,-1.9368,-1.9272,-1.9063,-1.8855,-1.8325,-1.7898,-1.7687,-1.7371,-1.6849,-1.653,-1.6211,-1.5891,-1.5571,-1.525,-1.4934,-1.4719,-1.4498,-1.4396,-1.4293,-1.4186,-1.4083,-1.3975,-1.3975,-1.3867,-1.3867,-1.3975,-1.3975,-1.3867,-1.6492,-1.6141,-1.6453,-1.6883,-1.7251,-1.8094,-1.828,-1.8079,-1.8079,-1.8079,-1.8087,-1.8087,-1.7994,-1.7994,-1.7994,-1.79,-1.79,-1.79,-1.79,-1.7807,-1.7426,-1.7333,-1.7153,-1.6965,-1.6871,-1.6683,-1.6588,-1.6494,-1.6494,-1.6007,-1.5784,-1.5782,-1.5673,-1.5762,-1.597,-1.5968,-1.5998,-1.5885,-1.5678,-1.5458,-1.5143,-1.5035,-1.5035,-1.4826,-1.4826,-1.4826,-1.4826,-1.4719,-1.4611,-1.4504,-1.4407,-1.4299,-1.4299,-1.4509,-1.4498,-1.4606,-1.4821,-1.4826,-1.4934,-1.4826,-1.4928,-1.525,-1.5363,-1.569,-1.6004,-1.6105,-1.6211,-1.6424,-1.663,-1.6849,-1.7173,-1.7378,-1.7694,-1.7905,-1.8115,-1.8325,-1.8534,-1.8743,-1.9168,-1.9368,-1.9672,-1.9672,-1.9665,-1.9465,-1.916,-1.9056,-1.8945,-1.8743,-1.8541,-1.8534,-1.822,-1.7687,-1.7371,-1.716,-1.6842,-1.6318,-1.5998,-1.5678,-1.5357,-1.5035,-1.4821,-1.4611,-1.4504,-1.4401,-1.4191,-1.4083,-1.3975,-1.3753,-1.3753,-1.3645,-1.3537,-1.3537,-1.3645,-1.3537,-1.3537,-1.617,-1.6133,-1.6461,-1.6782,-1.7148,-1.7522,-1.78,-1.8079,-1.8087,-1.8087,-1.8087,-1.7707,-1.752,-1.752,-1.7145,-1.7153,-1.7059,-1.7059,-1.7059,-1.6958,-1.6864,-1.6777,-1.6777,-1.6588,-1.6494,-1.6298,-1.6109,-1.592,-1.5688,-1.5409,-1.5325,-1.5291,-1.5196,-1.5229,-1.5169,-1.5143,-1.5143,-1.525,-1.5143,-1.4928,-1.4821,-1.4713,-1.4611,-1.4509,-1.4509,-1.4509,-1.4509,-1.4401,-1.4293,-1.4299,-1.4191,-1.4196,-1.4191,-1.4299,-1.4299,-1.4293,-1.4407,-1.4407,-1.4407,-1.4407,-1.4509,-1.4713,-1.4826,-1.4934,-1.5256,-1.5464,-1.5571,-1.5891,-1.6099,-1.6318,-1.653,-1.6743,-1.6948,-1.716,-1.7477,-1.7793,-1.7898,-1.822,-1.8534,-1.8743,-1.9049,-1.9049,-1.8938,-1.8833,-1.8534,-1.8325,-1.8122,-1.801,-1.7905,-1.7793,-1.7582,-1.7054,-1.6736,-1.663,-1.6205,-1.5678,-1.5464,-1.5143,-1.4928,-1.4719,-1.4504,-1.4396,-1.4293,-1.4191,-1.397,-1.3753,-1.3537,-1.3428,-1.3428,-1.3315,-1.3315,-1.332,-1.332,-1.3212,-1.3098,-1.5756,-1.5702,-1.5797,-1.613,-1.6522,-1.687,-1.7246,-1.752,-1.752,-1.752,-1.7426,-1.7145,-1.7052,-1.6958,-1.6777,-1.6588,-1.648,-1.648,-1.6487,-1.6298,-1.6204,-1.6109,-1.6109,-1.6021,-1.5838,-1.5737,-1.5642,-1.5452,-1.5166,-1.4986,-1.4903,-1.4871,-1.4891,-1.4752,-1.4669,-1.4498,-1.4288,-1.4396,-1.4504,-1.4504,-1.4504,-1.4396,-1.4299,-1.4191,-1.4191,-1.4196,-1.4196,-1.4196,-1.4191,-1.4191,-1.4196,-1.4196,-1.4196,-1.4196,-1.4196,-1.4191,-1.4191,-1.4299,-1.4299,-1.4191,-1.4293,-1.4401,-1.4396,-1.4504,-1.4719,-1.4934,-1.5148,-1.5363,-1.5464,-1.5672,-1.5885,-1.6099,-1.6311,-1.6418,-1.6842,-1.716,-1.7477,-1.7694,-1.7898,-1.8003,-1.8108,-1.8108,-1.8108,-1.8003,-1.7905,-1.7694,-1.7378,-1.716,-1.7054,-1.7153,-1.6842,-1.6524,-1.6205,-1.5992,-1.5571,-1.5143,-1.5035,-1.4821,-1.4611,-1.4396,-1.4288,-1.418,-1.397,-1.3753,-1.364,-1.3423,-1.3315,-1.3212,-1.3103,-1.3098,-1.2989,-1.2881,-1.2881,-1.2767,-1.2767,-1.5235,-1.509,-1.4881,-1.5268,-1.5707,-1.6316,-1.6487,-1.6494,-1.6494,-1.6494,-1.6581,-1.6588,-1.6487,-1.6393,-1.6298,-1.6204,-1.6008,-1.6015,-1.5825,-1.573,-1.5534,-1.5439,-1.5255,-1.5166,-1.507,-1.5077,-1.4904,-1.4821,-1.4698,-1.4536,-1.4533,-1.4472,-1.4461,-1.4261,-1.4051,-1.3856,-1.3753,-1.3748,-1.397,-1.4078,-1.4078,-1.4083,-1.4083,-1.4083,-1.4083,-1.4083,-1.4083,-1.4083,-1.4083,-1.4083,-1.4083,-1.4083,-1.4083,-1.4083,-1.4083,-1.4083,-1.3975,-1.3975,-1.3975,-1.3975,-1.3975,-1.4083,-1.4088,-1.4083,-1.418,-1.4509,-1.4724,-1.4934,-1.5137,-1.525,-1.5464,-1.5571,-1.5785,-1.5885,-1.6205,-1.6518,-1.6736,-1.7054,-1.7371,-1.7477,-1.7477,-1.7477,-1.7477,-1.7371,-1.7265,-1.706,-1.6849,-1.6418,-1.6205,-1.6305,-1.6092,-1.5891,-1.5672,-1.5351,-1.5143,-1.4821,-1.4606,-1.4396,-1.4186,-1.4078,-1.3856,-1.3748,-1.3532,-1.3423,-1.3315,-1.3207,-1.3098,-1.2989,-1.2881,-1.2772,-1.2659,-1.2441,-1.2436,-1.255,-1.255,-1.4817,-1.4874,-1.5245,-1.545,-1.5459,-1.5858,-1.5913,-1.5724,-1.5547,-1.573,-1.6197,-1.6015,-1.5825,-1.5724,-1.5547,-1.5452,-1.5356,-1.535,-1.5166,-1.507,-1.4879,-1.4682,-1.4586,-1.449,-1.4394,-1.4202,-1.413,-1.4146,-1.4091,-1.4066,-1.3959,-1.3952,-1.3842,-1.3635,-1.3527,-1.3428,-1.332,-1.3207,-1.3315,-1.3537,-1.3537,-1.3532,-1.3532,-1.3537,-1.3537,-1.3537,-1.3537,-1.3537,-1.3537,-1.3532,-1.3537,-1.3537,-1.3532,-1.3537,-1.3537,-1.3532,-1.3645,-1.3645,-1.3645,-1.365,-1.365,-1.3537,-1.3537,-1.3537,-1.3753,-1.4083,-1.4401,-1.4606,-1.4708,-1.4821,-1.4934,-1.5143,-1.525,-1.5458,-1.5565,-1.5779,-1.6099,-1.6418,-1.6736,-1.6842,-1.6842,-1.6842,-1.6842,-1.6736,-1.653,-1.6424,-1.6211,-1.5891,-1.5571,-1.5458,-1.5351,-1.5137,-1.503,-1.4708,-1.4606,-1.4396,-1.4072,-1.3964,-1.3753,-1.364,-1.3423,-1.331,-1.3202,-1.3098,-1.2989,-1.2881,-1.2767,-1.2659,-1.255,-1.255,-1.255,-1.2441,-1.2436,-1.2436,-1.2436,-1.4405,-1.4304,-1.4784,-1.4937,-1.487,-1.5204,-1.5255,-1.5064,-1.4885,-1.4873,-1.5242,-1.5248,-1.5255,-1.5057,-1.4879,-1.4688,-1.4592,-1.4586,-1.4394,-1.4208,-1.4214,-1.4118,-1.4016,-1.3919,-1.3817,-1.363,-1.347,-1.3342,-1.3505,-1.3479,-1.3414,-1.3534,-1.3378,-1.3207,-1.3207,-1.3098,-1.3098,-1.2881,-1.2881,-1.2881,-1.2989,-1.3093,-1.3315,-1.332,-1.332,-1.332,-1.332,-1.332,-1.332,-1.3315,-1.332,-1.332,-1.332,-1.332,-1.332,-1.332,-1.332,-1.332,-1.332,-1.332,-1.3212,-1.3212,-1.332,-1.3315,-1.3423,-1.3748,-1.3862,-1.4067,-1.418,-1.418,-1.4504,-1.4719,-1.4821,-1.4922,-1.5143,-1.5357,-1.5464,-1.5672,-1.5779,-1.5779,-1.5885,-1.5885,-1.5779,-1.5779,-1.5672,-1.5678,-1.5464,-1.5351,-1.5035,-1.4606,-1.4606,-1.4498,-1.4385,-1.4283,-1.4072,-1.3856,-1.364,-1.3428,-1.332,-1.3315,-1.3202,-1.2985,-1.2876,-1.2772,-1.2663,-1.2663,-1.2441,-1.2441,-1.2436,-1.2441,-1.2441,-1.2436,-1.2436,-1.2436,-1.2436,-1.3828,-1.3651,-1.3996,-1.4128,-1.4126,-1.4452,-1.4592,-1.4496,-1.4298,-1.401,-1.3902,-1.4202,-1.44,-1.4496,-1.4298,-1.401,-1.3913,-1.3817,-1.3624,-1.3437,-1.3346,-1.3244,-1.3244,-1.3249,-1.3083,-1.3002,-1.2851,-1.2967,-1.3111,-1.3051,-1.3143,-1.3181,-1.3207,-1.3093,-1.2881,-1.2772,-1.2767,-1.255,-1.255,-1.2441,-1.2659,-1.2876,-1.2989,-1.3098,-1.3207,-1.3207,-1.3207,-1.3212,-1.3212,-1.3098,-1.3098,-1.3098,-1.3098,-1.2989,-1.3098,-1.3098,-1.2989,-1.3098,-1.3098,-1.3098,-1.3098,-1.3098,-1.3207,-1.3207,-1.3202,-1.3202,-1.3423,-1.3532,-1.3645,-1.3753,-1.4078,-1.4293,-1.439,-1.4493,-1.4713,-1.4934,-1.4928,-1.5035,-1.5035,-1.5035,-1.5035,-1.5035,-1.5035,-1.5035,-1.4928,-1.4928,-1.4821,-1.4606,-1.4493,-1.4175,-1.4067,-1.3959,-1.3851,-1.3748,-1.3645,-1.3428,-1.3212,-1.3207,-1.3098,-1.2989,-1.2876,-1.2767,-1.255,-1.255,-1.2441,-1.2441,-1.2441,-1.2436,-1.2436,-1.2327,-1.2436,-1.2436,-1.2436,-1.2436,-1.2436,-1.3392,-1.3272,-1.3558,-1.3507,-1.3403,-1.3785,-1.3913,-1.3727,-1.3437,-1.3335,-1.3141,-1.2948,-1.3147,-1.3732,-1.3437,-1.3244,-1.3238,-1.3141,-1.2851,-1.2662,-1.2662,-1.2565,-1.2386,-1.252,-1.2402,-1.2353,-1.2451,-1.2693,-1.2646,-1.2772,-1.293,-1.2876,-1.2659,-1.2545,-1.2545,-1.2436,-1.2436,-1.2327,-1.2327,-1.2327,-1.2332,-1.255,-1.255,-1.255,-1.255,-1.255,-1.255,-1.255,-1.255,-1.255,-1.2654,-1.2659,-1.2659,-1.2659,-1.2659,-1.2767,-1.2659,-1.2659,-1.2659,-1.2659,-1.2767,-1.2659,-1.2659,-1.2659,-1.2659,-1.2659,-1.2876,-1.3098,-1.3207,-1.3315,-1.364,-1.3645,-1.3748,-1.3851,-1.3959,-1.439,-1.4498,-1.4713,-1.4821,-1.4821,-1.4821,-1.4821,-1.4821,-1.4713,-1.4606,-1.4498,-1.4385,-1.4169,-1.3851,-1.3635,-1.3418,-1.3418,-1.331,-1.3315,-1.3315,-1.3098,-1.2989,-1.2881,-1.2772,-1.2767,-1.2659,-1.255,-1.2436,-1.2436,-1.2436,-1.2441,-1.2436,-1.2327,-1.2327,-1.2327,-1.2327,-1.2436,-1.2327,-1.2327,-1.2219]}]]